<?xml version="1.0" encoding="UTF-8" standalone="no" ?>
<gpx xmlns="http://www.topografix.com/GPX/1/1" xmlns:xsi="http://www.w3.org/2001/XMLSchema-instance" xsi:schemaLocation="http://www.topografix.com/GPX/1/1 http://www.topografix.com/GPX/1/1/gpx.xsd" version="1.1" creator="VisuGPX - https://www.visugpx.com">
  <metadata>
    <name>Mont Rachais March 14, 2014</name>
  </metadata>
  <trk>
    <name><![CDATA[ACTIVE LOG054201]]></name>
    <trkseg>
      <trkpt lat="45.19701" lon="5.73975">
        <ele>215.037</ele>
        <time>2021-03-14T04:42:01Z</time>
      </trkpt>
      <trkpt lat="45.19697" lon="5.73973">
        <ele>218.321</ele>
        <time>2021-03-14T04:42:09Z</time>
      </trkpt>
      <trkpt lat="45.19693" lon="5.73971">
        <ele>222.441</ele>
        <time>2021-03-14T04:42:12Z</time>
      </trkpt>
      <trkpt lat="45.19696" lon="5.73971">
        <ele>226.444</ele>
        <time>2021-03-14T04:42:15Z</time>
      </trkpt>
      <trkpt lat="45.19698" lon="5.7397">
        <ele>229.966</ele>
        <time>2021-03-14T04:42:18Z</time>
      </trkpt>
      <trkpt lat="45.19697" lon="5.73968">
        <ele>232.971</ele>
        <time>2021-03-14T04:42:21Z</time>
      </trkpt>
      <trkpt lat="45.19701" lon="5.73963">
        <ele>236.002</ele>
        <time>2021-03-14T04:42:25Z</time>
      </trkpt>
      <trkpt lat="45.19707" lon="5.7396">
        <ele>239.093</ele>
        <time>2021-03-14T04:42:29Z</time>
      </trkpt>
      <trkpt lat="45.1971" lon="5.7396">
        <ele>242.285</ele>
        <time>2021-03-14T04:42:34Z</time>
      </trkpt>
      <trkpt lat="45.1971" lon="5.73961">
        <ele>243.969</ele>
        <time>2021-03-14T04:42:37Z</time>
      </trkpt>
      <trkpt lat="45.19711" lon="5.73961">
        <ele>245.317</ele>
        <time>2021-03-14T04:42:40Z</time>
      </trkpt>
      <trkpt lat="45.19711" lon="5.73961">
        <ele>246.489</ele>
        <time>2021-03-14T04:42:42Z</time>
      </trkpt>
      <trkpt lat="45.19705" lon="5.73962">
        <ele>247.463</ele>
        <time>2021-03-14T04:42:44Z</time>
      </trkpt>
      <trkpt lat="45.19684" lon="5.73959">
        <ele>248.508</ele>
        <time>2021-03-14T04:42:53Z</time>
      </trkpt>
      <trkpt lat="45.19687" lon="5.73958">
        <ele>248.826</ele>
        <time>2021-03-14T04:43:12Z</time>
      </trkpt>
    </trkseg>
  </trk>
  <trk>
    <name><![CDATA[ACTIVE LOG054347]]></name>
    <trkseg>
      <trkpt lat="45.19682" lon="5.73967">
        <ele>249.299</ele>
        <time>2021-03-14T04:43:47Z</time>
      </trkpt>
    </trkseg>
  </trk>
  <trk>
    <name><![CDATA[ACTIVE LOG054348]]></name>
    <trkseg>
      <trkpt lat="45.19653" lon="5.73983">
        <ele>249.371</ele>
        <time>2021-03-14T04:43:48Z</time>
      </trkpt>
      <trkpt lat="45.19679" lon="5.73977">
        <ele>249.139</ele>
        <time>2021-03-14T04:44:20Z</time>
      </trkpt>
      <trkpt lat="45.1966" lon="5.73988">
        <ele>248.642</ele>
        <time>2021-03-14T04:45:00Z</time>
      </trkpt>
      <trkpt lat="45.19658" lon="5.7398">
        <ele>248.93</ele>
        <time>2021-03-14T04:45:06Z</time>
      </trkpt>
      <trkpt lat="45.1964" lon="5.73979">
        <ele>248.82</ele>
        <time>2021-03-14T04:45:14Z</time>
      </trkpt>
      <trkpt lat="45.19635" lon="5.73977">
        <ele>247.841</ele>
        <time>2021-03-14T04:45:23Z</time>
      </trkpt>
      <trkpt lat="45.19637" lon="5.73976">
        <ele>247.108</ele>
        <time>2021-03-14T04:45:29Z</time>
      </trkpt>
      <trkpt lat="45.19636" lon="5.73976">
        <ele>245.524</ele>
        <time>2021-03-14T04:45:33Z</time>
      </trkpt>
      <trkpt lat="45.19634" lon="5.73978">
        <ele>244.698</ele>
        <time>2021-03-14T04:45:38Z</time>
      </trkpt>
      <trkpt lat="45.19634" lon="5.73977">
        <ele>242.735</ele>
        <time>2021-03-14T04:45:45Z</time>
      </trkpt>
      <trkpt lat="45.1965" lon="5.73977">
        <ele>240.891</ele>
        <time>2021-03-14T04:45:54Z</time>
      </trkpt>
      <trkpt lat="45.19657" lon="5.73976">
        <ele>239.178</ele>
        <time>2021-03-14T04:46:00Z</time>
      </trkpt>
      <trkpt lat="45.19655" lon="5.73975">
        <ele>239.723</ele>
        <time>2021-03-14T04:46:12Z</time>
      </trkpt>
      <trkpt lat="45.19656" lon="5.73973">
        <ele>239.525</ele>
        <time>2021-03-14T04:46:14Z</time>
      </trkpt>
      <trkpt lat="45.19669" lon="5.73954">
        <ele>239.7</ele>
        <time>2021-03-14T04:46:21Z</time>
      </trkpt>
      <trkpt lat="45.19674" lon="5.73946">
        <ele>238.789</ele>
        <time>2021-03-14T04:46:26Z</time>
      </trkpt>
      <trkpt lat="45.19674" lon="5.73943">
        <ele>238.272</ele>
        <time>2021-03-14T04:46:29Z</time>
      </trkpt>
      <trkpt lat="45.19674" lon="5.73946">
        <ele>238.572</ele>
        <time>2021-03-14T04:46:32Z</time>
      </trkpt>
      <trkpt lat="45.19679" lon="5.73954">
        <ele>238.934</ele>
        <time>2021-03-14T04:46:36Z</time>
      </trkpt>
      <trkpt lat="45.19683" lon="5.73967">
        <ele>238.2</ele>
        <time>2021-03-14T04:46:42Z</time>
      </trkpt>
      <trkpt lat="45.19682" lon="5.73977">
        <ele>238.35</ele>
        <time>2021-03-14T04:46:47Z</time>
      </trkpt>
      <trkpt lat="45.19684" lon="5.73986">
        <ele>236.962</ele>
        <time>2021-03-14T04:46:52Z</time>
      </trkpt>
      <trkpt lat="45.19688" lon="5.73995">
        <ele>238.069</ele>
        <time>2021-03-14T04:46:56Z</time>
      </trkpt>
      <trkpt lat="45.19688" lon="5.74006">
        <ele>237.461</ele>
        <time>2021-03-14T04:47:00Z</time>
      </trkpt>
      <trkpt lat="45.19688" lon="5.74013">
        <ele>237.533</ele>
        <time>2021-03-14T04:47:03Z</time>
      </trkpt>
      <trkpt lat="45.1969" lon="5.74023">
        <ele>238.29</ele>
        <time>2021-03-14T04:47:07Z</time>
      </trkpt>
      <trkpt lat="45.19692" lon="5.74039">
        <ele>238.975</ele>
        <time>2021-03-14T04:47:13Z</time>
      </trkpt>
      <trkpt lat="45.19699" lon="5.74062">
        <ele>238.197</ele>
        <time>2021-03-14T04:47:21Z</time>
      </trkpt>
      <trkpt lat="45.19705" lon="5.74084">
        <ele>237.593</ele>
        <time>2021-03-14T04:47:28Z</time>
      </trkpt>
      <trkpt lat="45.19705" lon="5.74111">
        <ele>236.867</ele>
        <time>2021-03-14T04:47:35Z</time>
      </trkpt>
      <trkpt lat="45.19711" lon="5.74125">
        <ele>237.462</ele>
        <time>2021-03-14T04:47:40Z</time>
      </trkpt>
      <trkpt lat="45.19713" lon="5.74138">
        <ele>236.571</ele>
        <time>2021-03-14T04:47:44Z</time>
      </trkpt>
      <trkpt lat="45.19717" lon="5.74166">
        <ele>236.437</ele>
        <time>2021-03-14T04:47:52Z</time>
      </trkpt>
      <trkpt lat="45.19723" lon="5.7418">
        <ele>235.888</ele>
        <time>2021-03-14T04:47:57Z</time>
      </trkpt>
      <trkpt lat="45.19729" lon="5.74192">
        <ele>236.397</ele>
        <time>2021-03-14T04:48:02Z</time>
      </trkpt>
      <trkpt lat="45.19731" lon="5.74214">
        <ele>236.294</ele>
        <time>2021-03-14T04:48:08Z</time>
      </trkpt>
      <trkpt lat="45.19732" lon="5.74237">
        <ele>237.029</ele>
        <time>2021-03-14T04:48:14Z</time>
      </trkpt>
      <trkpt lat="45.1973" lon="5.74245">
        <ele>236.735</ele>
        <time>2021-03-14T04:48:16Z</time>
      </trkpt>
      <trkpt lat="45.1973" lon="5.74249">
        <ele>237.381</ele>
        <time>2021-03-14T04:48:19Z</time>
      </trkpt>
      <trkpt lat="45.19739" lon="5.74249">
        <ele>237.977</ele>
        <time>2021-03-14T04:48:23Z</time>
      </trkpt>
      <trkpt lat="45.1976" lon="5.74241">
        <ele>238.355</ele>
        <time>2021-03-14T04:48:31Z</time>
      </trkpt>
      <trkpt lat="45.19775" lon="5.74239">
        <ele>238.87</ele>
        <time>2021-03-14T04:48:37Z</time>
      </trkpt>
      <trkpt lat="45.19788" lon="5.74238">
        <ele>238.803</ele>
        <time>2021-03-14T04:48:43Z</time>
      </trkpt>
      <trkpt lat="45.19805" lon="5.74232">
        <ele>238.427</ele>
        <time>2021-03-14T04:48:50Z</time>
      </trkpt>
      <trkpt lat="45.19823" lon="5.74224">
        <ele>237.848</ele>
        <time>2021-03-14T04:48:56Z</time>
      </trkpt>
      <trkpt lat="45.19841" lon="5.7422">
        <ele>238.247</ele>
        <time>2021-03-14T04:49:03Z</time>
      </trkpt>
      <trkpt lat="45.19859" lon="5.74213">
        <ele>236.97</ele>
        <time>2021-03-14T04:49:11Z</time>
      </trkpt>
      <trkpt lat="45.19878" lon="5.74201">
        <ele>236.362</ele>
        <time>2021-03-14T04:49:19Z</time>
      </trkpt>
      <trkpt lat="45.19893" lon="5.7419">
        <ele>236.512</ele>
        <time>2021-03-14T04:49:25Z</time>
      </trkpt>
      <trkpt lat="45.19911" lon="5.74183">
        <ele>236.964</ele>
        <time>2021-03-14T04:49:32Z</time>
      </trkpt>
      <trkpt lat="45.19927" lon="5.74171">
        <ele>237.47</ele>
        <time>2021-03-14T04:49:39Z</time>
      </trkpt>
      <trkpt lat="45.19945" lon="5.7416">
        <ele>238.335</ele>
        <time>2021-03-14T04:49:47Z</time>
      </trkpt>
      <trkpt lat="45.19957" lon="5.7415">
        <ele>237.702</ele>
        <time>2021-03-14T04:49:53Z</time>
      </trkpt>
      <trkpt lat="45.19973" lon="5.74134">
        <ele>238.098</ele>
        <time>2021-03-14T04:50:00Z</time>
      </trkpt>
      <trkpt lat="45.19983" lon="5.74118">
        <ele>238.572</ele>
        <time>2021-03-14T04:50:06Z</time>
      </trkpt>
      <trkpt lat="45.19993" lon="5.7411">
        <ele>237.688</ele>
        <time>2021-03-14T04:50:11Z</time>
      </trkpt>
      <trkpt lat="45.20004" lon="5.74103">
        <ele>237.141</ele>
        <time>2021-03-14T04:50:16Z</time>
      </trkpt>
      <trkpt lat="45.20016" lon="5.7409">
        <ele>236.266</ele>
        <time>2021-03-14T04:50:22Z</time>
      </trkpt>
      <trkpt lat="45.20018" lon="5.74089">
        <ele>235.863</ele>
        <time>2021-03-14T04:50:26Z</time>
      </trkpt>
      <trkpt lat="45.20014" lon="5.74087">
        <ele>235.682</ele>
        <time>2021-03-14T04:50:32Z</time>
      </trkpt>
      <trkpt lat="45.20036" lon="5.74042">
        <ele>236.755</ele>
        <time>2021-03-14T04:50:37Z</time>
      </trkpt>
      <trkpt lat="45.20041" lon="5.74037">
        <ele>237.04</ele>
        <time>2021-03-14T04:50:40Z</time>
      </trkpt>
      <trkpt lat="45.20049" lon="5.74023">
        <ele>238.703</ele>
        <time>2021-03-14T04:50:47Z</time>
      </trkpt>
      <trkpt lat="45.20057" lon="5.74009">
        <ele>238.945</ele>
        <time>2021-03-14T04:50:52Z</time>
      </trkpt>
      <trkpt lat="45.20067" lon="5.73999">
        <ele>238.001</ele>
        <time>2021-03-14T04:50:56Z</time>
      </trkpt>
      <trkpt lat="45.20078" lon="5.73989">
        <ele>237.823</ele>
        <time>2021-03-14T04:51:00Z</time>
      </trkpt>
      <trkpt lat="45.20094" lon="5.73971">
        <ele>237.743</ele>
        <time>2021-03-14T04:51:07Z</time>
      </trkpt>
      <trkpt lat="45.20104" lon="5.7395">
        <ele>236.869</ele>
        <time>2021-03-14T04:51:13Z</time>
      </trkpt>
      <trkpt lat="45.20115" lon="5.7394">
        <ele>235.671</ele>
        <time>2021-03-14T04:51:18Z</time>
      </trkpt>
      <trkpt lat="45.20123" lon="5.7393">
        <ele>235.9</ele>
        <time>2021-03-14T04:51:23Z</time>
      </trkpt>
      <trkpt lat="45.20137" lon="5.73909">
        <ele>236.68</ele>
        <time>2021-03-14T04:51:32Z</time>
      </trkpt>
      <trkpt lat="45.20149" lon="5.73891">
        <ele>235.735</ele>
        <time>2021-03-14T04:51:39Z</time>
      </trkpt>
      <trkpt lat="45.20163" lon="5.7386">
        <ele>234.928</ele>
        <time>2021-03-14T04:51:48Z</time>
      </trkpt>
      <trkpt lat="45.20172" lon="5.7384">
        <ele>234.804</ele>
        <time>2021-03-14T04:51:55Z</time>
      </trkpt>
      <trkpt lat="45.20178" lon="5.73815">
        <ele>234.225</ele>
        <time>2021-03-14T04:52:02Z</time>
      </trkpt>
      <trkpt lat="45.20179" lon="5.73793">
        <ele>233.248</ele>
        <time>2021-03-14T04:52:08Z</time>
      </trkpt>
      <trkpt lat="45.20179" lon="5.73767">
        <ele>233.307</ele>
        <time>2021-03-14T04:52:16Z</time>
      </trkpt>
      <trkpt lat="45.20179" lon="5.73764">
        <ele>232.951</ele>
        <time>2021-03-14T04:52:17Z</time>
      </trkpt>
      <trkpt lat="45.20181" lon="5.73743">
        <ele>233.383</ele>
        <time>2021-03-14T04:52:23Z</time>
      </trkpt>
      <trkpt lat="45.2018" lon="5.73721">
        <ele>232.872</ele>
        <time>2021-03-14T04:52:29Z</time>
      </trkpt>
      <trkpt lat="45.20176" lon="5.73709">
        <ele>233.026</ele>
        <time>2021-03-14T04:52:33Z</time>
      </trkpt>
      <trkpt lat="45.20171" lon="5.73688">
        <ele>232.706</ele>
        <time>2021-03-14T04:52:40Z</time>
      </trkpt>
      <trkpt lat="45.20169" lon="5.7367">
        <ele>232.664</ele>
        <time>2021-03-14T04:52:46Z</time>
      </trkpt>
      <trkpt lat="45.20169" lon="5.73663">
        <ele>233.112</ele>
        <time>2021-03-14T04:52:48Z</time>
      </trkpt>
      <trkpt lat="45.20159" lon="5.73637">
        <ele>233.284</ele>
        <time>2021-03-14T04:52:55Z</time>
      </trkpt>
      <trkpt lat="45.20156" lon="5.73619">
        <ele>232.952</ele>
        <time>2021-03-14T04:53:00Z</time>
      </trkpt>
      <trkpt lat="45.20148" lon="5.736">
        <ele>232.582</ele>
        <time>2021-03-14T04:53:07Z</time>
      </trkpt>
      <trkpt lat="45.20142" lon="5.73593">
        <ele>232.21</ele>
        <time>2021-03-14T04:53:10Z</time>
      </trkpt>
      <trkpt lat="45.20128" lon="5.73575">
        <ele>232.53</ele>
        <time>2021-03-14T04:53:17Z</time>
      </trkpt>
      <trkpt lat="45.20119" lon="5.73563">
        <ele>232.287</ele>
        <time>2021-03-14T04:53:22Z</time>
      </trkpt>
      <trkpt lat="45.20115" lon="5.73558">
        <ele>232.756</ele>
        <time>2021-03-14T04:53:24Z</time>
      </trkpt>
      <trkpt lat="45.20105" lon="5.73546">
        <ele>232.491</ele>
        <time>2021-03-14T04:53:29Z</time>
      </trkpt>
      <trkpt lat="45.20091" lon="5.73523">
        <ele>231.75</ele>
        <time>2021-03-14T04:53:36Z</time>
      </trkpt>
      <trkpt lat="45.20076" lon="5.73509">
        <ele>231.442</ele>
        <time>2021-03-14T04:53:43Z</time>
      </trkpt>
      <trkpt lat="45.2006" lon="5.735">
        <ele>231.649</ele>
        <time>2021-03-14T04:53:49Z</time>
      </trkpt>
      <trkpt lat="45.20048" lon="5.73496">
        <ele>231.989</ele>
        <time>2021-03-14T04:53:53Z</time>
      </trkpt>
      <trkpt lat="45.20035" lon="5.73487">
        <ele>231.78</ele>
        <time>2021-03-14T04:53:58Z</time>
      </trkpt>
      <trkpt lat="45.2002" lon="5.73474">
        <ele>231.008</ele>
        <time>2021-03-14T04:54:05Z</time>
      </trkpt>
      <trkpt lat="45.2001" lon="5.73462">
        <ele>231.185</ele>
        <time>2021-03-14T04:54:10Z</time>
      </trkpt>
      <trkpt lat="45.20003" lon="5.73456">
        <ele>231.194</ele>
        <time>2021-03-14T04:54:13Z</time>
      </trkpt>
      <trkpt lat="45.19986" lon="5.73441">
        <ele>231.496</ele>
        <time>2021-03-14T04:54:21Z</time>
      </trkpt>
      <trkpt lat="45.19973" lon="5.73432">
        <ele>230.995</ele>
        <time>2021-03-14T04:54:27Z</time>
      </trkpt>
      <trkpt lat="45.19957" lon="5.73425">
        <ele>230.885</ele>
        <time>2021-03-14T04:54:33Z</time>
      </trkpt>
      <trkpt lat="45.1994" lon="5.73421">
        <ele>230.747</ele>
        <time>2021-03-14T04:54:40Z</time>
      </trkpt>
      <trkpt lat="45.19917" lon="5.7342">
        <ele>230.236</ele>
        <time>2021-03-14T04:54:48Z</time>
      </trkpt>
      <trkpt lat="45.19902" lon="5.73419">
        <ele>231.231</ele>
        <time>2021-03-14T04:54:54Z</time>
      </trkpt>
      <trkpt lat="45.19892" lon="5.73416">
        <ele>231.864</ele>
        <time>2021-03-14T04:54:59Z</time>
      </trkpt>
      <trkpt lat="45.1988" lon="5.7341">
        <ele>232.596</ele>
        <time>2021-03-14T04:55:05Z</time>
      </trkpt>
      <trkpt lat="45.19868" lon="5.73406">
        <ele>231.316</ele>
        <time>2021-03-14T04:55:10Z</time>
      </trkpt>
      <trkpt lat="45.19853" lon="5.734">
        <ele>230.525</ele>
        <time>2021-03-14T04:55:15Z</time>
      </trkpt>
      <trkpt lat="45.19838" lon="5.73393">
        <ele>231.441</ele>
        <time>2021-03-14T04:55:21Z</time>
      </trkpt>
      <trkpt lat="45.19836" lon="5.73391">
        <ele>230.265</ele>
        <time>2021-03-14T04:55:22Z</time>
      </trkpt>
      <trkpt lat="45.1982" lon="5.73388">
        <ele>230.595</ele>
        <time>2021-03-14T04:55:28Z</time>
      </trkpt>
      <trkpt lat="45.19815" lon="5.73386">
        <ele>230.268</ele>
        <time>2021-03-14T04:55:30Z</time>
      </trkpt>
      <trkpt lat="45.19796" lon="5.73379">
        <ele>230.337</ele>
        <time>2021-03-14T04:55:38Z</time>
      </trkpt>
      <trkpt lat="45.19786" lon="5.73377">
        <ele>230.234</ele>
        <time>2021-03-14T04:55:42Z</time>
      </trkpt>
      <trkpt lat="45.19769" lon="5.73373">
        <ele>230.179</ele>
        <time>2021-03-14T04:55:48Z</time>
      </trkpt>
      <trkpt lat="45.19755" lon="5.73371">
        <ele>230.464</ele>
        <time>2021-03-14T04:55:53Z</time>
      </trkpt>
      <trkpt lat="45.1974" lon="5.73367">
        <ele>231.193</ele>
        <time>2021-03-14T04:55:59Z</time>
      </trkpt>
      <trkpt lat="45.1973" lon="5.7336">
        <ele>232.619</ele>
        <time>2021-03-14T04:56:03Z</time>
      </trkpt>
      <trkpt lat="45.19737" lon="5.73338">
        <ele>232.559</ele>
        <time>2021-03-14T04:56:09Z</time>
      </trkpt>
      <trkpt lat="45.19742" lon="5.73321">
        <ele>232.924</ele>
        <time>2021-03-14T04:56:14Z</time>
      </trkpt>
      <trkpt lat="45.19747" lon="5.73298">
        <ele>233.174</ele>
        <time>2021-03-14T04:56:20Z</time>
      </trkpt>
      <trkpt lat="45.19754" lon="5.73272">
        <ele>233.221</ele>
        <time>2021-03-14T04:56:27Z</time>
      </trkpt>
      <trkpt lat="45.19762" lon="5.73248">
        <ele>232.696</ele>
        <time>2021-03-14T04:56:33Z</time>
      </trkpt>
      <trkpt lat="45.19769" lon="5.7323">
        <ele>231.807</ele>
        <time>2021-03-14T04:56:38Z</time>
      </trkpt>
      <trkpt lat="45.19778" lon="5.73212">
        <ele>232.006</ele>
        <time>2021-03-14T04:56:44Z</time>
      </trkpt>
      <trkpt lat="45.19779" lon="5.7319">
        <ele>231.536</ele>
        <time>2021-03-14T04:56:50Z</time>
      </trkpt>
      <trkpt lat="45.1978" lon="5.73187">
        <ele>231.634</ele>
        <time>2021-03-14T04:56:51Z</time>
      </trkpt>
      <trkpt lat="45.19775" lon="5.73174">
        <ele>232.201</ele>
        <time>2021-03-14T04:56:58Z</time>
      </trkpt>
      <trkpt lat="45.19777" lon="5.7316">
        <ele>233.855</ele>
        <time>2021-03-14T04:57:03Z</time>
      </trkpt>
      <trkpt lat="45.19783" lon="5.73141">
        <ele>234.997</ele>
        <time>2021-03-14T04:57:10Z</time>
      </trkpt>
      <trkpt lat="45.19783" lon="5.73139">
        <ele>235.415</ele>
        <time>2021-03-14T04:57:11Z</time>
      </trkpt>
      <trkpt lat="45.19796" lon="5.7313">
        <ele>237.621</ele>
        <time>2021-03-14T04:57:18Z</time>
      </trkpt>
      <trkpt lat="45.198" lon="5.73129">
        <ele>238.026</ele>
        <time>2021-03-14T04:57:20Z</time>
      </trkpt>
      <trkpt lat="45.19803" lon="5.73129">
        <ele>239.866</ele>
        <time>2021-03-14T04:57:25Z</time>
      </trkpt>
      <trkpt lat="45.19788" lon="5.73123">
        <ele>240.588</ele>
        <time>2021-03-14T04:57:33Z</time>
      </trkpt>
      <trkpt lat="45.19764" lon="5.73098">
        <ele>243.271</ele>
        <time>2021-03-14T04:57:46Z</time>
      </trkpt>
      <trkpt lat="45.19763" lon="5.73096">
        <ele>244.715</ele>
        <time>2021-03-14T04:57:49Z</time>
      </trkpt>
      <trkpt lat="45.19758" lon="5.7309">
        <ele>245.65</ele>
        <time>2021-03-14T04:57:55Z</time>
      </trkpt>
      <trkpt lat="45.1977" lon="5.73092">
        <ele>247.703</ele>
        <time>2021-03-14T04:58:01Z</time>
      </trkpt>
      <trkpt lat="45.19777" lon="5.73093">
        <ele>248.167</ele>
        <time>2021-03-14T04:58:06Z</time>
      </trkpt>
      <trkpt lat="45.19786" lon="5.731">
        <ele>249.818</ele>
        <time>2021-03-14T04:58:13Z</time>
      </trkpt>
      <trkpt lat="45.19794" lon="5.73104">
        <ele>250.963</ele>
        <time>2021-03-14T04:58:20Z</time>
      </trkpt>
      <trkpt lat="45.19796" lon="5.73102">
        <ele>251.737</ele>
        <time>2021-03-14T04:58:24Z</time>
      </trkpt>
      <trkpt lat="45.19789" lon="5.73102">
        <ele>251.936</ele>
        <time>2021-03-14T04:58:28Z</time>
      </trkpt>
      <trkpt lat="45.19777" lon="5.73095">
        <ele>253.258</ele>
        <time>2021-03-14T04:58:35Z</time>
      </trkpt>
      <trkpt lat="45.19769" lon="5.73082">
        <ele>255.662</ele>
        <time>2021-03-14T04:58:42Z</time>
      </trkpt>
      <trkpt lat="45.19765" lon="5.73078">
        <ele>256.149</ele>
        <time>2021-03-14T04:58:46Z</time>
      </trkpt>
      <trkpt lat="45.19755" lon="5.73072">
        <ele>257.785</ele>
        <time>2021-03-14T04:58:53Z</time>
      </trkpt>
      <trkpt lat="45.1975" lon="5.7307">
        <ele>258.372</ele>
        <time>2021-03-14T04:58:56Z</time>
      </trkpt>
      <trkpt lat="45.19748" lon="5.73065">
        <ele>258.586</ele>
        <time>2021-03-14T04:58:59Z</time>
      </trkpt>
      <trkpt lat="45.19753" lon="5.73062">
        <ele>259.386</ele>
        <time>2021-03-14T04:59:02Z</time>
      </trkpt>
      <trkpt lat="45.19759" lon="5.73059">
        <ele>259.969</ele>
        <time>2021-03-14T04:59:06Z</time>
      </trkpt>
      <trkpt lat="45.19774" lon="5.73063">
        <ele>261.821</ele>
        <time>2021-03-14T04:59:14Z</time>
      </trkpt>
      <trkpt lat="45.19778" lon="5.73066">
        <ele>262.312</ele>
        <time>2021-03-14T04:59:17Z</time>
      </trkpt>
      <trkpt lat="45.19795" lon="5.73069">
        <ele>264.209</ele>
        <time>2021-03-14T04:59:25Z</time>
      </trkpt>
      <trkpt lat="45.19793" lon="5.73073">
        <ele>264.702</ele>
        <time>2021-03-14T04:59:30Z</time>
      </trkpt>
      <trkpt lat="45.19778" lon="5.7307">
        <ele>265.5</ele>
        <time>2021-03-14T04:59:37Z</time>
      </trkpt>
      <trkpt lat="45.19768" lon="5.73057">
        <ele>267.229</ele>
        <time>2021-03-14T04:59:45Z</time>
      </trkpt>
      <trkpt lat="45.19764" lon="5.73052">
        <ele>267.667</ele>
        <time>2021-03-14T04:59:48Z</time>
      </trkpt>
      <trkpt lat="45.19759" lon="5.73048">
        <ele>268.462</ele>
        <time>2021-03-14T04:59:52Z</time>
      </trkpt>
      <trkpt lat="45.19753" lon="5.73037">
        <ele>269.722</ele>
        <time>2021-03-14T04:59:59Z</time>
      </trkpt>
      <trkpt lat="45.19768" lon="5.73036">
        <ele>271.58</ele>
        <time>2021-03-14T05:00:07Z</time>
      </trkpt>
      <trkpt lat="45.19774" lon="5.7304">
        <ele>273.137</ele>
        <time>2021-03-14T05:00:14Z</time>
      </trkpt>
      <trkpt lat="45.19787" lon="5.73046">
        <ele>274.569</ele>
        <time>2021-03-14T05:00:23Z</time>
      </trkpt>
      <trkpt lat="45.19794" lon="5.7305">
        <ele>275.977</ele>
        <time>2021-03-14T05:00:26Z</time>
      </trkpt>
      <trkpt lat="45.19801" lon="5.73051">
        <ele>276.922</ele>
        <time>2021-03-14T05:00:30Z</time>
      </trkpt>
      <trkpt lat="45.19802" lon="5.73045">
        <ele>277.746</ele>
        <time>2021-03-14T05:00:36Z</time>
      </trkpt>
      <trkpt lat="45.19791" lon="5.7304">
        <ele>279.79</ele>
        <time>2021-03-14T05:00:42Z</time>
      </trkpt>
      <trkpt lat="45.19789" lon="5.73039">
        <ele>279.344</ele>
        <time>2021-03-14T05:00:43Z</time>
      </trkpt>
      <trkpt lat="45.19785" lon="5.73035">
        <ele>280.242</ele>
        <time>2021-03-14T05:00:46Z</time>
      </trkpt>
      <trkpt lat="45.19773" lon="5.73033">
        <ele>280.928</ele>
        <time>2021-03-14T05:00:52Z</time>
      </trkpt>
      <trkpt lat="45.19761" lon="5.73026">
        <ele>281.341</ele>
        <time>2021-03-14T05:00:59Z</time>
      </trkpt>
      <trkpt lat="45.19768" lon="5.73015">
        <ele>282.333</ele>
        <time>2021-03-14T05:01:04Z</time>
      </trkpt>
      <trkpt lat="45.19778" lon="5.73015">
        <ele>284.032</ele>
        <time>2021-03-14T05:01:11Z</time>
      </trkpt>
      <trkpt lat="45.19784" lon="5.73015">
        <ele>284.912</ele>
        <time>2021-03-14T05:01:14Z</time>
      </trkpt>
      <trkpt lat="45.19798" lon="5.73021">
        <ele>285.918</ele>
        <time>2021-03-14T05:01:22Z</time>
      </trkpt>
      <trkpt lat="45.19801" lon="5.73021">
        <ele>286.067</ele>
        <time>2021-03-14T05:01:23Z</time>
      </trkpt>
      <trkpt lat="45.19806" lon="5.7303">
        <ele>286.716</ele>
        <time>2021-03-14T05:01:29Z</time>
      </trkpt>
      <trkpt lat="45.19805" lon="5.73029">
        <ele>287.628</ele>
        <time>2021-03-14T05:01:31Z</time>
      </trkpt>
      <trkpt lat="45.198" lon="5.73027">
        <ele>288.765</ele>
        <time>2021-03-14T05:01:34Z</time>
      </trkpt>
      <trkpt lat="45.19791" lon="5.73023">
        <ele>288.907</ele>
        <time>2021-03-14T05:01:40Z</time>
      </trkpt>
      <trkpt lat="45.19782" lon="5.73009">
        <ele>290.638</ele>
        <time>2021-03-14T05:01:48Z</time>
      </trkpt>
      <trkpt lat="45.19778" lon="5.73007">
        <ele>291.037</ele>
        <time>2021-03-14T05:01:51Z</time>
      </trkpt>
      <trkpt lat="45.19773" lon="5.72998">
        <ele>292.145</ele>
        <time>2021-03-14T05:01:56Z</time>
      </trkpt>
      <trkpt lat="45.19758" lon="5.72983">
        <ele>293.862</ele>
        <time>2021-03-14T05:02:05Z</time>
      </trkpt>
      <trkpt lat="45.1975" lon="5.72974">
        <ele>295.183</ele>
        <time>2021-03-14T05:02:11Z</time>
      </trkpt>
      <trkpt lat="45.19742" lon="5.72966">
        <ele>296.195</ele>
        <time>2021-03-14T05:02:17Z</time>
      </trkpt>
      <trkpt lat="45.19737" lon="5.72944">
        <ele>297.666</ele>
        <time>2021-03-14T05:02:25Z</time>
      </trkpt>
      <trkpt lat="45.19734" lon="5.72939">
        <ele>298.647</ele>
        <time>2021-03-14T05:02:28Z</time>
      </trkpt>
      <trkpt lat="45.19724" lon="5.72922">
        <ele>300.632</ele>
        <time>2021-03-14T05:02:37Z</time>
      </trkpt>
      <trkpt lat="45.19717" lon="5.72912">
        <ele>302.259</ele>
        <time>2021-03-14T05:02:43Z</time>
      </trkpt>
      <trkpt lat="45.1971" lon="5.72903">
        <ele>302.356</ele>
        <time>2021-03-14T05:02:49Z</time>
      </trkpt>
      <trkpt lat="45.19707" lon="5.72893">
        <ele>304.317</ele>
        <time>2021-03-14T05:02:53Z</time>
      </trkpt>
      <trkpt lat="45.19698" lon="5.72879">
        <ele>305.118</ele>
        <time>2021-03-14T05:03:01Z</time>
      </trkpt>
      <trkpt lat="45.1969" lon="5.72868">
        <ele>306.103</ele>
        <time>2021-03-14T05:03:07Z</time>
      </trkpt>
      <trkpt lat="45.19687" lon="5.72864">
        <ele>307.104</ele>
        <time>2021-03-14T05:03:10Z</time>
      </trkpt>
      <trkpt lat="45.19689" lon="5.72856">
        <ele>307.711</ele>
        <time>2021-03-14T05:03:14Z</time>
      </trkpt>
      <trkpt lat="45.197" lon="5.72861">
        <ele>308.615</ele>
        <time>2021-03-14T05:03:20Z</time>
      </trkpt>
      <trkpt lat="45.19711" lon="5.72869">
        <ele>309.806</ele>
        <time>2021-03-14T05:03:27Z</time>
      </trkpt>
      <trkpt lat="45.19723" lon="5.72877">
        <ele>310.54</ele>
        <time>2021-03-14T05:03:34Z</time>
      </trkpt>
      <trkpt lat="45.19731" lon="5.72884">
        <ele>312.687</ele>
        <time>2021-03-14T05:03:41Z</time>
      </trkpt>
      <trkpt lat="45.19743" lon="5.72892">
        <ele>313.571</ele>
        <time>2021-03-14T05:03:48Z</time>
      </trkpt>
      <trkpt lat="45.19746" lon="5.72893">
        <ele>314.038</ele>
        <time>2021-03-14T05:03:50Z</time>
      </trkpt>
      <trkpt lat="45.19757" lon="5.72898">
        <ele>315.665</ele>
        <time>2021-03-14T05:03:58Z</time>
      </trkpt>
      <trkpt lat="45.19767" lon="5.72903">
        <ele>316.544</ele>
        <time>2021-03-14T05:04:03Z</time>
      </trkpt>
      <trkpt lat="45.19769" lon="5.72906">
        <ele>317.094</ele>
        <time>2021-03-14T05:04:05Z</time>
      </trkpt>
      <trkpt lat="45.19779" lon="5.72913">
        <ele>318.742</ele>
        <time>2021-03-14T05:04:13Z</time>
      </trkpt>
      <trkpt lat="45.1979" lon="5.72918">
        <ele>319.452</ele>
        <time>2021-03-14T05:04:19Z</time>
      </trkpt>
      <trkpt lat="45.19801" lon="5.72926">
        <ele>320.706</ele>
        <time>2021-03-14T05:04:26Z</time>
      </trkpt>
      <trkpt lat="45.19801" lon="5.72922">
        <ele>321.646</ele>
        <time>2021-03-14T05:04:29Z</time>
      </trkpt>
      <trkpt lat="45.1979" lon="5.72922">
        <ele>322.598</ele>
        <time>2021-03-14T05:04:35Z</time>
      </trkpt>
      <trkpt lat="45.19777" lon="5.72909">
        <ele>324.599</ele>
        <time>2021-03-14T05:04:44Z</time>
      </trkpt>
      <trkpt lat="45.19773" lon="5.72899">
        <ele>325.568</ele>
        <time>2021-03-14T05:04:49Z</time>
      </trkpt>
      <trkpt lat="45.19762" lon="5.72884">
        <ele>326.766</ele>
        <time>2021-03-14T05:04:57Z</time>
      </trkpt>
      <trkpt lat="45.19753" lon="5.72871">
        <ele>328.105</ele>
        <time>2021-03-14T05:05:05Z</time>
      </trkpt>
      <trkpt lat="45.19743" lon="5.72856">
        <ele>329.596</ele>
        <time>2021-03-14T05:05:14Z</time>
      </trkpt>
      <trkpt lat="45.1974" lon="5.7285">
        <ele>330.333</ele>
        <time>2021-03-14T05:05:18Z</time>
      </trkpt>
      <trkpt lat="45.19742" lon="5.72842">
        <ele>331.007</ele>
        <time>2021-03-14T05:05:21Z</time>
      </trkpt>
      <trkpt lat="45.19744" lon="5.72842">
        <ele>331.464</ele>
        <time>2021-03-14T05:05:23Z</time>
      </trkpt>
      <trkpt lat="45.19756" lon="5.7285">
        <ele>332.564</ele>
        <time>2021-03-14T05:05:30Z</time>
      </trkpt>
      <trkpt lat="45.19757" lon="5.72852">
        <ele>332.619</ele>
        <time>2021-03-14T05:05:31Z</time>
      </trkpt>
      <trkpt lat="45.1977" lon="5.7286">
        <ele>334.012</ele>
        <time>2021-03-14T05:05:39Z</time>
      </trkpt>
      <trkpt lat="45.19779" lon="5.72865">
        <ele>335.205</ele>
        <time>2021-03-14T05:05:44Z</time>
      </trkpt>
      <trkpt lat="45.19783" lon="5.72867">
        <ele>335.46</ele>
        <time>2021-03-14T05:05:46Z</time>
      </trkpt>
      <trkpt lat="45.19795" lon="5.72874">
        <ele>336.764</ele>
        <time>2021-03-14T05:05:53Z</time>
      </trkpt>
      <trkpt lat="45.19802" lon="5.72879">
        <ele>337.467</ele>
        <time>2021-03-14T05:05:59Z</time>
      </trkpt>
      <trkpt lat="45.19805" lon="5.72881">
        <ele>337.992</ele>
        <time>2021-03-14T05:06:01Z</time>
      </trkpt>
      <trkpt lat="45.1981" lon="5.72884">
        <ele>338.612</ele>
        <time>2021-03-14T05:06:06Z</time>
      </trkpt>
      <trkpt lat="45.19806" lon="5.72882">
        <ele>340.067</ele>
        <time>2021-03-14T05:06:10Z</time>
      </trkpt>
      <trkpt lat="45.19799" lon="5.72879">
        <ele>340.496</ele>
        <time>2021-03-14T05:06:14Z</time>
      </trkpt>
      <trkpt lat="45.19795" lon="5.7287">
        <ele>341.629</ele>
        <time>2021-03-14T05:06:19Z</time>
      </trkpt>
      <trkpt lat="45.19789" lon="5.72861">
        <ele>343.388</ele>
        <time>2021-03-14T05:06:25Z</time>
      </trkpt>
      <trkpt lat="45.19786" lon="5.72853">
        <ele>343.195</ele>
        <time>2021-03-14T05:06:28Z</time>
      </trkpt>
      <trkpt lat="45.19778" lon="5.72847">
        <ele>344.611</ele>
        <time>2021-03-14T05:06:35Z</time>
      </trkpt>
      <trkpt lat="45.19765" lon="5.72839">
        <ele>346.757</ele>
        <time>2021-03-14T05:06:43Z</time>
      </trkpt>
      <trkpt lat="45.19756" lon="5.7283">
        <ele>348.55</ele>
        <time>2021-03-14T05:06:51Z</time>
      </trkpt>
      <trkpt lat="45.19752" lon="5.72818">
        <ele>348.719</ele>
        <time>2021-03-14T05:06:57Z</time>
      </trkpt>
      <trkpt lat="45.19753" lon="5.72813">
        <ele>350.093</ele>
        <time>2021-03-14T05:07:01Z</time>
      </trkpt>
      <trkpt lat="45.19765" lon="5.72819">
        <ele>351.383</ele>
        <time>2021-03-14T05:07:09Z</time>
      </trkpt>
      <trkpt lat="45.19768" lon="5.7282">
        <ele>352.017</ele>
        <time>2021-03-14T05:07:11Z</time>
      </trkpt>
      <trkpt lat="45.19778" lon="5.72825">
        <ele>353.235</ele>
        <time>2021-03-14T05:07:18Z</time>
      </trkpt>
      <trkpt lat="45.19792" lon="5.72832">
        <ele>355.144</ele>
        <time>2021-03-14T05:07:26Z</time>
      </trkpt>
      <trkpt lat="45.19809" lon="5.72841">
        <ele>356.895</ele>
        <time>2021-03-14T05:07:37Z</time>
      </trkpt>
      <trkpt lat="45.19821" lon="5.72848">
        <ele>358.741</ele>
        <time>2021-03-14T05:07:45Z</time>
      </trkpt>
      <trkpt lat="45.19822" lon="5.72848">
        <ele>358.606</ele>
        <time>2021-03-14T05:07:46Z</time>
      </trkpt>
      <trkpt lat="45.19819" lon="5.72847">
        <ele>359.656</ele>
        <time>2021-03-14T05:07:51Z</time>
      </trkpt>
      <trkpt lat="45.19813" lon="5.72844">
        <ele>360.097</ele>
        <time>2021-03-14T05:07:55Z</time>
      </trkpt>
      <trkpt lat="45.19808" lon="5.72838">
        <ele>360.726</ele>
        <time>2021-03-14T05:07:59Z</time>
      </trkpt>
      <trkpt lat="45.19797" lon="5.72827">
        <ele>361.934</ele>
        <time>2021-03-14T05:08:07Z</time>
      </trkpt>
      <trkpt lat="45.19792" lon="5.72819">
        <ele>361.749</ele>
        <time>2021-03-14T05:08:11Z</time>
      </trkpt>
      <trkpt lat="45.19795" lon="5.72813">
        <ele>362.459</ele>
        <time>2021-03-14T05:08:14Z</time>
      </trkpt>
      <trkpt lat="45.19802" lon="5.72822">
        <ele>364.211</ele>
        <time>2021-03-14T05:08:21Z</time>
      </trkpt>
      <trkpt lat="45.1981" lon="5.72829">
        <ele>365.11</ele>
        <time>2021-03-14T05:08:27Z</time>
      </trkpt>
      <trkpt lat="45.19824" lon="5.72833">
        <ele>366.337</ele>
        <time>2021-03-14T05:08:35Z</time>
      </trkpt>
      <trkpt lat="45.19832" lon="5.72835">
        <ele>367.126</ele>
        <time>2021-03-14T05:08:40Z</time>
      </trkpt>
      <trkpt lat="45.19828" lon="5.72829">
        <ele>367.767</ele>
        <time>2021-03-14T05:08:46Z</time>
      </trkpt>
      <trkpt lat="45.19814" lon="5.72821">
        <ele>370.101</ele>
        <time>2021-03-14T05:08:56Z</time>
      </trkpt>
      <trkpt lat="45.19826" lon="5.72827">
        <ele>371.505</ele>
        <time>2021-03-14T05:09:05Z</time>
      </trkpt>
      <trkpt lat="45.19835" lon="5.7283">
        <ele>372.453</ele>
        <time>2021-03-14T05:09:10Z</time>
      </trkpt>
      <trkpt lat="45.19845" lon="5.72836">
        <ele>374.402</ele>
        <time>2021-03-14T05:09:17Z</time>
      </trkpt>
      <trkpt lat="45.19845" lon="5.72834">
        <ele>374.502</ele>
        <time>2021-03-14T05:09:19Z</time>
      </trkpt>
      <trkpt lat="45.19833" lon="5.72826">
        <ele>375.792</ele>
        <time>2021-03-14T05:09:26Z</time>
      </trkpt>
      <trkpt lat="45.19822" lon="5.72826">
        <ele>376.37</ele>
        <time>2021-03-14T05:09:31Z</time>
      </trkpt>
      <trkpt lat="45.19811" lon="5.72815">
        <ele>378.278</ele>
        <time>2021-03-14T05:09:40Z</time>
      </trkpt>
      <trkpt lat="45.19803" lon="5.72806">
        <ele>379.152</ele>
        <time>2021-03-14T05:09:46Z</time>
      </trkpt>
      <trkpt lat="45.19794" lon="5.72789">
        <ele>380.677</ele>
        <time>2021-03-14T05:09:55Z</time>
      </trkpt>
      <trkpt lat="45.19796" lon="5.72786">
        <ele>380.655</ele>
        <time>2021-03-14T05:09:56Z</time>
      </trkpt>
      <trkpt lat="45.19804" lon="5.72787">
        <ele>382.833</ele>
        <time>2021-03-14T05:10:01Z</time>
      </trkpt>
      <trkpt lat="45.19807" lon="5.72791">
        <ele>382.534</ele>
        <time>2021-03-14T05:10:03Z</time>
      </trkpt>
      <trkpt lat="45.19811" lon="5.72798">
        <ele>383.994</ele>
        <time>2021-03-14T05:10:09Z</time>
      </trkpt>
      <trkpt lat="45.19821" lon="5.72798">
        <ele>384.742</ele>
        <time>2021-03-14T05:10:14Z</time>
      </trkpt>
      <trkpt lat="45.19836" lon="5.72795">
        <ele>384.087</ele>
        <time>2021-03-14T05:10:21Z</time>
      </trkpt>
      <trkpt lat="45.19836" lon="5.72799">
        <ele>386.198</ele>
        <time>2021-03-14T05:10:23Z</time>
      </trkpt>
      <trkpt lat="45.19841" lon="5.72802">
        <ele>385.882</ele>
        <time>2021-03-14T05:10:28Z</time>
      </trkpt>
      <trkpt lat="45.19843" lon="5.72802">
        <ele>386.664</ele>
        <time>2021-03-14T05:10:32Z</time>
      </trkpt>
      <trkpt lat="45.19839" lon="5.72801">
        <ele>387.582</ele>
        <time>2021-03-14T05:10:35Z</time>
      </trkpt>
      <trkpt lat="45.19837" lon="5.72801">
        <ele>388.204</ele>
        <time>2021-03-14T05:10:38Z</time>
      </trkpt>
      <trkpt lat="45.19826" lon="5.72791">
        <ele>389.838</ele>
        <time>2021-03-14T05:10:46Z</time>
      </trkpt>
      <trkpt lat="45.19826" lon="5.7279">
        <ele>390.355</ele>
        <time>2021-03-14T05:10:54Z</time>
      </trkpt>
      <trkpt lat="45.1982" lon="5.72795">
        <ele>389.776</ele>
        <time>2021-03-14T05:11:31Z</time>
      </trkpt>
      <trkpt lat="45.19811" lon="5.72787">
        <ele>390.994</ele>
        <time>2021-03-14T05:11:39Z</time>
      </trkpt>
      <trkpt lat="45.19808" lon="5.72778">
        <ele>394.047</ele>
        <time>2021-03-14T05:11:45Z</time>
      </trkpt>
      <trkpt lat="45.19806" lon="5.72777">
        <ele>393.534</ele>
        <time>2021-03-14T05:11:46Z</time>
      </trkpt>
      <trkpt lat="45.19802" lon="5.7278">
        <ele>394.247</ele>
        <time>2021-03-14T05:11:47Z</time>
      </trkpt>
      <trkpt lat="45.19796" lon="5.7277">
        <ele>394.89</ele>
        <time>2021-03-14T05:11:54Z</time>
      </trkpt>
      <trkpt lat="45.19788" lon="5.72759">
        <ele>396.423</ele>
        <time>2021-03-14T05:12:02Z</time>
      </trkpt>
      <trkpt lat="45.19786" lon="5.72758">
        <ele>397.277</ele>
        <time>2021-03-14T05:12:03Z</time>
      </trkpt>
      <trkpt lat="45.19782" lon="5.72748">
        <ele>397.741</ele>
        <time>2021-03-14T05:12:08Z</time>
      </trkpt>
      <trkpt lat="45.19789" lon="5.72751">
        <ele>398.298</ele>
        <time>2021-03-14T05:12:14Z</time>
      </trkpt>
      <trkpt lat="45.19793" lon="5.72754">
        <ele>399.29</ele>
        <time>2021-03-14T05:12:17Z</time>
      </trkpt>
      <trkpt lat="45.19799" lon="5.72761">
        <ele>400.528</ele>
        <time>2021-03-14T05:12:23Z</time>
      </trkpt>
      <trkpt lat="45.19812" lon="5.72769">
        <ele>400.711</ele>
        <time>2021-03-14T05:12:31Z</time>
      </trkpt>
      <trkpt lat="45.19816" lon="5.7277">
        <ele>400.804</ele>
        <time>2021-03-14T05:12:33Z</time>
      </trkpt>
      <trkpt lat="45.19824" lon="5.72771">
        <ele>402.129</ele>
        <time>2021-03-14T05:12:38Z</time>
      </trkpt>
      <trkpt lat="45.19826" lon="5.72772">
        <ele>402.161</ele>
        <time>2021-03-14T05:12:39Z</time>
      </trkpt>
      <trkpt lat="45.19838" lon="5.72776">
        <ele>403.82</ele>
        <time>2021-03-14T05:12:45Z</time>
      </trkpt>
      <trkpt lat="45.1985" lon="5.72777">
        <ele>404.12</ele>
        <time>2021-03-14T05:12:52Z</time>
      </trkpt>
      <trkpt lat="45.1985" lon="5.72776">
        <ele>404.814</ele>
        <time>2021-03-14T05:12:53Z</time>
      </trkpt>
      <trkpt lat="45.19848" lon="5.72766">
        <ele>405.525</ele>
        <time>2021-03-14T05:13:00Z</time>
      </trkpt>
      <trkpt lat="45.19853" lon="5.72763">
        <ele>407.215</ele>
        <time>2021-03-14T05:13:06Z</time>
      </trkpt>
      <trkpt lat="45.19857" lon="5.72765">
        <ele>409.296</ele>
        <time>2021-03-14T05:13:15Z</time>
      </trkpt>
      <trkpt lat="45.19856" lon="5.72764">
        <ele>409.929</ele>
        <time>2021-03-14T05:13:17Z</time>
      </trkpt>
      <trkpt lat="45.19863" lon="5.72754">
        <ele>413.654</ele>
        <time>2021-03-14T05:13:26Z</time>
      </trkpt>
      <trkpt lat="45.19867" lon="5.72748">
        <ele>417.093</ele>
        <time>2021-03-14T05:13:32Z</time>
      </trkpt>
      <trkpt lat="45.19868" lon="5.72747">
        <ele>417.077</ele>
        <time>2021-03-14T05:13:33Z</time>
      </trkpt>
      <trkpt lat="45.19873" lon="5.7274">
        <ele>420.082</ele>
        <time>2021-03-14T05:13:40Z</time>
      </trkpt>
      <trkpt lat="45.19874" lon="5.72739">
        <ele>420.364</ele>
        <time>2021-03-14T05:13:41Z</time>
      </trkpt>
      <trkpt lat="45.1983" lon="5.72725">
        <ele>421.517</ele>
        <time>2021-03-14T05:13:50Z</time>
      </trkpt>
      <trkpt lat="45.19841" lon="5.72739">
        <ele>422.007</ele>
        <time>2021-03-14T05:13:52Z</time>
      </trkpt>
      <trkpt lat="45.19851" lon="5.72747">
        <ele>422.78</ele>
        <time>2021-03-14T05:13:56Z</time>
      </trkpt>
      <trkpt lat="45.19857" lon="5.72752">
        <ele>425.229</ele>
        <time>2021-03-14T05:14:03Z</time>
      </trkpt>
      <trkpt lat="45.1986" lon="5.72756">
        <ele>426.603</ele>
        <time>2021-03-14T05:14:09Z</time>
      </trkpt>
      <trkpt lat="45.19857" lon="5.72759">
        <ele>428.042</ele>
        <time>2021-03-14T05:14:12Z</time>
      </trkpt>
      <trkpt lat="45.19855" lon="5.72748">
        <ele>428.53</ele>
        <time>2021-03-14T05:14:20Z</time>
      </trkpt>
      <trkpt lat="45.1985" lon="5.72743">
        <ele>430.167</ele>
        <time>2021-03-14T05:14:28Z</time>
      </trkpt>
      <trkpt lat="45.19846" lon="5.72738">
        <ele>433.244</ele>
        <time>2021-03-14T05:14:34Z</time>
      </trkpt>
      <trkpt lat="45.19836" lon="5.72744">
        <ele>432.809</ele>
        <time>2021-03-14T05:14:40Z</time>
      </trkpt>
      <trkpt lat="45.19832" lon="5.72746">
        <ele>433.234</ele>
        <time>2021-03-14T05:14:41Z</time>
      </trkpt>
      <trkpt lat="45.1983" lon="5.72742">
        <ele>432.649</ele>
        <time>2021-03-14T05:14:43Z</time>
      </trkpt>
      <trkpt lat="45.19829" lon="5.72726">
        <ele>433.05</ele>
        <time>2021-03-14T05:14:49Z</time>
      </trkpt>
      <trkpt lat="45.19811" lon="5.72706">
        <ele>431.553</ele>
        <time>2021-03-14T05:15:00Z</time>
      </trkpt>
      <trkpt lat="45.19796" lon="5.7269">
        <ele>431.586</ele>
        <time>2021-03-14T05:15:09Z</time>
      </trkpt>
      <trkpt lat="45.19782" lon="5.72675">
        <ele>430.876</ele>
        <time>2021-03-14T05:15:17Z</time>
      </trkpt>
      <trkpt lat="45.19766" lon="5.72656">
        <ele>430.089</ele>
        <time>2021-03-14T05:15:26Z</time>
      </trkpt>
      <trkpt lat="45.1975" lon="5.72634">
        <ele>430.369</ele>
        <time>2021-03-14T05:15:36Z</time>
      </trkpt>
      <trkpt lat="45.19747" lon="5.72631">
        <ele>430.283</ele>
        <time>2021-03-14T05:15:38Z</time>
      </trkpt>
      <trkpt lat="45.19741" lon="5.7262">
        <ele>430.367</ele>
        <time>2021-03-14T05:15:44Z</time>
      </trkpt>
      <trkpt lat="45.19742" lon="5.72589">
        <ele>429.687</ele>
        <time>2021-03-14T05:15:54Z</time>
      </trkpt>
      <trkpt lat="45.19743" lon="5.72567">
        <ele>429.351</ele>
        <time>2021-03-14T05:16:01Z</time>
      </trkpt>
      <trkpt lat="45.19744" lon="5.72539">
        <ele>429.065</ele>
        <time>2021-03-14T05:16:10Z</time>
      </trkpt>
      <trkpt lat="45.19734" lon="5.72523">
        <ele>429.619</ele>
        <time>2021-03-14T05:16:17Z</time>
      </trkpt>
      <trkpt lat="45.19735" lon="5.72514">
        <ele>429.574</ele>
        <time>2021-03-14T05:16:20Z</time>
      </trkpt>
      <trkpt lat="45.19744" lon="5.7251">
        <ele>429.642</ele>
        <time>2021-03-14T05:16:25Z</time>
      </trkpt>
      <trkpt lat="45.19756" lon="5.72496">
        <ele>429.436</ele>
        <time>2021-03-14T05:16:32Z</time>
      </trkpt>
      <trkpt lat="45.19764" lon="5.7248">
        <ele>429.677</ele>
        <time>2021-03-14T05:16:38Z</time>
      </trkpt>
      <trkpt lat="45.19774" lon="5.72461">
        <ele>429.566</ele>
        <time>2021-03-14T05:16:45Z</time>
      </trkpt>
      <trkpt lat="45.19784" lon="5.72443">
        <ele>429.496</ele>
        <time>2021-03-14T05:16:52Z</time>
      </trkpt>
      <trkpt lat="45.19793" lon="5.72447">
        <ele>429.532</ele>
        <time>2021-03-14T05:16:57Z</time>
      </trkpt>
      <trkpt lat="45.19793" lon="5.72449">
        <ele>429.56</ele>
        <time>2021-03-14T05:16:58Z</time>
      </trkpt>
      <trkpt lat="45.19789" lon="5.72473">
        <ele>429.712</ele>
        <time>2021-03-14T05:17:06Z</time>
      </trkpt>
      <trkpt lat="45.19782" lon="5.72493">
        <ele>430.634</ele>
        <time>2021-03-14T05:17:14Z</time>
      </trkpt>
      <trkpt lat="45.19774" lon="5.72511">
        <ele>430.929</ele>
        <time>2021-03-14T05:17:22Z</time>
      </trkpt>
      <trkpt lat="45.19771" lon="5.72517">
        <ele>431.449</ele>
        <time>2021-03-14T05:17:25Z</time>
      </trkpt>
      <trkpt lat="45.19769" lon="5.72527">
        <ele>431.159</ele>
        <time>2021-03-14T05:17:29Z</time>
      </trkpt>
      <trkpt lat="45.19768" lon="5.72548">
        <ele>433.922</ele>
        <time>2021-03-14T05:17:38Z</time>
      </trkpt>
      <trkpt lat="45.1977" lon="5.72566">
        <ele>435.257</ele>
        <time>2021-03-14T05:17:45Z</time>
      </trkpt>
      <trkpt lat="45.1977" lon="5.72581">
        <ele>437.108</ele>
        <time>2021-03-14T05:17:51Z</time>
      </trkpt>
      <trkpt lat="45.19773" lon="5.72585">
        <ele>437.897</ele>
        <time>2021-03-14T05:17:55Z</time>
      </trkpt>
      <trkpt lat="45.19773" lon="5.72576">
        <ele>438.869</ele>
        <time>2021-03-14T05:17:59Z</time>
      </trkpt>
      <trkpt lat="45.19774" lon="5.72559">
        <ele>439.186</ele>
        <time>2021-03-14T05:18:05Z</time>
      </trkpt>
      <trkpt lat="45.19777" lon="5.7254">
        <ele>441.055</ele>
        <time>2021-03-14T05:18:13Z</time>
      </trkpt>
      <trkpt lat="45.19781" lon="5.72528">
        <ele>442.525</ele>
        <time>2021-03-14T05:18:19Z</time>
      </trkpt>
      <trkpt lat="45.19788" lon="5.72536">
        <ele>444.635</ele>
        <time>2021-03-14T05:18:25Z</time>
      </trkpt>
      <trkpt lat="45.19786" lon="5.72558">
        <ele>445.672</ele>
        <time>2021-03-14T05:18:34Z</time>
      </trkpt>
      <trkpt lat="45.19784" lon="5.72579">
        <ele>447.41</ele>
        <time>2021-03-14T05:18:42Z</time>
      </trkpt>
      <trkpt lat="45.19784" lon="5.72601">
        <ele>448.516</ele>
        <time>2021-03-14T05:18:51Z</time>
      </trkpt>
      <trkpt lat="45.1979" lon="5.72621">
        <ele>449.981</ele>
        <time>2021-03-14T05:19:00Z</time>
      </trkpt>
      <trkpt lat="45.19792" lon="5.72625">
        <ele>449.667</ele>
        <time>2021-03-14T05:19:02Z</time>
      </trkpt>
      <trkpt lat="45.19801" lon="5.72636">
        <ele>450.528</ele>
        <time>2021-03-14T05:19:09Z</time>
      </trkpt>
      <trkpt lat="45.19804" lon="5.72639">
        <ele>450.59</ele>
        <time>2021-03-14T05:19:11Z</time>
      </trkpt>
      <trkpt lat="45.19816" lon="5.72647">
        <ele>451.995</ele>
        <time>2021-03-14T05:19:18Z</time>
      </trkpt>
      <trkpt lat="45.1982" lon="5.7265">
        <ele>452.047</ele>
        <time>2021-03-14T05:19:21Z</time>
      </trkpt>
      <trkpt lat="45.19832" lon="5.72661">
        <ele>454.304</ele>
        <time>2021-03-14T05:19:29Z</time>
      </trkpt>
      <trkpt lat="45.19833" lon="5.72662">
        <ele>454.295</ele>
        <time>2021-03-14T05:19:30Z</time>
      </trkpt>
      <trkpt lat="45.19839" lon="5.72674">
        <ele>455.802</ele>
        <time>2021-03-14T05:19:38Z</time>
      </trkpt>
      <trkpt lat="45.1984" lon="5.72676">
        <ele>455.708</ele>
        <time>2021-03-14T05:19:39Z</time>
      </trkpt>
      <trkpt lat="45.19854" lon="5.72688">
        <ele>457.445</ele>
        <time>2021-03-14T05:19:48Z</time>
      </trkpt>
      <trkpt lat="45.19856" lon="5.72689">
        <ele>457.294</ele>
        <time>2021-03-14T05:19:49Z</time>
      </trkpt>
      <trkpt lat="45.19857" lon="5.7268">
        <ele>458.709</ele>
        <time>2021-03-14T05:19:55Z</time>
      </trkpt>
      <trkpt lat="45.1985" lon="5.72669">
        <ele>460.177</ele>
        <time>2021-03-14T05:20:02Z</time>
      </trkpt>
      <trkpt lat="45.19838" lon="5.72655">
        <ele>460.954</ele>
        <time>2021-03-14T05:20:11Z</time>
      </trkpt>
      <trkpt lat="45.1983" lon="5.7264">
        <ele>462.163</ele>
        <time>2021-03-14T05:20:19Z</time>
      </trkpt>
      <trkpt lat="45.19824" lon="5.7262">
        <ele>464.276</ele>
        <time>2021-03-14T05:20:28Z</time>
      </trkpt>
      <trkpt lat="45.19822" lon="5.72601">
        <ele>464.858</ele>
        <time>2021-03-14T05:20:36Z</time>
      </trkpt>
      <trkpt lat="45.19823" lon="5.7258">
        <ele>467.248</ele>
        <time>2021-03-14T05:20:45Z</time>
      </trkpt>
      <trkpt lat="45.19823" lon="5.72557">
        <ele>468.164</ele>
        <time>2021-03-14T05:20:54Z</time>
      </trkpt>
      <trkpt lat="45.19822" lon="5.72534">
        <ele>469.269</ele>
        <time>2021-03-14T05:21:03Z</time>
      </trkpt>
      <trkpt lat="45.19825" lon="5.72518">
        <ele>470.175</ele>
        <time>2021-03-14T05:21:10Z</time>
      </trkpt>
      <trkpt lat="45.19829" lon="5.72497">
        <ele>472.477</ele>
        <time>2021-03-14T05:21:19Z</time>
      </trkpt>
      <trkpt lat="45.19833" lon="5.72477">
        <ele>473.774</ele>
        <time>2021-03-14T05:21:28Z</time>
      </trkpt>
      <trkpt lat="45.19836" lon="5.72453">
        <ele>475.834</ele>
        <time>2021-03-14T05:21:38Z</time>
      </trkpt>
      <trkpt lat="45.19837" lon="5.72439">
        <ele>477.854</ele>
        <time>2021-03-14T05:21:46Z</time>
      </trkpt>
      <trkpt lat="45.19836" lon="5.72439">
        <ele>478.044</ele>
        <time>2021-03-14T05:21:56Z</time>
      </trkpt>
      <trkpt lat="45.19835" lon="5.72437">
        <ele>477.182</ele>
        <time>2021-03-14T05:22:35Z</time>
      </trkpt>
      <trkpt lat="45.19834" lon="5.72439">
        <ele>476.268</ele>
        <time>2021-03-14T05:22:45Z</time>
      </trkpt>
      <trkpt lat="45.19837" lon="5.7244">
        <ele>476.627</ele>
        <time>2021-03-14T05:22:47Z</time>
      </trkpt>
      <trkpt lat="45.19844" lon="5.72452">
        <ele>477.642</ele>
        <time>2021-03-14T05:22:54Z</time>
      </trkpt>
      <trkpt lat="45.19845" lon="5.72467">
        <ele>478.663</ele>
        <time>2021-03-14T05:23:01Z</time>
      </trkpt>
      <trkpt lat="45.19846" lon="5.72486">
        <ele>480.393</ele>
        <time>2021-03-14T05:23:09Z</time>
      </trkpt>
      <trkpt lat="45.1985" lon="5.72504">
        <ele>482.731</ele>
        <time>2021-03-14T05:23:17Z</time>
      </trkpt>
      <trkpt lat="45.19851" lon="5.72513">
        <ele>483.406</ele>
        <time>2021-03-14T05:23:21Z</time>
      </trkpt>
      <trkpt lat="45.19853" lon="5.72533">
        <ele>483.678</ele>
        <time>2021-03-14T05:23:28Z</time>
      </trkpt>
      <trkpt lat="45.19853" lon="5.72542">
        <ele>484.322</ele>
        <time>2021-03-14T05:23:31Z</time>
      </trkpt>
      <trkpt lat="45.19856" lon="5.72551">
        <ele>484.652</ele>
        <time>2021-03-14T05:23:35Z</time>
      </trkpt>
      <trkpt lat="45.19859" lon="5.72553">
        <ele>484.848</ele>
        <time>2021-03-14T05:23:38Z</time>
      </trkpt>
      <trkpt lat="45.19858" lon="5.72535">
        <ele>485.628</ele>
        <time>2021-03-14T05:23:46Z</time>
      </trkpt>
      <trkpt lat="45.19858" lon="5.72512">
        <ele>487.44</ele>
        <time>2021-03-14T05:23:55Z</time>
      </trkpt>
      <trkpt lat="45.1986" lon="5.72502">
        <ele>487.858</ele>
        <time>2021-03-14T05:23:59Z</time>
      </trkpt>
      <trkpt lat="45.19864" lon="5.72496">
        <ele>489.106</ele>
        <time>2021-03-14T05:24:05Z</time>
      </trkpt>
      <trkpt lat="45.19864" lon="5.72492">
        <ele>491.74</ele>
        <time>2021-03-14T05:24:11Z</time>
      </trkpt>
      <trkpt lat="45.19865" lon="5.72488">
        <ele>494.022</ele>
        <time>2021-03-14T05:24:15Z</time>
      </trkpt>
      <trkpt lat="45.19866" lon="5.72487">
        <ele>494.24</ele>
        <time>2021-03-14T05:24:16Z</time>
      </trkpt>
      <trkpt lat="45.19872" lon="5.72479">
        <ele>495.418</ele>
        <time>2021-03-14T05:24:24Z</time>
      </trkpt>
      <trkpt lat="45.19875" lon="5.7248">
        <ele>498.217</ele>
        <time>2021-03-14T05:24:28Z</time>
      </trkpt>
      <trkpt lat="45.19876" lon="5.72485">
        <ele>498.632</ele>
        <time>2021-03-14T05:24:30Z</time>
      </trkpt>
      <trkpt lat="45.19881" lon="5.72503">
        <ele>498.015</ele>
        <time>2021-03-14T05:24:37Z</time>
      </trkpt>
      <trkpt lat="45.19884" lon="5.72512">
        <ele>498.497</ele>
        <time>2021-03-14T05:24:41Z</time>
      </trkpt>
      <trkpt lat="45.19887" lon="5.72531">
        <ele>498.653</ele>
        <time>2021-03-14T05:24:48Z</time>
      </trkpt>
      <trkpt lat="45.19888" lon="5.72536">
        <ele>500.726</ele>
        <time>2021-03-14T05:24:52Z</time>
      </trkpt>
      <trkpt lat="45.19889" lon="5.72544">
        <ele>503.298</ele>
        <time>2021-03-14T05:25:00Z</time>
      </trkpt>
      <trkpt lat="45.19888" lon="5.72545">
        <ele>504.182</ele>
        <time>2021-03-14T05:25:01Z</time>
      </trkpt>
      <trkpt lat="45.19887" lon="5.72547">
        <ele>504.878</ele>
        <time>2021-03-14T05:25:03Z</time>
      </trkpt>
      <trkpt lat="45.19885" lon="5.72557">
        <ele>504.094</ele>
        <time>2021-03-14T05:25:08Z</time>
      </trkpt>
      <trkpt lat="45.19885" lon="5.72562">
        <ele>504.414</ele>
        <time>2021-03-14T05:25:10Z</time>
      </trkpt>
      <trkpt lat="45.19878" lon="5.72563">
        <ele>504.722</ele>
        <time>2021-03-14T05:25:15Z</time>
      </trkpt>
      <trkpt lat="45.19878" lon="5.72561">
        <ele>504.59</ele>
        <time>2021-03-14T05:25:16Z</time>
      </trkpt>
      <trkpt lat="45.19876" lon="5.7254">
        <ele>504.392</ele>
        <time>2021-03-14T05:25:24Z</time>
      </trkpt>
      <trkpt lat="45.19872" lon="5.72515">
        <ele>503.906</ele>
        <time>2021-03-14T05:25:32Z</time>
      </trkpt>
      <trkpt lat="45.1987" lon="5.72506">
        <ele>504.086</ele>
        <time>2021-03-14T05:25:35Z</time>
      </trkpt>
      <trkpt lat="45.19876" lon="5.72508">
        <ele>503.841</ele>
        <time>2021-03-14T05:25:40Z</time>
      </trkpt>
      <trkpt lat="45.19875" lon="5.72515">
        <ele>504.003</ele>
        <time>2021-03-14T05:25:42Z</time>
      </trkpt>
      <trkpt lat="45.19877" lon="5.72544">
        <ele>503.006</ele>
        <time>2021-03-14T05:25:51Z</time>
      </trkpt>
      <trkpt lat="45.19879" lon="5.72549">
        <ele>503.652</ele>
        <time>2021-03-14T05:25:55Z</time>
      </trkpt>
      <trkpt lat="45.19878" lon="5.72544">
        <ele>501.758</ele>
        <time>2021-03-14T05:25:59Z</time>
      </trkpt>
      <trkpt lat="45.19878" lon="5.72543">
        <ele>501.311</ele>
        <time>2021-03-14T05:26:00Z</time>
      </trkpt>
      <trkpt lat="45.19877" lon="5.72533">
        <ele>497.003</ele>
        <time>2021-03-14T05:26:06Z</time>
      </trkpt>
      <trkpt lat="45.19879" lon="5.72528">
        <ele>496.133</ele>
        <time>2021-03-14T05:26:09Z</time>
      </trkpt>
      <trkpt lat="45.19882" lon="5.72518">
        <ele>496.397</ele>
        <time>2021-03-14T05:26:13Z</time>
      </trkpt>
      <trkpt lat="45.19884" lon="5.72498">
        <ele>496.657</ele>
        <time>2021-03-14T05:26:20Z</time>
      </trkpt>
      <trkpt lat="45.19882" lon="5.72489">
        <ele>495.935</ele>
        <time>2021-03-14T05:26:25Z</time>
      </trkpt>
      <trkpt lat="45.19878" lon="5.72491">
        <ele>495.209</ele>
        <time>2021-03-14T05:26:30Z</time>
      </trkpt>
      <trkpt lat="45.19873" lon="5.72494">
        <ele>493.254</ele>
        <time>2021-03-14T05:26:33Z</time>
      </trkpt>
      <trkpt lat="45.19867" lon="5.72495">
        <ele>490.125</ele>
        <time>2021-03-14T05:26:39Z</time>
      </trkpt>
      <trkpt lat="45.19864" lon="5.72496">
        <ele>487.378</ele>
        <time>2021-03-14T05:26:44Z</time>
      </trkpt>
      <trkpt lat="45.1986" lon="5.72493">
        <ele>487.11</ele>
        <time>2021-03-14T05:26:46Z</time>
      </trkpt>
      <trkpt lat="45.19861" lon="5.7248">
        <ele>487.037</ele>
        <time>2021-03-14T05:26:51Z</time>
      </trkpt>
      <trkpt lat="45.19872" lon="5.7248">
        <ele>487.982</ele>
        <time>2021-03-14T05:26:55Z</time>
      </trkpt>
      <trkpt lat="45.19879" lon="5.72477">
        <ele>488.028</ele>
        <time>2021-03-14T05:26:59Z</time>
      </trkpt>
      <trkpt lat="45.19887" lon="5.72462">
        <ele>487.623</ele>
        <time>2021-03-14T05:27:05Z</time>
      </trkpt>
      <trkpt lat="45.19887" lon="5.72459">
        <ele>488.183</ele>
        <time>2021-03-14T05:27:06Z</time>
      </trkpt>
      <trkpt lat="45.1989" lon="5.72447">
        <ele>487.828</ele>
        <time>2021-03-14T05:27:10Z</time>
      </trkpt>
      <trkpt lat="45.19898" lon="5.72436">
        <ele>486.945</ele>
        <time>2021-03-14T05:27:16Z</time>
      </trkpt>
      <trkpt lat="45.19899" lon="5.72428">
        <ele>486.6</ele>
        <time>2021-03-14T05:27:19Z</time>
      </trkpt>
      <trkpt lat="45.19907" lon="5.72428">
        <ele>486.159</ele>
        <time>2021-03-14T05:27:22Z</time>
      </trkpt>
      <trkpt lat="45.19926" lon="5.72427">
        <ele>483.129</ele>
        <time>2021-03-14T05:27:29Z</time>
      </trkpt>
      <trkpt lat="45.19945" lon="5.72423">
        <ele>483.247</ele>
        <time>2021-03-14T05:27:36Z</time>
      </trkpt>
      <trkpt lat="45.19961" lon="5.72424">
        <ele>483.807</ele>
        <time>2021-03-14T05:27:42Z</time>
      </trkpt>
      <trkpt lat="45.19974" lon="5.72424">
        <ele>485.446</ele>
        <time>2021-03-14T05:27:48Z</time>
      </trkpt>
      <trkpt lat="45.19987" lon="5.72425">
        <ele>486.946</ele>
        <time>2021-03-14T05:27:54Z</time>
      </trkpt>
      <trkpt lat="45.20004" lon="5.72424">
        <ele>489.228</ele>
        <time>2021-03-14T05:28:03Z</time>
      </trkpt>
      <trkpt lat="45.20019" lon="5.72425">
        <ele>490.888</ele>
        <time>2021-03-14T05:28:11Z</time>
      </trkpt>
      <trkpt lat="45.20031" lon="5.72427">
        <ele>492.079</ele>
        <time>2021-03-14T05:28:18Z</time>
      </trkpt>
      <trkpt lat="45.20041" lon="5.72428">
        <ele>493.698</ele>
        <time>2021-03-14T05:28:25Z</time>
      </trkpt>
      <trkpt lat="45.20053" lon="5.7243">
        <ele>495.562</ele>
        <time>2021-03-14T05:28:32Z</time>
      </trkpt>
      <trkpt lat="45.20059" lon="5.72433">
        <ele>496.84</ele>
        <time>2021-03-14T05:28:35Z</time>
      </trkpt>
      <trkpt lat="45.20068" lon="5.72447">
        <ele>498.381</ele>
        <time>2021-03-14T05:28:43Z</time>
      </trkpt>
      <trkpt lat="45.20075" lon="5.7247">
        <ele>498.996</ele>
        <time>2021-03-14T05:28:52Z</time>
      </trkpt>
      <trkpt lat="45.20076" lon="5.72495">
        <ele>499.95</ele>
        <time>2021-03-14T05:29:01Z</time>
      </trkpt>
      <trkpt lat="45.20071" lon="5.72516">
        <ele>500.506</ele>
        <time>2021-03-14T05:29:08Z</time>
      </trkpt>
      <trkpt lat="45.20072" lon="5.72533">
        <ele>501.712</ele>
        <time>2021-03-14T05:29:14Z</time>
      </trkpt>
      <trkpt lat="45.20081" lon="5.72545">
        <ele>501.413</ele>
        <time>2021-03-14T05:29:21Z</time>
      </trkpt>
      <trkpt lat="45.20092" lon="5.72546">
        <ele>504.555</ele>
        <time>2021-03-14T05:29:28Z</time>
      </trkpt>
      <trkpt lat="45.20102" lon="5.72545">
        <ele>507.236</ele>
        <time>2021-03-14T05:29:35Z</time>
      </trkpt>
      <trkpt lat="45.20111" lon="5.72544">
        <ele>508.909</ele>
        <time>2021-03-14T05:29:41Z</time>
      </trkpt>
      <trkpt lat="45.20112" lon="5.72545">
        <ele>508.547</ele>
        <time>2021-03-14T05:29:42Z</time>
      </trkpt>
      <trkpt lat="45.20122" lon="5.72548">
        <ele>511.877</ele>
        <time>2021-03-14T05:29:50Z</time>
      </trkpt>
      <trkpt lat="45.20132" lon="5.72551">
        <ele>512.751</ele>
        <time>2021-03-14T05:29:57Z</time>
      </trkpt>
      <trkpt lat="45.20144" lon="5.72555">
        <ele>514.593</ele>
        <time>2021-03-14T05:30:06Z</time>
      </trkpt>
      <trkpt lat="45.20156" lon="5.72561">
        <ele>517.171</ele>
        <time>2021-03-14T05:30:15Z</time>
      </trkpt>
      <trkpt lat="45.20168" lon="5.72566">
        <ele>518.32</ele>
        <time>2021-03-14T05:30:23Z</time>
      </trkpt>
      <trkpt lat="45.20181" lon="5.72573">
        <ele>520.38</ele>
        <time>2021-03-14T05:30:33Z</time>
      </trkpt>
      <trkpt lat="45.20182" lon="5.72574">
        <ele>520.485</ele>
        <time>2021-03-14T05:30:34Z</time>
      </trkpt>
      <trkpt lat="45.20193" lon="5.7258">
        <ele>520.971</ele>
        <time>2021-03-14T05:30:42Z</time>
      </trkpt>
      <trkpt lat="45.20203" lon="5.72587">
        <ele>523.048</ele>
        <time>2021-03-14T05:30:51Z</time>
      </trkpt>
      <trkpt lat="45.20214" lon="5.72589">
        <ele>524.586</ele>
        <time>2021-03-14T05:30:58Z</time>
      </trkpt>
      <trkpt lat="45.2022" lon="5.72597">
        <ele>525.57</ele>
        <time>2021-03-14T05:31:04Z</time>
      </trkpt>
      <trkpt lat="45.20224" lon="5.726">
        <ele>525.967</ele>
        <time>2021-03-14T05:31:07Z</time>
      </trkpt>
      <trkpt lat="45.20231" lon="5.72604">
        <ele>526.943</ele>
        <time>2021-03-14T05:31:12Z</time>
      </trkpt>
      <trkpt lat="45.20237" lon="5.72606">
        <ele>529.069</ele>
        <time>2021-03-14T05:31:18Z</time>
      </trkpt>
      <trkpt lat="45.20247" lon="5.72605">
        <ele>530.161</ele>
        <time>2021-03-14T05:31:24Z</time>
      </trkpt>
      <trkpt lat="45.20256" lon="5.72606">
        <ele>531.331</ele>
        <time>2021-03-14T05:31:29Z</time>
      </trkpt>
      <trkpt lat="45.20259" lon="5.72606">
        <ele>532.058</ele>
        <time>2021-03-14T05:31:31Z</time>
      </trkpt>
      <trkpt lat="45.20266" lon="5.72606">
        <ele>533.193</ele>
        <time>2021-03-14T05:31:36Z</time>
      </trkpt>
      <trkpt lat="45.20272" lon="5.72605">
        <ele>534.522</ele>
        <time>2021-03-14T05:31:41Z</time>
      </trkpt>
      <trkpt lat="45.20281" lon="5.72602">
        <ele>535.027</ele>
        <time>2021-03-14T05:31:48Z</time>
      </trkpt>
      <trkpt lat="45.20282" lon="5.72601">
        <ele>535.576</ele>
        <time>2021-03-14T05:31:49Z</time>
      </trkpt>
      <trkpt lat="45.20294" lon="5.72602">
        <ele>537.115</ele>
        <time>2021-03-14T05:31:58Z</time>
      </trkpt>
      <trkpt lat="45.20306" lon="5.72606">
        <ele>538.14</ele>
        <time>2021-03-14T05:32:05Z</time>
      </trkpt>
      <trkpt lat="45.20308" lon="5.72606">
        <ele>538.136</ele>
        <time>2021-03-14T05:32:06Z</time>
      </trkpt>
      <trkpt lat="45.20316" lon="5.72612">
        <ele>539.664</ele>
        <time>2021-03-14T05:32:13Z</time>
      </trkpt>
      <trkpt lat="45.20325" lon="5.72612">
        <ele>541.46</ele>
        <time>2021-03-14T05:32:20Z</time>
      </trkpt>
      <trkpt lat="45.20334" lon="5.72617">
        <ele>542.846</ele>
        <time>2021-03-14T05:32:27Z</time>
      </trkpt>
      <trkpt lat="45.20335" lon="5.72618">
        <ele>543.134</ele>
        <time>2021-03-14T05:32:28Z</time>
      </trkpt>
      <trkpt lat="45.20345" lon="5.72624">
        <ele>545.108</ele>
        <time>2021-03-14T05:32:35Z</time>
      </trkpt>
      <trkpt lat="45.20352" lon="5.72633">
        <ele>546.629</ele>
        <time>2021-03-14T05:32:41Z</time>
      </trkpt>
      <trkpt lat="45.20358" lon="5.72637">
        <ele>547.88</ele>
        <time>2021-03-14T05:32:47Z</time>
      </trkpt>
      <trkpt lat="45.20365" lon="5.72647">
        <ele>549.061</ele>
        <time>2021-03-14T05:32:54Z</time>
      </trkpt>
      <trkpt lat="45.20378" lon="5.72657">
        <ele>550.105</ele>
        <time>2021-03-14T05:33:04Z</time>
      </trkpt>
      <trkpt lat="45.20387" lon="5.72667">
        <ele>550.648</ele>
        <time>2021-03-14T05:33:11Z</time>
      </trkpt>
      <trkpt lat="45.20389" lon="5.72669">
        <ele>550.569</ele>
        <time>2021-03-14T05:33:13Z</time>
      </trkpt>
      <trkpt lat="45.20397" lon="5.72682">
        <ele>552.767</ele>
        <time>2021-03-14T05:33:22Z</time>
      </trkpt>
      <trkpt lat="45.20408" lon="5.72691">
        <ele>554.895</ele>
        <time>2021-03-14T05:33:30Z</time>
      </trkpt>
      <trkpt lat="45.20415" lon="5.72698">
        <ele>556.614</ele>
        <time>2021-03-14T05:33:37Z</time>
      </trkpt>
      <trkpt lat="45.20421" lon="5.72703">
        <ele>557.708</ele>
        <time>2021-03-14T05:33:43Z</time>
      </trkpt>
      <trkpt lat="45.20426" lon="5.72705">
        <ele>558.495</ele>
        <time>2021-03-14T05:33:47Z</time>
      </trkpt>
      <trkpt lat="45.20434" lon="5.72709">
        <ele>559.401</ele>
        <time>2021-03-14T05:33:54Z</time>
      </trkpt>
      <trkpt lat="45.20441" lon="5.72711">
        <ele>560.81</ele>
        <time>2021-03-14T05:33:59Z</time>
      </trkpt>
      <trkpt lat="45.20444" lon="5.72712">
        <ele>562.074</ele>
        <time>2021-03-14T05:34:02Z</time>
      </trkpt>
      <trkpt lat="45.20452" lon="5.72714">
        <ele>563.061</ele>
        <time>2021-03-14T05:34:08Z</time>
      </trkpt>
      <trkpt lat="45.2046" lon="5.72716">
        <ele>563.733</ele>
        <time>2021-03-14T05:34:14Z</time>
      </trkpt>
      <trkpt lat="45.20464" lon="5.72717">
        <ele>564.074</ele>
        <time>2021-03-14T05:34:17Z</time>
      </trkpt>
      <trkpt lat="45.20481" lon="5.72722">
        <ele>566.539</ele>
        <time>2021-03-14T05:34:26Z</time>
      </trkpt>
      <trkpt lat="45.20492" lon="5.72727">
        <ele>567.605</ele>
        <time>2021-03-14T05:34:33Z</time>
      </trkpt>
      <trkpt lat="45.20506" lon="5.72735">
        <ele>568.144</ele>
        <time>2021-03-14T05:34:40Z</time>
      </trkpt>
      <trkpt lat="45.20509" lon="5.72737">
        <ele>567.811</ele>
        <time>2021-03-14T05:34:42Z</time>
      </trkpt>
      <trkpt lat="45.20514" lon="5.72741">
        <ele>569.021</ele>
        <time>2021-03-14T05:34:46Z</time>
      </trkpt>
      <trkpt lat="45.20518" lon="5.72739">
        <ele>570.801</ele>
        <time>2021-03-14T05:34:50Z</time>
      </trkpt>
      <trkpt lat="45.20518" lon="5.72738">
        <ele>570.516</ele>
        <time>2021-03-14T05:34:51Z</time>
      </trkpt>
      <trkpt lat="45.20508" lon="5.72733">
        <ele>572.638</ele>
        <time>2021-03-14T05:34:58Z</time>
      </trkpt>
      <trkpt lat="45.20496" lon="5.7273">
        <ele>573.599</ele>
        <time>2021-03-14T05:35:06Z</time>
      </trkpt>
      <trkpt lat="45.20488" lon="5.72725">
        <ele>574.418</ele>
        <time>2021-03-14T05:35:12Z</time>
      </trkpt>
      <trkpt lat="45.20486" lon="5.72722">
        <ele>574.711</ele>
        <time>2021-03-14T05:35:14Z</time>
      </trkpt>
      <trkpt lat="45.2047" lon="5.72712">
        <ele>575.572</ele>
        <time>2021-03-14T05:35:25Z</time>
      </trkpt>
      <trkpt lat="45.20463" lon="5.72703">
        <ele>577.163</ele>
        <time>2021-03-14T05:35:32Z</time>
      </trkpt>
      <trkpt lat="45.20453" lon="5.72695">
        <ele>578.284</ele>
        <time>2021-03-14T05:35:39Z</time>
      </trkpt>
      <trkpt lat="45.20448" lon="5.72689">
        <ele>579.344</ele>
        <time>2021-03-14T05:35:44Z</time>
      </trkpt>
      <trkpt lat="45.20442" lon="5.72685">
        <ele>580.793</ele>
        <time>2021-03-14T05:35:48Z</time>
      </trkpt>
      <trkpt lat="45.20433" lon="5.72668">
        <ele>582.654</ele>
        <time>2021-03-14T05:35:57Z</time>
      </trkpt>
      <trkpt lat="45.20423" lon="5.72652">
        <ele>584.125</ele>
        <time>2021-03-14T05:36:06Z</time>
      </trkpt>
      <trkpt lat="45.20417" lon="5.72641">
        <ele>585.785</ele>
        <time>2021-03-14T05:36:13Z</time>
      </trkpt>
      <trkpt lat="45.20415" lon="5.72629">
        <ele>585.982</ele>
        <time>2021-03-14T05:36:18Z</time>
      </trkpt>
      <trkpt lat="45.20424" lon="5.72627">
        <ele>586.871</ele>
        <time>2021-03-14T05:36:24Z</time>
      </trkpt>
      <trkpt lat="45.20433" lon="5.72636">
        <ele>587.969</ele>
        <time>2021-03-14T05:36:31Z</time>
      </trkpt>
      <trkpt lat="45.20439" lon="5.72642">
        <ele>588.934</ele>
        <time>2021-03-14T05:36:37Z</time>
      </trkpt>
      <trkpt lat="45.20441" lon="5.72644">
        <ele>589.969</ele>
        <time>2021-03-14T05:36:39Z</time>
      </trkpt>
      <trkpt lat="45.2045" lon="5.72644">
        <ele>590.936</ele>
        <time>2021-03-14T05:36:47Z</time>
      </trkpt>
      <trkpt lat="45.20457" lon="5.72645">
        <ele>591.585</ele>
        <time>2021-03-14T05:36:54Z</time>
      </trkpt>
      <trkpt lat="45.20465" lon="5.72646">
        <ele>592.02</ele>
        <time>2021-03-14T05:37:00Z</time>
      </trkpt>
      <trkpt lat="45.20468" lon="5.72648">
        <ele>592.745</ele>
        <time>2021-03-14T05:37:02Z</time>
      </trkpt>
      <trkpt lat="45.20476" lon="5.72651">
        <ele>593.672</ele>
        <time>2021-03-14T05:37:08Z</time>
      </trkpt>
      <trkpt lat="45.20482" lon="5.72653">
        <ele>594.973</ele>
        <time>2021-03-14T05:37:13Z</time>
      </trkpt>
      <trkpt lat="45.20483" lon="5.72654">
        <ele>595.268</ele>
        <time>2021-03-14T05:37:14Z</time>
      </trkpt>
      <trkpt lat="45.20486" lon="5.72657">
        <ele>595.663</ele>
        <time>2021-03-14T05:37:16Z</time>
      </trkpt>
      <trkpt lat="45.20498" lon="5.72659">
        <ele>596.713</ele>
        <time>2021-03-14T05:37:23Z</time>
      </trkpt>
      <trkpt lat="45.20507" lon="5.72664">
        <ele>597.926</ele>
        <time>2021-03-14T05:37:28Z</time>
      </trkpt>
      <trkpt lat="45.2051" lon="5.72665">
        <ele>597.925</ele>
        <time>2021-03-14T05:37:30Z</time>
      </trkpt>
      <trkpt lat="45.20512" lon="5.72668">
        <ele>598.677</ele>
        <time>2021-03-14T05:37:32Z</time>
      </trkpt>
      <trkpt lat="45.20515" lon="5.72671">
        <ele>599.175</ele>
        <time>2021-03-14T05:37:35Z</time>
      </trkpt>
      <trkpt lat="45.20523" lon="5.72676">
        <ele>600.708</ele>
        <time>2021-03-14T05:37:42Z</time>
      </trkpt>
      <trkpt lat="45.20533" lon="5.72683">
        <ele>602.674</ele>
        <time>2021-03-14T05:37:49Z</time>
      </trkpt>
      <trkpt lat="45.20542" lon="5.7269">
        <ele>603.934</ele>
        <time>2021-03-14T05:37:54Z</time>
      </trkpt>
      <trkpt lat="45.20553" lon="5.72698">
        <ele>605.031</ele>
        <time>2021-03-14T05:38:01Z</time>
      </trkpt>
      <trkpt lat="45.20559" lon="5.72703">
        <ele>605.678</ele>
        <time>2021-03-14T05:38:05Z</time>
      </trkpt>
      <trkpt lat="45.20569" lon="5.72708">
        <ele>606.19</ele>
        <time>2021-03-14T05:38:12Z</time>
      </trkpt>
      <trkpt lat="45.20579" lon="5.72709">
        <ele>607.445</ele>
        <time>2021-03-14T05:38:19Z</time>
      </trkpt>
      <trkpt lat="45.20581" lon="5.72706">
        <ele>608.593</ele>
        <time>2021-03-14T05:38:22Z</time>
      </trkpt>
      <trkpt lat="45.2057" lon="5.72701">
        <ele>609.654</ele>
        <time>2021-03-14T05:38:28Z</time>
      </trkpt>
      <trkpt lat="45.20556" lon="5.72689">
        <ele>610.414</ele>
        <time>2021-03-14T05:38:37Z</time>
      </trkpt>
      <trkpt lat="45.20544" lon="5.72677">
        <ele>611.136</ele>
        <time>2021-03-14T05:38:45Z</time>
      </trkpt>
      <trkpt lat="45.20535" lon="5.72664">
        <ele>612.914</ele>
        <time>2021-03-14T05:38:53Z</time>
      </trkpt>
      <trkpt lat="45.20526" lon="5.72651">
        <ele>614.843</ele>
        <time>2021-03-14T05:39:01Z</time>
      </trkpt>
      <trkpt lat="45.20525" lon="5.72649">
        <ele>614.437</ele>
        <time>2021-03-14T05:39:02Z</time>
      </trkpt>
      <trkpt lat="45.20517" lon="5.72644">
        <ele>616.256</ele>
        <time>2021-03-14T05:39:08Z</time>
      </trkpt>
      <trkpt lat="45.2051" lon="5.72643">
        <ele>616.349</ele>
        <time>2021-03-14T05:39:12Z</time>
      </trkpt>
      <trkpt lat="45.20496" lon="5.72636">
        <ele>619.448</ele>
        <time>2021-03-14T05:39:21Z</time>
      </trkpt>
      <trkpt lat="45.2049" lon="5.72632">
        <ele>620.191</ele>
        <time>2021-03-14T05:39:25Z</time>
      </trkpt>
      <trkpt lat="45.20477" lon="5.72616">
        <ele>621.26</ele>
        <time>2021-03-14T05:39:34Z</time>
      </trkpt>
      <trkpt lat="45.20472" lon="5.72607">
        <ele>622.153</ele>
        <time>2021-03-14T05:39:40Z</time>
      </trkpt>
      <trkpt lat="45.20464" lon="5.72594">
        <ele>624.899</ele>
        <time>2021-03-14T05:39:47Z</time>
      </trkpt>
      <trkpt lat="45.20457" lon="5.72576">
        <ele>625.691</ele>
        <time>2021-03-14T05:39:56Z</time>
      </trkpt>
      <trkpt lat="45.20455" lon="5.72572">
        <ele>626.265</ele>
        <time>2021-03-14T05:39:58Z</time>
      </trkpt>
      <trkpt lat="45.20446" lon="5.72556">
        <ele>627.129</ele>
        <time>2021-03-14T05:40:07Z</time>
      </trkpt>
      <trkpt lat="45.20443" lon="5.72535">
        <ele>627.516</ele>
        <time>2021-03-14T05:40:14Z</time>
      </trkpt>
      <trkpt lat="45.20442" lon="5.72529">
        <ele>627.835</ele>
        <time>2021-03-14T05:40:16Z</time>
      </trkpt>
      <trkpt lat="45.20448" lon="5.72519">
        <ele>630.034</ele>
        <time>2021-03-14T05:40:24Z</time>
      </trkpt>
      <trkpt lat="45.2046" lon="5.72535">
        <ele>631.78</ele>
        <time>2021-03-14T05:40:34Z</time>
      </trkpt>
      <trkpt lat="45.20461" lon="5.72537">
        <ele>632.032</ele>
        <time>2021-03-14T05:40:35Z</time>
      </trkpt>
      <trkpt lat="45.20471" lon="5.72546">
        <ele>633.588</ele>
        <time>2021-03-14T05:40:42Z</time>
      </trkpt>
      <trkpt lat="45.20471" lon="5.72548">
        <ele>633.688</ele>
        <time>2021-03-14T05:40:43Z</time>
      </trkpt>
      <trkpt lat="45.20481" lon="5.7256">
        <ele>634.797</ele>
        <time>2021-03-14T05:40:51Z</time>
      </trkpt>
      <trkpt lat="45.20487" lon="5.72563">
        <ele>635.856</ele>
        <time>2021-03-14T05:40:56Z</time>
      </trkpt>
      <trkpt lat="45.20489" lon="5.72558">
        <ele>636.615</ele>
        <time>2021-03-14T05:40:59Z</time>
      </trkpt>
      <trkpt lat="45.20488" lon="5.72549">
        <ele>638.437</ele>
        <time>2021-03-14T05:41:05Z</time>
      </trkpt>
      <trkpt lat="45.20487" lon="5.72538">
        <ele>640.281</ele>
        <time>2021-03-14T05:41:11Z</time>
      </trkpt>
      <trkpt lat="45.20485" lon="5.72522">
        <ele>641.654</ele>
        <time>2021-03-14T05:41:19Z</time>
      </trkpt>
      <trkpt lat="45.20486" lon="5.7252">
        <ele>641.882</ele>
        <time>2021-03-14T05:41:20Z</time>
      </trkpt>
      <trkpt lat="45.20487" lon="5.72503">
        <ele>640.923</ele>
        <time>2021-03-14T05:41:26Z</time>
      </trkpt>
      <trkpt lat="45.20486" lon="5.725">
        <ele>641.067</ele>
        <time>2021-03-14T05:41:27Z</time>
      </trkpt>
      <trkpt lat="45.2048" lon="5.72488">
        <ele>641.15</ele>
        <time>2021-03-14T05:41:31Z</time>
      </trkpt>
      <trkpt lat="45.20477" lon="5.72476">
        <ele>641.859</ele>
        <time>2021-03-14T05:41:35Z</time>
      </trkpt>
      <trkpt lat="45.20478" lon="5.72461">
        <ele>643.359</ele>
        <time>2021-03-14T05:41:43Z</time>
      </trkpt>
      <trkpt lat="45.20476" lon="5.72445">
        <ele>645.356</ele>
        <time>2021-03-14T05:41:51Z</time>
      </trkpt>
      <trkpt lat="45.20479" lon="5.7244">
        <ele>646.363</ele>
        <time>2021-03-14T05:41:54Z</time>
      </trkpt>
      <trkpt lat="45.20479" lon="5.72434">
        <ele>646.573</ele>
        <time>2021-03-14T05:41:57Z</time>
      </trkpt>
      <trkpt lat="45.20475" lon="5.72434">
        <ele>646.132</ele>
        <time>2021-03-14T05:42:01Z</time>
      </trkpt>
      <trkpt lat="45.20478" lon="5.72449">
        <ele>644.662</ele>
        <time>2021-03-14T05:42:08Z</time>
      </trkpt>
      <trkpt lat="45.20479" lon="5.72451">
        <ele>644.55</ele>
        <time>2021-03-14T05:42:09Z</time>
      </trkpt>
      <trkpt lat="45.20479" lon="5.72465">
        <ele>643.24</ele>
        <time>2021-03-14T05:42:16Z</time>
      </trkpt>
      <trkpt lat="45.20481" lon="5.7248">
        <ele>640.643</ele>
        <time>2021-03-14T05:42:22Z</time>
      </trkpt>
      <trkpt lat="45.20482" lon="5.72483">
        <ele>639.695</ele>
        <time>2021-03-14T05:42:24Z</time>
      </trkpt>
      <trkpt lat="45.20488" lon="5.72507">
        <ele>640.46</ele>
        <time>2021-03-14T05:42:32Z</time>
      </trkpt>
      <trkpt lat="45.20493" lon="5.72523">
        <ele>640.803</ele>
        <time>2021-03-14T05:42:38Z</time>
      </trkpt>
      <trkpt lat="45.20501" lon="5.7254">
        <ele>641.26</ele>
        <time>2021-03-14T05:42:45Z</time>
      </trkpt>
      <trkpt lat="45.20511" lon="5.72552">
        <ele>641.522</ele>
        <time>2021-03-14T05:42:51Z</time>
      </trkpt>
      <trkpt lat="45.20514" lon="5.72555">
        <ele>641.698</ele>
        <time>2021-03-14T05:42:53Z</time>
      </trkpt>
      <trkpt lat="45.20521" lon="5.7256">
        <ele>640.995</ele>
        <time>2021-03-14T05:42:58Z</time>
      </trkpt>
      <trkpt lat="45.20531" lon="5.7256">
        <ele>638.554</ele>
        <time>2021-03-14T05:43:05Z</time>
      </trkpt>
      <trkpt lat="45.20532" lon="5.7256">
        <ele>638.837</ele>
        <time>2021-03-14T05:43:06Z</time>
      </trkpt>
      <trkpt lat="45.2054" lon="5.72558">
        <ele>638.601</ele>
        <time>2021-03-14T05:43:10Z</time>
      </trkpt>
      <trkpt lat="45.20554" lon="5.7256">
        <ele>640.215</ele>
        <time>2021-03-14T05:43:18Z</time>
      </trkpt>
      <trkpt lat="45.20566" lon="5.72565">
        <ele>640.417</ele>
        <time>2021-03-14T05:43:24Z</time>
      </trkpt>
      <trkpt lat="45.20568" lon="5.72568">
        <ele>641.205</ele>
        <time>2021-03-14T05:43:26Z</time>
      </trkpt>
      <trkpt lat="45.20573" lon="5.72573">
        <ele>641.677</ele>
        <time>2021-03-14T05:43:31Z</time>
      </trkpt>
      <trkpt lat="45.20588" lon="5.72575">
        <ele>643.012</ele>
        <time>2021-03-14T05:43:37Z</time>
      </trkpt>
      <trkpt lat="45.20601" lon="5.72585">
        <ele>644.501</ele>
        <time>2021-03-14T05:43:45Z</time>
      </trkpt>
      <trkpt lat="45.20609" lon="5.7259">
        <ele>644.295</ele>
        <time>2021-03-14T05:43:50Z</time>
      </trkpt>
      <trkpt lat="45.20616" lon="5.72594">
        <ele>645.271</ele>
        <time>2021-03-14T05:43:54Z</time>
      </trkpt>
      <trkpt lat="45.20622" lon="5.72603">
        <ele>647.02</ele>
        <time>2021-03-14T05:44:01Z</time>
      </trkpt>
      <trkpt lat="45.2063" lon="5.72605">
        <ele>648.385</ele>
        <time>2021-03-14T05:44:07Z</time>
      </trkpt>
      <trkpt lat="45.20636" lon="5.72603">
        <ele>648.215</ele>
        <time>2021-03-14T05:44:10Z</time>
      </trkpt>
      <trkpt lat="45.20645" lon="5.72599">
        <ele>649.214</ele>
        <time>2021-03-14T05:44:16Z</time>
      </trkpt>
      <trkpt lat="45.20651" lon="5.72594">
        <ele>649.677</ele>
        <time>2021-03-14T05:44:20Z</time>
      </trkpt>
      <trkpt lat="45.20662" lon="5.72585">
        <ele>650.768</ele>
        <time>2021-03-14T05:44:27Z</time>
      </trkpt>
      <trkpt lat="45.20668" lon="5.72577">
        <ele>652.851</ele>
        <time>2021-03-14T05:44:34Z</time>
      </trkpt>
      <trkpt lat="45.20674" lon="5.72573">
        <ele>653.434</ele>
        <time>2021-03-14T05:44:40Z</time>
      </trkpt>
      <trkpt lat="45.20683" lon="5.72568">
        <ele>654.203</ele>
        <time>2021-03-14T05:44:47Z</time>
      </trkpt>
      <trkpt lat="45.20691" lon="5.72566">
        <ele>655.696</ele>
        <time>2021-03-14T05:44:50Z</time>
      </trkpt>
      <trkpt lat="45.20693" lon="5.72566">
        <ele>656.232</ele>
        <time>2021-03-14T05:44:52Z</time>
      </trkpt>
      <trkpt lat="45.20703" lon="5.72574">
        <ele>656.906</ele>
        <time>2021-03-14T05:45:00Z</time>
      </trkpt>
      <trkpt lat="45.2071" lon="5.72579">
        <ele>659.646</ele>
        <time>2021-03-14T05:45:08Z</time>
      </trkpt>
      <trkpt lat="45.20715" lon="5.72581">
        <ele>661.302</ele>
        <time>2021-03-14T05:45:12Z</time>
      </trkpt>
      <trkpt lat="45.20722" lon="5.72581">
        <ele>662.709</ele>
        <time>2021-03-14T05:45:19Z</time>
      </trkpt>
      <trkpt lat="45.2073" lon="5.72584">
        <ele>666.174</ele>
        <time>2021-03-14T05:45:26Z</time>
      </trkpt>
      <trkpt lat="45.20731" lon="5.72584">
        <ele>666.167</ele>
        <time>2021-03-14T05:45:27Z</time>
      </trkpt>
      <trkpt lat="45.20738" lon="5.72587">
        <ele>669.571</ele>
        <time>2021-03-14T05:45:34Z</time>
      </trkpt>
      <trkpt lat="45.20739" lon="5.72589">
        <ele>669.806</ele>
        <time>2021-03-14T05:45:35Z</time>
      </trkpt>
      <trkpt lat="45.20742" lon="5.72601">
        <ele>670.58</ele>
        <time>2021-03-14T05:45:42Z</time>
      </trkpt>
      <trkpt lat="45.20746" lon="5.72612">
        <ele>671.911</ele>
        <time>2021-03-14T05:45:48Z</time>
      </trkpt>
      <trkpt lat="45.2075" lon="5.72616">
        <ele>674.489</ele>
        <time>2021-03-14T05:45:55Z</time>
      </trkpt>
      <trkpt lat="45.2075" lon="5.72615">
        <ele>674.772</ele>
        <time>2021-03-14T05:45:56Z</time>
      </trkpt>
      <trkpt lat="45.20756" lon="5.72612">
        <ele>676.746</ele>
        <time>2021-03-14T05:46:04Z</time>
      </trkpt>
      <trkpt lat="45.20757" lon="5.72612">
        <ele>676.789</ele>
        <time>2021-03-14T05:46:05Z</time>
      </trkpt>
      <trkpt lat="45.20761" lon="5.72612">
        <ele>677.469</ele>
        <time>2021-03-14T05:46:08Z</time>
      </trkpt>
      <trkpt lat="45.20769" lon="5.72608">
        <ele>680.042</ele>
        <time>2021-03-14T05:46:17Z</time>
      </trkpt>
      <trkpt lat="45.20774" lon="5.72615">
        <ele>681.703</ele>
        <time>2021-03-14T05:46:23Z</time>
      </trkpt>
      <trkpt lat="45.20775" lon="5.72622">
        <ele>682.042</ele>
        <time>2021-03-14T05:46:29Z</time>
      </trkpt>
      <trkpt lat="45.20775" lon="5.72637">
        <ele>684.232</ele>
        <time>2021-03-14T05:46:38Z</time>
      </trkpt>
      <trkpt lat="45.20773" lon="5.72639">
        <ele>684.885</ele>
        <time>2021-03-14T05:46:40Z</time>
      </trkpt>
      <trkpt lat="45.20773" lon="5.72646">
        <ele>686.357</ele>
        <time>2021-03-14T05:46:45Z</time>
      </trkpt>
      <trkpt lat="45.20775" lon="5.72646">
        <ele>687.457</ele>
        <time>2021-03-14T05:46:47Z</time>
      </trkpt>
      <trkpt lat="45.2078" lon="5.72643">
        <ele>688.19</ele>
        <time>2021-03-14T05:46:53Z</time>
      </trkpt>
      <trkpt lat="45.20785" lon="5.72638">
        <ele>690.609</ele>
        <time>2021-03-14T05:47:01Z</time>
      </trkpt>
      <trkpt lat="45.2079" lon="5.72635">
        <ele>692.264</ele>
        <time>2021-03-14T05:47:07Z</time>
      </trkpt>
      <trkpt lat="45.20791" lon="5.72634">
        <ele>692.131</ele>
        <time>2021-03-14T05:47:08Z</time>
      </trkpt>
      <trkpt lat="45.20797" lon="5.72626">
        <ele>693.642</ele>
        <time>2021-03-14T05:47:16Z</time>
      </trkpt>
      <trkpt lat="45.208" lon="5.72625">
        <ele>694.555</ele>
        <time>2021-03-14T05:47:19Z</time>
      </trkpt>
      <trkpt lat="45.20804" lon="5.72631">
        <ele>695.876</ele>
        <time>2021-03-14T05:47:25Z</time>
      </trkpt>
      <trkpt lat="45.20807" lon="5.72639">
        <ele>698.442</ele>
        <time>2021-03-14T05:47:32Z</time>
      </trkpt>
      <trkpt lat="45.20806" lon="5.72649">
        <ele>700.043</ele>
        <time>2021-03-14T05:47:41Z</time>
      </trkpt>
      <trkpt lat="45.20806" lon="5.72659">
        <ele>702.396</ele>
        <time>2021-03-14T05:47:48Z</time>
      </trkpt>
      <trkpt lat="45.20812" lon="5.72667">
        <ele>704.225</ele>
        <time>2021-03-14T05:48:01Z</time>
      </trkpt>
      <trkpt lat="45.20812" lon="5.72666">
        <ele>704.669</ele>
        <time>2021-03-14T05:48:02Z</time>
      </trkpt>
      <trkpt lat="45.20815" lon="5.72665">
        <ele>705.305</ele>
        <time>2021-03-14T05:48:04Z</time>
      </trkpt>
      <trkpt lat="45.20822" lon="5.72659">
        <ele>707.389</ele>
        <time>2021-03-14T05:48:11Z</time>
      </trkpt>
      <trkpt lat="45.20824" lon="5.72654">
        <ele>708.822</ele>
        <time>2021-03-14T05:48:16Z</time>
      </trkpt>
      <trkpt lat="45.2083" lon="5.72656">
        <ele>709.474</ele>
        <time>2021-03-14T05:48:20Z</time>
      </trkpt>
      <trkpt lat="45.20835" lon="5.72662">
        <ele>711.665</ele>
        <time>2021-03-14T05:48:28Z</time>
      </trkpt>
      <trkpt lat="45.20838" lon="5.7267">
        <ele>713.297</ele>
        <time>2021-03-14T05:48:35Z</time>
      </trkpt>
      <trkpt lat="45.20836" lon="5.72683">
        <ele>714.688</ele>
        <time>2021-03-14T05:48:43Z</time>
      </trkpt>
      <trkpt lat="45.20836" lon="5.72688">
        <ele>715.795</ele>
        <time>2021-03-14T05:48:46Z</time>
      </trkpt>
      <trkpt lat="45.20839" lon="5.72696">
        <ele>717.796</ele>
        <time>2021-03-14T05:48:53Z</time>
      </trkpt>
      <trkpt lat="45.20842" lon="5.72692">
        <ele>719.268</ele>
        <time>2021-03-14T05:49:00Z</time>
      </trkpt>
      <trkpt lat="45.20847" lon="5.7269">
        <ele>722.466</ele>
        <time>2021-03-14T05:49:07Z</time>
      </trkpt>
      <trkpt lat="45.20847" lon="5.7269">
        <ele>722.381</ele>
        <time>2021-03-14T05:49:08Z</time>
      </trkpt>
      <trkpt lat="45.20848" lon="5.72688">
        <ele>723.832</ele>
        <time>2021-03-14T05:49:11Z</time>
      </trkpt>
      <trkpt lat="45.20848" lon="5.72688">
        <ele>723.757</ele>
        <time>2021-03-14T05:49:13Z</time>
      </trkpt>
      <trkpt lat="45.20852" lon="5.72687">
        <ele>724.837</ele>
        <time>2021-03-14T05:49:19Z</time>
      </trkpt>
      <trkpt lat="45.20864" lon="5.72683">
        <ele>726.498</ele>
        <time>2021-03-14T05:49:26Z</time>
      </trkpt>
      <trkpt lat="45.2087" lon="5.72679">
        <ele>727.325</ele>
        <time>2021-03-14T05:49:31Z</time>
      </trkpt>
      <trkpt lat="45.20879" lon="5.72676">
        <ele>728.182</ele>
        <time>2021-03-14T05:49:38Z</time>
      </trkpt>
      <trkpt lat="45.20889" lon="5.72674">
        <ele>729.863</ele>
        <time>2021-03-14T05:49:45Z</time>
      </trkpt>
      <trkpt lat="45.20896" lon="5.72672">
        <ele>732.158</ele>
        <time>2021-03-14T05:49:52Z</time>
      </trkpt>
      <trkpt lat="45.20901" lon="5.72672">
        <ele>734.274</ele>
        <time>2021-03-14T05:49:57Z</time>
      </trkpt>
      <trkpt lat="45.20909" lon="5.7267">
        <ele>735.798</ele>
        <time>2021-03-14T05:50:03Z</time>
      </trkpt>
      <trkpt lat="45.20912" lon="5.7267">
        <ele>737.087</ele>
        <time>2021-03-14T05:50:09Z</time>
      </trkpt>
      <trkpt lat="45.20914" lon="5.72671">
        <ele>737.782</ele>
        <time>2021-03-14T05:50:11Z</time>
      </trkpt>
      <trkpt lat="45.20923" lon="5.72677">
        <ele>738.187</ele>
        <time>2021-03-14T05:50:18Z</time>
      </trkpt>
      <trkpt lat="45.20932" lon="5.72681">
        <ele>739.788</ele>
        <time>2021-03-14T05:50:26Z</time>
      </trkpt>
      <trkpt lat="45.20935" lon="5.72683">
        <ele>740.96</ele>
        <time>2021-03-14T05:50:28Z</time>
      </trkpt>
      <trkpt lat="45.20938" lon="5.72685">
        <ele>741.262</ele>
        <time>2021-03-14T05:50:30Z</time>
      </trkpt>
      <trkpt lat="45.20946" lon="5.72694">
        <ele>742.667</ele>
        <time>2021-03-14T05:50:36Z</time>
      </trkpt>
      <trkpt lat="45.20952" lon="5.72706">
        <ele>744.172</ele>
        <time>2021-03-14T05:50:45Z</time>
      </trkpt>
      <trkpt lat="45.20956" lon="5.72713">
        <ele>746.225</ele>
        <time>2021-03-14T05:50:52Z</time>
      </trkpt>
      <trkpt lat="45.20958" lon="5.72714">
        <ele>748.114</ele>
        <time>2021-03-14T05:50:58Z</time>
      </trkpt>
      <trkpt lat="45.20964" lon="5.72718">
        <ele>749.715</ele>
        <time>2021-03-14T05:51:04Z</time>
      </trkpt>
      <trkpt lat="45.20966" lon="5.72722">
        <ele>752.384</ele>
        <time>2021-03-14T05:51:11Z</time>
      </trkpt>
      <trkpt lat="45.20971" lon="5.7273">
        <ele>753.427</ele>
        <time>2021-03-14T05:51:17Z</time>
      </trkpt>
      <trkpt lat="45.20975" lon="5.72737">
        <ele>756.474</ele>
        <time>2021-03-14T05:51:25Z</time>
      </trkpt>
      <trkpt lat="45.2098" lon="5.72742">
        <ele>757.263</ele>
        <time>2021-03-14T05:51:31Z</time>
      </trkpt>
      <trkpt lat="45.20982" lon="5.72747">
        <ele>759.159</ele>
        <time>2021-03-14T05:51:35Z</time>
      </trkpt>
      <trkpt lat="45.20985" lon="5.72753">
        <ele>761.909</ele>
        <time>2021-03-14T05:51:42Z</time>
      </trkpt>
      <trkpt lat="45.20988" lon="5.72758">
        <ele>762.412</ele>
        <time>2021-03-14T05:51:49Z</time>
      </trkpt>
      <trkpt lat="45.2099" lon="5.72758">
        <ele>765.488</ele>
        <time>2021-03-14T05:51:55Z</time>
      </trkpt>
      <trkpt lat="45.20993" lon="5.72753">
        <ele>765.954</ele>
        <time>2021-03-14T05:52:02Z</time>
      </trkpt>
      <trkpt lat="45.20996" lon="5.72753">
        <ele>767.418</ele>
        <time>2021-03-14T05:52:08Z</time>
      </trkpt>
      <trkpt lat="45.20999" lon="5.72747">
        <ele>770.076</ele>
        <time>2021-03-14T05:52:15Z</time>
      </trkpt>
      <trkpt lat="45.21005" lon="5.72745">
        <ele>771.99</ele>
        <time>2021-03-14T05:52:21Z</time>
      </trkpt>
      <trkpt lat="45.21012" lon="5.72741">
        <ele>773.961</ele>
        <time>2021-03-14T05:52:29Z</time>
      </trkpt>
      <trkpt lat="45.21017" lon="5.72744">
        <ele>776.759</ele>
        <time>2021-03-14T05:52:36Z</time>
      </trkpt>
      <trkpt lat="45.21021" lon="5.72744">
        <ele>777.709</ele>
        <time>2021-03-14T05:52:42Z</time>
      </trkpt>
      <trkpt lat="45.21026" lon="5.72741">
        <ele>780.045</ele>
        <time>2021-03-14T05:52:49Z</time>
      </trkpt>
      <trkpt lat="45.2103" lon="5.72741">
        <ele>782.106</ele>
        <time>2021-03-14T05:52:56Z</time>
      </trkpt>
      <trkpt lat="45.21038" lon="5.72741">
        <ele>783.926</ele>
        <time>2021-03-14T05:53:06Z</time>
      </trkpt>
      <trkpt lat="45.21044" lon="5.72742">
        <ele>786.029</ele>
        <time>2021-03-14T05:53:13Z</time>
      </trkpt>
      <trkpt lat="45.21049" lon="5.72746">
        <ele>785.719</ele>
        <time>2021-03-14T05:53:21Z</time>
      </trkpt>
      <trkpt lat="45.21051" lon="5.72746">
        <ele>786.415</ele>
        <time>2021-03-14T05:53:39Z</time>
      </trkpt>
      <trkpt lat="45.21055" lon="5.72762">
        <ele>787.246</ele>
        <time>2021-03-14T05:53:47Z</time>
      </trkpt>
      <trkpt lat="45.21058" lon="5.72774">
        <ele>787.611</ele>
        <time>2021-03-14T05:53:54Z</time>
      </trkpt>
      <trkpt lat="45.2106" lon="5.72779">
        <ele>787.5</ele>
        <time>2021-03-14T05:53:58Z</time>
      </trkpt>
      <trkpt lat="45.21067" lon="5.72797">
        <ele>787.553</ele>
        <time>2021-03-14T05:54:07Z</time>
      </trkpt>
      <trkpt lat="45.21071" lon="5.72813">
        <ele>788.439</ele>
        <time>2021-03-14T05:54:15Z</time>
      </trkpt>
      <trkpt lat="45.21073" lon="5.72816">
        <ele>789.107</ele>
        <time>2021-03-14T05:54:17Z</time>
      </trkpt>
      <trkpt lat="45.21082" lon="5.72833">
        <ele>788.971</ele>
        <time>2021-03-14T05:54:25Z</time>
      </trkpt>
      <trkpt lat="45.21083" lon="5.72837">
        <ele>790.346</ele>
        <time>2021-03-14T05:54:27Z</time>
      </trkpt>
      <trkpt lat="45.21089" lon="5.72843">
        <ele>793.248</ele>
        <time>2021-03-14T05:54:34Z</time>
      </trkpt>
      <trkpt lat="45.21098" lon="5.7285">
        <ele>793.524</ele>
        <time>2021-03-14T05:54:41Z</time>
      </trkpt>
      <trkpt lat="45.21104" lon="5.72858">
        <ele>794.863</ele>
        <time>2021-03-14T05:54:47Z</time>
      </trkpt>
      <trkpt lat="45.21113" lon="5.72867">
        <ele>795.836</ele>
        <time>2021-03-14T05:54:54Z</time>
      </trkpt>
      <trkpt lat="45.21114" lon="5.72871">
        <ele>796.083</ele>
        <time>2021-03-14T05:54:56Z</time>
      </trkpt>
      <trkpt lat="45.21123" lon="5.72878">
        <ele>798.446</ele>
        <time>2021-03-14T05:55:03Z</time>
      </trkpt>
      <trkpt lat="45.21128" lon="5.7288">
        <ele>799.958</ele>
        <time>2021-03-14T05:55:07Z</time>
      </trkpt>
      <trkpt lat="45.21137" lon="5.72887">
        <ele>801.569</ele>
        <time>2021-03-14T05:55:15Z</time>
      </trkpt>
      <trkpt lat="45.21142" lon="5.72888">
        <ele>802.997</ele>
        <time>2021-03-14T05:55:21Z</time>
      </trkpt>
      <trkpt lat="45.21149" lon="5.7289">
        <ele>804.789</ele>
        <time>2021-03-14T05:55:28Z</time>
      </trkpt>
      <trkpt lat="45.21159" lon="5.72893">
        <ele>805.246</ele>
        <time>2021-03-14T05:55:35Z</time>
      </trkpt>
      <trkpt lat="45.21167" lon="5.72893">
        <ele>806.337</ele>
        <time>2021-03-14T05:55:42Z</time>
      </trkpt>
      <trkpt lat="45.21176" lon="5.729">
        <ele>808.318</ele>
        <time>2021-03-14T05:55:49Z</time>
      </trkpt>
      <trkpt lat="45.21184" lon="5.72906">
        <ele>809.91</ele>
        <time>2021-03-14T05:55:56Z</time>
      </trkpt>
      <trkpt lat="45.21192" lon="5.72913">
        <ele>811.419</ele>
        <time>2021-03-14T05:56:04Z</time>
      </trkpt>
      <trkpt lat="45.21193" lon="5.72914">
        <ele>811.481</ele>
        <time>2021-03-14T05:56:05Z</time>
      </trkpt>
      <trkpt lat="45.21195" lon="5.72917">
        <ele>811.846</ele>
        <time>2021-03-14T05:56:07Z</time>
      </trkpt>
      <trkpt lat="45.21197" lon="5.7292">
        <ele>812.048</ele>
        <time>2021-03-14T05:56:09Z</time>
      </trkpt>
      <trkpt lat="45.21205" lon="5.7293">
        <ele>814.022</ele>
        <time>2021-03-14T05:56:16Z</time>
      </trkpt>
      <trkpt lat="45.21207" lon="5.72933">
        <ele>814.224</ele>
        <time>2021-03-14T05:56:18Z</time>
      </trkpt>
      <trkpt lat="45.21212" lon="5.72941">
        <ele>816.686</ele>
        <time>2021-03-14T05:56:25Z</time>
      </trkpt>
      <trkpt lat="45.21215" lon="5.72943">
        <ele>817.652</ele>
        <time>2021-03-14T05:56:30Z</time>
      </trkpt>
      <trkpt lat="45.21211" lon="5.72937">
        <ele>819.646</ele>
        <time>2021-03-14T05:56:38Z</time>
      </trkpt>
      <trkpt lat="45.2121" lon="5.72934">
        <ele>820.334</ele>
        <time>2021-03-14T05:56:40Z</time>
      </trkpt>
      <trkpt lat="45.21211" lon="5.72921">
        <ele>821.898</ele>
        <time>2021-03-14T05:56:48Z</time>
      </trkpt>
      <trkpt lat="45.21212" lon="5.72919">
        <ele>822.211</ele>
        <time>2021-03-14T05:56:49Z</time>
      </trkpt>
      <trkpt lat="45.21217" lon="5.72917">
        <ele>823.202</ele>
        <time>2021-03-14T05:56:56Z</time>
      </trkpt>
      <trkpt lat="45.21227" lon="5.72921">
        <ele>824.626</ele>
        <time>2021-03-14T05:57:05Z</time>
      </trkpt>
      <trkpt lat="45.21234" lon="5.72931">
        <ele>826.205</ele>
        <time>2021-03-14T05:57:13Z</time>
      </trkpt>
      <trkpt lat="45.21239" lon="5.72934">
        <ele>828.445</ele>
        <time>2021-03-14T05:57:20Z</time>
      </trkpt>
      <trkpt lat="45.21242" lon="5.72936">
        <ele>829.168</ele>
        <time>2021-03-14T05:57:22Z</time>
      </trkpt>
      <trkpt lat="45.21249" lon="5.72936">
        <ele>831.097</ele>
        <time>2021-03-14T05:57:30Z</time>
      </trkpt>
      <trkpt lat="45.21257" lon="5.72941">
        <ele>832.854</ele>
        <time>2021-03-14T05:57:37Z</time>
      </trkpt>
      <trkpt lat="45.21264" lon="5.72948">
        <ele>834.935</ele>
        <time>2021-03-14T05:57:46Z</time>
      </trkpt>
      <trkpt lat="45.21268" lon="5.72948">
        <ele>837.05</ele>
        <time>2021-03-14T05:57:52Z</time>
      </trkpt>
      <trkpt lat="45.21275" lon="5.72952">
        <ele>839.96</ele>
        <time>2021-03-14T05:57:59Z</time>
      </trkpt>
      <trkpt lat="45.21277" lon="5.72954">
        <ele>840.298</ele>
        <time>2021-03-14T05:58:01Z</time>
      </trkpt>
      <trkpt lat="45.21279" lon="5.72957">
        <ele>841.103</ele>
        <time>2021-03-14T05:58:03Z</time>
      </trkpt>
      <trkpt lat="45.21288" lon="5.72964">
        <ele>842.488</ele>
        <time>2021-03-14T05:58:12Z</time>
      </trkpt>
      <trkpt lat="45.21293" lon="5.72968">
        <ele>843.139</ele>
        <time>2021-03-14T05:58:18Z</time>
      </trkpt>
      <trkpt lat="45.21299" lon="5.72974">
        <ele>844.855</ele>
        <time>2021-03-14T05:58:25Z</time>
      </trkpt>
      <trkpt lat="45.21307" lon="5.72982">
        <ele>846.483</ele>
        <time>2021-03-14T05:58:33Z</time>
      </trkpt>
      <trkpt lat="45.2131" lon="5.72984">
        <ele>846.844</ele>
        <time>2021-03-14T05:58:35Z</time>
      </trkpt>
      <trkpt lat="45.21315" lon="5.72996">
        <ele>848.341</ele>
        <time>2021-03-14T05:58:44Z</time>
      </trkpt>
      <trkpt lat="45.21318" lon="5.73">
        <ele>849.591</ele>
        <time>2021-03-14T05:58:47Z</time>
      </trkpt>
      <trkpt lat="45.21327" lon="5.73011">
        <ele>852.007</ele>
        <time>2021-03-14T05:58:57Z</time>
      </trkpt>
      <trkpt lat="45.21333" lon="5.73018">
        <ele>853.731</ele>
        <time>2021-03-14T05:59:05Z</time>
      </trkpt>
      <trkpt lat="45.2134" lon="5.73026">
        <ele>856.268</ele>
        <time>2021-03-14T05:59:13Z</time>
      </trkpt>
      <trkpt lat="45.21343" lon="5.73031">
        <ele>858.872</ele>
        <time>2021-03-14T05:59:19Z</time>
      </trkpt>
      <trkpt lat="45.2135" lon="5.73037">
        <ele>860.1</ele>
        <time>2021-03-14T05:59:26Z</time>
      </trkpt>
      <trkpt lat="45.21355" lon="5.73044">
        <ele>862.191</ele>
        <time>2021-03-14T05:59:33Z</time>
      </trkpt>
      <trkpt lat="45.21357" lon="5.73052">
        <ele>864.432</ele>
        <time>2021-03-14T05:59:40Z</time>
      </trkpt>
      <trkpt lat="45.21362" lon="5.73059">
        <ele>864.84</ele>
        <time>2021-03-14T05:59:46Z</time>
      </trkpt>
      <trkpt lat="45.21364" lon="5.73061">
        <ele>865.676</ele>
        <time>2021-03-14T05:59:48Z</time>
      </trkpt>
      <trkpt lat="45.2137" lon="5.73066">
        <ele>866.392</ele>
        <time>2021-03-14T05:59:54Z</time>
      </trkpt>
      <trkpt lat="45.21379" lon="5.73079">
        <ele>866.873</ele>
        <time>2021-03-14T06:00:01Z</time>
      </trkpt>
      <trkpt lat="45.21381" lon="5.73081">
        <ele>866.628</ele>
        <time>2021-03-14T06:00:02Z</time>
      </trkpt>
      <trkpt lat="45.21391" lon="5.73094">
        <ele>867.747</ele>
        <time>2021-03-14T06:00:10Z</time>
      </trkpt>
      <trkpt lat="45.21395" lon="5.731">
        <ele>868.36</ele>
        <time>2021-03-14T06:00:14Z</time>
      </trkpt>
      <trkpt lat="45.21405" lon="5.73116">
        <ele>869.554</ele>
        <time>2021-03-14T06:00:23Z</time>
      </trkpt>
      <trkpt lat="45.21415" lon="5.73126">
        <ele>870.904</ele>
        <time>2021-03-14T06:00:30Z</time>
      </trkpt>
      <trkpt lat="45.21418" lon="5.73137">
        <ele>871.917</ele>
        <time>2021-03-14T06:00:35Z</time>
      </trkpt>
      <trkpt lat="45.21429" lon="5.73145">
        <ele>874.397</ele>
        <time>2021-03-14T06:00:43Z</time>
      </trkpt>
      <trkpt lat="45.21436" lon="5.7315">
        <ele>874.841</ele>
        <time>2021-03-14T06:00:50Z</time>
      </trkpt>
      <trkpt lat="45.21445" lon="5.73153">
        <ele>875.308</ele>
        <time>2021-03-14T06:00:57Z</time>
      </trkpt>
      <trkpt lat="45.21453" lon="5.73154">
        <ele>875.646</ele>
        <time>2021-03-14T06:01:02Z</time>
      </trkpt>
      <trkpt lat="45.21457" lon="5.73155">
        <ele>876.062</ele>
        <time>2021-03-14T06:01:05Z</time>
      </trkpt>
      <trkpt lat="45.21461" lon="5.73159">
        <ele>879.095</ele>
        <time>2021-03-14T06:01:10Z</time>
      </trkpt>
      <trkpt lat="45.21465" lon="5.73166">
        <ele>880.87</ele>
        <time>2021-03-14T06:01:15Z</time>
      </trkpt>
      <trkpt lat="45.21466" lon="5.73172">
        <ele>881.534</ele>
        <time>2021-03-14T06:01:18Z</time>
      </trkpt>
      <trkpt lat="45.2147" lon="5.73177">
        <ele>882.623</ele>
        <time>2021-03-14T06:01:22Z</time>
      </trkpt>
      <trkpt lat="45.21475" lon="5.73183">
        <ele>884.521</ele>
        <time>2021-03-14T06:01:29Z</time>
      </trkpt>
      <trkpt lat="45.21479" lon="5.73187">
        <ele>885.599</ele>
        <time>2021-03-14T06:01:34Z</time>
      </trkpt>
      <trkpt lat="45.21479" lon="5.73189">
        <ele>885.514</ele>
        <time>2021-03-14T06:01:35Z</time>
      </trkpt>
      <trkpt lat="45.21479" lon="5.73205">
        <ele>885.975</ele>
        <time>2021-03-14T06:01:41Z</time>
      </trkpt>
      <trkpt lat="45.21486" lon="5.73219">
        <ele>887.434</ele>
        <time>2021-03-14T06:01:48Z</time>
      </trkpt>
      <trkpt lat="45.21491" lon="5.7323">
        <ele>889.805</ele>
        <time>2021-03-14T06:01:55Z</time>
      </trkpt>
      <trkpt lat="45.21497" lon="5.73236">
        <ele>890.868</ele>
        <time>2021-03-14T06:02:02Z</time>
      </trkpt>
      <trkpt lat="45.21504" lon="5.73253">
        <ele>892.784</ele>
        <time>2021-03-14T06:02:12Z</time>
      </trkpt>
      <trkpt lat="45.21511" lon="5.73266">
        <ele>893.512</ele>
        <time>2021-03-14T06:02:19Z</time>
      </trkpt>
      <trkpt lat="45.2151" lon="5.73283">
        <ele>893.414</ele>
        <time>2021-03-14T06:02:27Z</time>
      </trkpt>
      <trkpt lat="45.21515" lon="5.73301">
        <ele>894.063</ele>
        <time>2021-03-14T06:02:35Z</time>
      </trkpt>
      <trkpt lat="45.21515" lon="5.73304">
        <ele>894.056</ele>
        <time>2021-03-14T06:02:36Z</time>
      </trkpt>
      <trkpt lat="45.2152" lon="5.73312">
        <ele>895.66</ele>
        <time>2021-03-14T06:02:42Z</time>
      </trkpt>
      <trkpt lat="45.21525" lon="5.73317">
        <ele>896.125</ele>
        <time>2021-03-14T06:02:47Z</time>
      </trkpt>
      <trkpt lat="45.21534" lon="5.73319">
        <ele>897.99</ele>
        <time>2021-03-14T06:02:52Z</time>
      </trkpt>
      <trkpt lat="45.21543" lon="5.73321">
        <ele>899.356</ele>
        <time>2021-03-14T06:02:59Z</time>
      </trkpt>
      <trkpt lat="45.2155" lon="5.73323">
        <ele>900.976</ele>
        <time>2021-03-14T06:03:06Z</time>
      </trkpt>
      <trkpt lat="45.21556" lon="5.73327">
        <ele>902.702</ele>
        <time>2021-03-14T06:03:12Z</time>
      </trkpt>
      <trkpt lat="45.21561" lon="5.73328">
        <ele>904.036</ele>
        <time>2021-03-14T06:03:16Z</time>
      </trkpt>
      <trkpt lat="45.21572" lon="5.73336">
        <ele>904.536</ele>
        <time>2021-03-14T06:03:25Z</time>
      </trkpt>
      <trkpt lat="45.21584" lon="5.73339">
        <ele>905.975</ele>
        <time>2021-03-14T06:03:31Z</time>
      </trkpt>
      <trkpt lat="45.21593" lon="5.73345">
        <ele>907.765</ele>
        <time>2021-03-14T06:03:38Z</time>
      </trkpt>
      <trkpt lat="45.21597" lon="5.73348">
        <ele>908.046</ele>
        <time>2021-03-14T06:03:41Z</time>
      </trkpt>
      <trkpt lat="45.21603" lon="5.73362">
        <ele>910.006</ele>
        <time>2021-03-14T06:03:51Z</time>
      </trkpt>
      <trkpt lat="45.21605" lon="5.73364">
        <ele>910.211</ele>
        <time>2021-03-14T06:03:53Z</time>
      </trkpt>
      <trkpt lat="45.21613" lon="5.73372">
        <ele>912.549</ele>
        <time>2021-03-14T06:04:02Z</time>
      </trkpt>
      <trkpt lat="45.21623" lon="5.7338">
        <ele>914.583</ele>
        <time>2021-03-14T06:04:11Z</time>
      </trkpt>
      <trkpt lat="45.21627" lon="5.73385">
        <ele>915.677</ele>
        <time>2021-03-14T06:04:15Z</time>
      </trkpt>
      <trkpt lat="45.2163" lon="5.73386">
        <ele>915.518</ele>
        <time>2021-03-14T06:04:17Z</time>
      </trkpt>
      <trkpt lat="45.21633" lon="5.73391">
        <ele>916.72</ele>
        <time>2021-03-14T06:04:21Z</time>
      </trkpt>
      <trkpt lat="45.2164" lon="5.73397">
        <ele>917.818</ele>
        <time>2021-03-14T06:04:26Z</time>
      </trkpt>
      <trkpt lat="45.21651" lon="5.7341">
        <ele>918.305</ele>
        <time>2021-03-14T06:04:34Z</time>
      </trkpt>
      <trkpt lat="45.21653" lon="5.73412">
        <ele>918.778</ele>
        <time>2021-03-14T06:04:35Z</time>
      </trkpt>
      <trkpt lat="45.21662" lon="5.73424">
        <ele>919.766</ele>
        <time>2021-03-14T06:04:42Z</time>
      </trkpt>
      <trkpt lat="45.21667" lon="5.73438">
        <ele>920.272</ele>
        <time>2021-03-14T06:04:49Z</time>
      </trkpt>
      <trkpt lat="45.21667" lon="5.73448">
        <ele>920.825</ele>
        <time>2021-03-14T06:04:52Z</time>
      </trkpt>
      <trkpt lat="45.21671" lon="5.73467">
        <ele>922.321</ele>
        <time>2021-03-14T06:05:00Z</time>
      </trkpt>
      <trkpt lat="45.21676" lon="5.7348">
        <ele>923.873</ele>
        <time>2021-03-14T06:05:08Z</time>
      </trkpt>
      <trkpt lat="45.21676" lon="5.73477">
        <ele>924.11</ele>
        <time>2021-03-14T06:05:12Z</time>
      </trkpt>
      <trkpt lat="45.21674" lon="5.7346">
        <ele>926.302</ele>
        <time>2021-03-14T06:05:22Z</time>
      </trkpt>
      <trkpt lat="45.21677" lon="5.73443">
        <ele>928.79</ele>
        <time>2021-03-14T06:05:31Z</time>
      </trkpt>
      <trkpt lat="45.21676" lon="5.73434">
        <ele>930.507</ele>
        <time>2021-03-14T06:05:36Z</time>
      </trkpt>
      <trkpt lat="45.21673" lon="5.73425">
        <ele>932.676</ele>
        <time>2021-03-14T06:05:41Z</time>
      </trkpt>
      <trkpt lat="45.21674" lon="5.73419">
        <ele>933.854</ele>
        <time>2021-03-14T06:05:45Z</time>
      </trkpt>
      <trkpt lat="45.21673" lon="5.73407">
        <ele>935.573</ele>
        <time>2021-03-14T06:05:53Z</time>
      </trkpt>
      <trkpt lat="45.2167" lon="5.73399">
        <ele>936.856</ele>
        <time>2021-03-14T06:06:01Z</time>
      </trkpt>
      <trkpt lat="45.21666" lon="5.73389">
        <ele>938.722</ele>
        <time>2021-03-14T06:06:09Z</time>
      </trkpt>
      <trkpt lat="45.21662" lon="5.73379">
        <ele>940.848</ele>
        <time>2021-03-14T06:06:16Z</time>
      </trkpt>
      <trkpt lat="45.2166" lon="5.73376">
        <ele>941.062</ele>
        <time>2021-03-14T06:06:18Z</time>
      </trkpt>
      <trkpt lat="45.21653" lon="5.73359">
        <ele>943.123</ele>
        <time>2021-03-14T06:06:28Z</time>
      </trkpt>
      <trkpt lat="45.21651" lon="5.7335">
        <ele>945.602</ele>
        <time>2021-03-14T06:06:37Z</time>
      </trkpt>
      <trkpt lat="45.21648" lon="5.73341">
        <ele>949.167</ele>
        <time>2021-03-14T06:06:45Z</time>
      </trkpt>
      <trkpt lat="45.21648" lon="5.73331">
        <ele>950.804</ele>
        <time>2021-03-14T06:06:51Z</time>
      </trkpt>
      <trkpt lat="45.21647" lon="5.73325">
        <ele>951.922</ele>
        <time>2021-03-14T06:06:57Z</time>
      </trkpt>
      <trkpt lat="45.21645" lon="5.73316">
        <ele>953.809</ele>
        <time>2021-03-14T06:07:05Z</time>
      </trkpt>
      <trkpt lat="45.21644" lon="5.73306">
        <ele>954.645</ele>
        <time>2021-03-14T06:07:12Z</time>
      </trkpt>
      <trkpt lat="45.2164" lon="5.73291">
        <ele>956.516</ele>
        <time>2021-03-14T06:07:21Z</time>
      </trkpt>
      <trkpt lat="45.21636" lon="5.7328">
        <ele>958.673</ele>
        <time>2021-03-14T06:07:28Z</time>
      </trkpt>
      <trkpt lat="45.21632" lon="5.7327">
        <ele>958.474</ele>
        <time>2021-03-14T06:07:36Z</time>
      </trkpt>
      <trkpt lat="45.21628" lon="5.73264">
        <ele>960.387</ele>
        <time>2021-03-14T06:07:44Z</time>
      </trkpt>
      <trkpt lat="45.21626" lon="5.73261">
        <ele>961.242</ele>
        <time>2021-03-14T06:07:53Z</time>
      </trkpt>
      <trkpt lat="45.21624" lon="5.73262">
        <ele>960.78</ele>
        <time>2021-03-14T06:07:57Z</time>
      </trkpt>
      <trkpt lat="45.21618" lon="5.7325">
        <ele>963.057</ele>
        <time>2021-03-14T06:08:05Z</time>
      </trkpt>
      <trkpt lat="45.21614" lon="5.73245">
        <ele>964.401</ele>
        <time>2021-03-14T06:08:12Z</time>
      </trkpt>
      <trkpt lat="45.21613" lon="5.73242">
        <ele>966.153</ele>
        <time>2021-03-14T06:08:15Z</time>
      </trkpt>
      <trkpt lat="45.21609" lon="5.73234">
        <ele>967.812</ele>
        <time>2021-03-14T06:08:21Z</time>
      </trkpt>
      <trkpt lat="45.21605" lon="5.73228">
        <ele>968.143</ele>
        <time>2021-03-14T06:08:27Z</time>
      </trkpt>
      <trkpt lat="45.21605" lon="5.73225">
        <ele>969.786</ele>
        <time>2021-03-14T06:08:30Z</time>
      </trkpt>
      <trkpt lat="45.216" lon="5.73219">
        <ele>970.72</ele>
        <time>2021-03-14T06:08:37Z</time>
      </trkpt>
      <trkpt lat="45.21593" lon="5.7321">
        <ele>972.276</ele>
        <time>2021-03-14T06:08:44Z</time>
      </trkpt>
      <trkpt lat="45.21585" lon="5.73202">
        <ele>973.754</ele>
        <time>2021-03-14T06:08:51Z</time>
      </trkpt>
      <trkpt lat="45.21582" lon="5.732">
        <ele>973.73</ele>
        <time>2021-03-14T06:08:53Z</time>
      </trkpt>
      <trkpt lat="45.21578" lon="5.732">
        <ele>974.375</ele>
        <time>2021-03-14T06:08:56Z</time>
      </trkpt>
      <trkpt lat="45.2157" lon="5.73191">
        <ele>976.898</ele>
        <time>2021-03-14T06:09:04Z</time>
      </trkpt>
      <trkpt lat="45.21568" lon="5.7318">
        <ele>978.189</ele>
        <time>2021-03-14T06:09:11Z</time>
      </trkpt>
      <trkpt lat="45.21568" lon="5.73173">
        <ele>979.889</ele>
        <time>2021-03-14T06:09:17Z</time>
      </trkpt>
      <trkpt lat="45.21568" lon="5.7316">
        <ele>982.23</ele>
        <time>2021-03-14T06:09:26Z</time>
      </trkpt>
      <trkpt lat="45.21572" lon="5.73158">
        <ele>984.472</ele>
        <time>2021-03-14T06:09:32Z</time>
      </trkpt>
      <trkpt lat="45.21574" lon="5.73153">
        <ele>986.005</ele>
        <time>2021-03-14T06:09:38Z</time>
      </trkpt>
      <trkpt lat="45.21576" lon="5.73149">
        <ele>987.149</ele>
        <time>2021-03-14T06:09:44Z</time>
      </trkpt>
      <trkpt lat="45.21573" lon="5.73141">
        <ele>989.936</ele>
        <time>2021-03-14T06:09:50Z</time>
      </trkpt>
      <trkpt lat="45.21574" lon="5.7314">
        <ele>989.806</ele>
        <time>2021-03-14T06:09:51Z</time>
      </trkpt>
      <trkpt lat="45.21578" lon="5.73133">
        <ele>992.851</ele>
        <time>2021-03-14T06:09:59Z</time>
      </trkpt>
      <trkpt lat="45.21578" lon="5.73125">
        <ele>993.55</ele>
        <time>2021-03-14T06:10:08Z</time>
      </trkpt>
      <trkpt lat="45.21579" lon="5.73119">
        <ele>994.156</ele>
        <time>2021-03-14T06:10:14Z</time>
      </trkpt>
      <trkpt lat="45.21581" lon="5.73116">
        <ele>995.918</ele>
        <time>2021-03-14T06:10:18Z</time>
      </trkpt>
      <trkpt lat="45.21584" lon="5.73113">
        <ele>997.508</ele>
        <time>2021-03-14T06:10:21Z</time>
      </trkpt>
      <trkpt lat="45.2159" lon="5.7311">
        <ele>998.649</ele>
        <time>2021-03-14T06:10:26Z</time>
      </trkpt>
      <trkpt lat="45.21599" lon="5.7312">
        <ele>1000.632</ele>
        <time>2021-03-14T06:10:35Z</time>
      </trkpt>
      <trkpt lat="45.21608" lon="5.73123">
        <ele>1001.995</ele>
        <time>2021-03-14T06:10:45Z</time>
      </trkpt>
      <trkpt lat="45.21617" lon="5.73125">
        <ele>1003.977</ele>
        <time>2021-03-14T06:10:52Z</time>
      </trkpt>
      <trkpt lat="45.21627" lon="5.73129">
        <ele>1005.926</ele>
        <time>2021-03-14T06:10:59Z</time>
      </trkpt>
      <trkpt lat="45.21632" lon="5.73131">
        <ele>1007.484</ele>
        <time>2021-03-14T06:11:07Z</time>
      </trkpt>
      <trkpt lat="45.21637" lon="5.7313">
        <ele>1008.927</ele>
        <time>2021-03-14T06:11:13Z</time>
      </trkpt>
      <trkpt lat="45.21644" lon="5.7313">
        <ele>1011.704</ele>
        <time>2021-03-14T06:11:20Z</time>
      </trkpt>
      <trkpt lat="45.21654" lon="5.73134">
        <ele>1013.53</ele>
        <time>2021-03-14T06:11:29Z</time>
      </trkpt>
      <trkpt lat="45.21659" lon="5.73132">
        <ele>1015.694</ele>
        <time>2021-03-14T06:11:36Z</time>
      </trkpt>
      <trkpt lat="45.21665" lon="5.73138">
        <ele>1016.981</ele>
        <time>2021-03-14T06:11:44Z</time>
      </trkpt>
      <trkpt lat="45.21669" lon="5.73138">
        <ele>1019.015</ele>
        <time>2021-03-14T06:11:50Z</time>
      </trkpt>
      <trkpt lat="45.21673" lon="5.73145">
        <ele>1020.334</ele>
        <time>2021-03-14T06:11:58Z</time>
      </trkpt>
      <trkpt lat="45.21677" lon="5.73149">
        <ele>1023.537</ele>
        <time>2021-03-14T06:12:06Z</time>
      </trkpt>
      <trkpt lat="45.21681" lon="5.73159">
        <ele>1026.134</ele>
        <time>2021-03-14T06:12:15Z</time>
      </trkpt>
      <trkpt lat="45.21685" lon="5.73166">
        <ele>1027.222</ele>
        <time>2021-03-14T06:12:22Z</time>
      </trkpt>
      <trkpt lat="45.21687" lon="5.73171">
        <ele>1029.196</ele>
        <time>2021-03-14T06:12:28Z</time>
      </trkpt>
      <trkpt lat="45.21693" lon="5.7318">
        <ele>1030.288</ele>
        <time>2021-03-14T06:12:36Z</time>
      </trkpt>
      <trkpt lat="45.21699" lon="5.73186">
        <ele>1031.017</ele>
        <time>2021-03-14T06:12:43Z</time>
      </trkpt>
      <trkpt lat="45.21705" lon="5.73197">
        <ele>1031.25</ele>
        <time>2021-03-14T06:12:51Z</time>
      </trkpt>
      <trkpt lat="45.21712" lon="5.73204">
        <ele>1031.729</ele>
        <time>2021-03-14T06:12:58Z</time>
      </trkpt>
      <trkpt lat="45.21716" lon="5.73207">
        <ele>1032.18</ele>
        <time>2021-03-14T06:13:01Z</time>
      </trkpt>
      <trkpt lat="45.21722" lon="5.73214">
        <ele>1032.107</ele>
        <time>2021-03-14T06:13:08Z</time>
      </trkpt>
      <trkpt lat="45.21725" lon="5.73215">
        <ele>1034.017</ele>
        <time>2021-03-14T06:13:13Z</time>
      </trkpt>
      <trkpt lat="45.21726" lon="5.73212">
        <ele>1035.76</ele>
        <time>2021-03-14T06:13:18Z</time>
      </trkpt>
      <trkpt lat="45.21726" lon="5.7321">
        <ele>1037.122</ele>
        <time>2021-03-14T06:13:21Z</time>
      </trkpt>
      <trkpt lat="45.21731" lon="5.73207">
        <ele>1037.936</ele>
        <time>2021-03-14T06:13:28Z</time>
      </trkpt>
      <trkpt lat="45.21738" lon="5.73202">
        <ele>1038.185</ele>
        <time>2021-03-14T06:13:35Z</time>
      </trkpt>
      <trkpt lat="45.21743" lon="5.73201">
        <ele>1037.799</ele>
        <time>2021-03-14T06:13:40Z</time>
      </trkpt>
      <trkpt lat="45.2175" lon="5.73203">
        <ele>1036.905</ele>
        <time>2021-03-14T06:13:46Z</time>
      </trkpt>
      <trkpt lat="45.21755" lon="5.73208">
        <ele>1037.892</ele>
        <time>2021-03-14T06:13:53Z</time>
      </trkpt>
      <trkpt lat="45.2176" lon="5.73213">
        <ele>1039.482</ele>
        <time>2021-03-14T06:13:59Z</time>
      </trkpt>
      <trkpt lat="45.21765" lon="5.73219">
        <ele>1041.11</ele>
        <time>2021-03-14T06:14:07Z</time>
      </trkpt>
      <trkpt lat="45.21766" lon="5.73227">
        <ele>1041.207</ele>
        <time>2021-03-14T06:14:13Z</time>
      </trkpt>
      <trkpt lat="45.21771" lon="5.7323">
        <ele>1040.359</ele>
        <time>2021-03-14T06:14:20Z</time>
      </trkpt>
      <trkpt lat="45.21775" lon="5.73238">
        <ele>1041.598</ele>
        <time>2021-03-14T06:14:27Z</time>
      </trkpt>
      <trkpt lat="45.21778" lon="5.73245">
        <ele>1042.817</ele>
        <time>2021-03-14T06:14:33Z</time>
      </trkpt>
      <trkpt lat="45.21779" lon="5.73248">
        <ele>1043.273</ele>
        <time>2021-03-14T06:14:35Z</time>
      </trkpt>
      <trkpt lat="45.21781" lon="5.73258">
        <ele>1044.292</ele>
        <time>2021-03-14T06:14:42Z</time>
      </trkpt>
      <trkpt lat="45.21777" lon="5.73266">
        <ele>1046.057</ele>
        <time>2021-03-14T06:14:49Z</time>
      </trkpt>
      <trkpt lat="45.21784" lon="5.73275">
        <ele>1047.707</ele>
        <time>2021-03-14T06:14:57Z</time>
      </trkpt>
      <trkpt lat="45.21789" lon="5.7328">
        <ele>1049.282</ele>
        <time>2021-03-14T06:15:04Z</time>
      </trkpt>
      <trkpt lat="45.21794" lon="5.73285">
        <ele>1050.25</ele>
        <time>2021-03-14T06:15:10Z</time>
      </trkpt>
      <trkpt lat="45.218" lon="5.73293">
        <ele>1052.075</ele>
        <time>2021-03-14T06:15:17Z</time>
      </trkpt>
      <trkpt lat="45.21801" lon="5.73296">
        <ele>1052.017</ele>
        <time>2021-03-14T06:15:20Z</time>
      </trkpt>
      <trkpt lat="45.21807" lon="5.73303">
        <ele>1053.216</ele>
        <time>2021-03-14T06:15:25Z</time>
      </trkpt>
      <trkpt lat="45.21811" lon="5.73308">
        <ele>1052.938</ele>
        <time>2021-03-14T06:15:29Z</time>
      </trkpt>
      <trkpt lat="45.21817" lon="5.73309">
        <ele>1053.595</ele>
        <time>2021-03-14T06:15:34Z</time>
      </trkpt>
      <trkpt lat="45.21823" lon="5.73318">
        <ele>1055.242</ele>
        <time>2021-03-14T06:15:42Z</time>
      </trkpt>
      <trkpt lat="45.21829" lon="5.73322">
        <ele>1057.291</ele>
        <time>2021-03-14T06:15:49Z</time>
      </trkpt>
      <trkpt lat="45.21833" lon="5.73326">
        <ele>1057.522</ele>
        <time>2021-03-14T06:15:55Z</time>
      </trkpt>
      <trkpt lat="45.21834" lon="5.73328">
        <ele>1058.11</ele>
        <time>2021-03-14T06:16:01Z</time>
      </trkpt>
      <trkpt lat="45.21835" lon="5.73328">
        <ele>1057.777</ele>
        <time>2021-03-14T06:16:05Z</time>
      </trkpt>
      <trkpt lat="45.21844" lon="5.73338">
        <ele>1058.156</ele>
        <time>2021-03-14T06:16:15Z</time>
      </trkpt>
      <trkpt lat="45.21845" lon="5.73339">
        <ele>1058.309</ele>
        <time>2021-03-14T06:16:16Z</time>
      </trkpt>
      <trkpt lat="45.21848" lon="5.73341">
        <ele>1058.696</ele>
        <time>2021-03-14T06:16:24Z</time>
      </trkpt>
      <trkpt lat="45.21849" lon="5.73342">
        <ele>1058.648</ele>
        <time>2021-03-14T06:16:35Z</time>
      </trkpt>
      <trkpt lat="45.21848" lon="5.73342">
        <ele>1058.227</ele>
        <time>2021-03-14T06:16:38Z</time>
      </trkpt>
      <trkpt lat="45.21844" lon="5.73353">
        <ele>1058.638</ele>
        <time>2021-03-14T06:16:46Z</time>
      </trkpt>
      <trkpt lat="45.21844" lon="5.7335">
        <ele>1058.625</ele>
        <time>2021-03-14T06:16:55Z</time>
      </trkpt>
      <trkpt lat="45.21849" lon="5.73343">
        <ele>1058.784</ele>
        <time>2021-03-14T06:17:03Z</time>
      </trkpt>
      <trkpt lat="45.21852" lon="5.73347">
        <ele>1058.657</ele>
        <time>2021-03-14T06:17:10Z</time>
      </trkpt>
      <trkpt lat="45.21856" lon="5.73352">
        <ele>1056.101</ele>
        <time>2021-03-14T06:17:18Z</time>
      </trkpt>
      <trkpt lat="45.21857" lon="5.73354">
        <ele>1055.464</ele>
        <time>2021-03-14T06:17:20Z</time>
      </trkpt>
      <trkpt lat="45.21858" lon="5.73353">
        <ele>1055.459</ele>
        <time>2021-03-14T06:17:21Z</time>
      </trkpt>
      <trkpt lat="45.21866" lon="5.73354">
        <ele>1054.718</ele>
        <time>2021-03-14T06:17:27Z</time>
      </trkpt>
      <trkpt lat="45.21867" lon="5.73356">
        <ele>1053.367</ele>
        <time>2021-03-14T06:17:30Z</time>
      </trkpt>
      <trkpt lat="45.2187" lon="5.7336">
        <ele>1053.046</ele>
        <time>2021-03-14T06:17:33Z</time>
      </trkpt>
      <trkpt lat="45.21877" lon="5.73365">
        <ele>1050.908</ele>
        <time>2021-03-14T06:17:40Z</time>
      </trkpt>
      <trkpt lat="45.21882" lon="5.73369">
        <ele>1049.881</ele>
        <time>2021-03-14T06:17:45Z</time>
      </trkpt>
      <trkpt lat="45.21888" lon="5.73375">
        <ele>1051.292</ele>
        <time>2021-03-14T06:17:51Z</time>
      </trkpt>
      <trkpt lat="45.21893" lon="5.73381">
        <ele>1050.792</ele>
        <time>2021-03-14T06:17:55Z</time>
      </trkpt>
      <trkpt lat="45.21902" lon="5.73382">
        <ele>1051.772</ele>
        <time>2021-03-14T06:18:00Z</time>
      </trkpt>
      <trkpt lat="45.21909" lon="5.73384">
        <ele>1052.166</ele>
        <time>2021-03-14T06:18:06Z</time>
      </trkpt>
      <trkpt lat="45.21916" lon="5.73388">
        <ele>1050.995</ele>
        <time>2021-03-14T06:18:12Z</time>
      </trkpt>
      <trkpt lat="45.21918" lon="5.7339">
        <ele>1050.208</ele>
        <time>2021-03-14T06:18:14Z</time>
      </trkpt>
      <trkpt lat="45.21925" lon="5.73402">
        <ele>1049.73</ele>
        <time>2021-03-14T06:18:21Z</time>
      </trkpt>
      <trkpt lat="45.21934" lon="5.73416">
        <ele>1051.337</ele>
        <time>2021-03-14T06:18:29Z</time>
      </trkpt>
      <trkpt lat="45.21941" lon="5.73426">
        <ele>1052.766</ele>
        <time>2021-03-14T06:18:36Z</time>
      </trkpt>
      <trkpt lat="45.21945" lon="5.73429">
        <ele>1052.85</ele>
        <time>2021-03-14T06:18:39Z</time>
      </trkpt>
      <trkpt lat="45.21955" lon="5.73426">
        <ele>1053.844</ele>
        <time>2021-03-14T06:18:46Z</time>
      </trkpt>
      <trkpt lat="45.21957" lon="5.73426">
        <ele>1053.86</ele>
        <time>2021-03-14T06:18:47Z</time>
      </trkpt>
      <trkpt lat="45.21969" lon="5.73429">
        <ele>1055.077</ele>
        <time>2021-03-14T06:18:53Z</time>
      </trkpt>
      <trkpt lat="45.21977" lon="5.73434">
        <ele>1056.237</ele>
        <time>2021-03-14T06:18:59Z</time>
      </trkpt>
      <trkpt lat="45.21985" lon="5.73437">
        <ele>1057.189</ele>
        <time>2021-03-14T06:19:05Z</time>
      </trkpt>
      <trkpt lat="45.21991" lon="5.7344">
        <ele>1058.037</ele>
        <time>2021-03-14T06:19:10Z</time>
      </trkpt>
      <trkpt lat="45.21998" lon="5.73438">
        <ele>1058.776</ele>
        <time>2021-03-14T06:19:16Z</time>
      </trkpt>
      <trkpt lat="45.22006" lon="5.7344">
        <ele>1058.25</ele>
        <time>2021-03-14T06:19:20Z</time>
      </trkpt>
      <trkpt lat="45.2202" lon="5.7345">
        <ele>1057.297</ele>
        <time>2021-03-14T06:19:28Z</time>
      </trkpt>
      <trkpt lat="45.22032" lon="5.73461">
        <ele>1056.064</ele>
        <time>2021-03-14T06:19:37Z</time>
      </trkpt>
      <trkpt lat="45.22036" lon="5.73464">
        <ele>1054.13</ele>
        <time>2021-03-14T06:19:42Z</time>
      </trkpt>
      <trkpt lat="45.22042" lon="5.7347">
        <ele>1052.236</ele>
        <time>2021-03-14T06:19:48Z</time>
      </trkpt>
      <trkpt lat="45.22051" lon="5.73478">
        <ele>1051.096</ele>
        <time>2021-03-14T06:19:55Z</time>
      </trkpt>
      <trkpt lat="45.22063" lon="5.73487">
        <ele>1049.232</ele>
        <time>2021-03-14T06:20:02Z</time>
      </trkpt>
      <trkpt lat="45.22069" lon="5.73493">
        <ele>1047.618</ele>
        <time>2021-03-14T06:20:07Z</time>
      </trkpt>
      <trkpt lat="45.22079" lon="5.735">
        <ele>1046.878</ele>
        <time>2021-03-14T06:20:14Z</time>
      </trkpt>
      <trkpt lat="45.22092" lon="5.73508">
        <ele>1043.772</ele>
        <time>2021-03-14T06:20:21Z</time>
      </trkpt>
      <trkpt lat="45.22097" lon="5.73509">
        <ele>1042.608</ele>
        <time>2021-03-14T06:20:26Z</time>
      </trkpt>
      <trkpt lat="45.22108" lon="5.73515">
        <ele>1041.094</ele>
        <time>2021-03-14T06:20:33Z</time>
      </trkpt>
      <trkpt lat="45.22112" lon="5.73515">
        <ele>1039.59</ele>
        <time>2021-03-14T06:20:38Z</time>
      </trkpt>
      <trkpt lat="45.22118" lon="5.73518">
        <ele>1035.094</ele>
        <time>2021-03-14T06:20:47Z</time>
      </trkpt>
      <trkpt lat="45.22123" lon="5.73521">
        <ele>1034.101</ele>
        <time>2021-03-14T06:20:51Z</time>
      </trkpt>
      <trkpt lat="45.22123" lon="5.73533">
        <ele>1032.69</ele>
        <time>2021-03-14T06:20:56Z</time>
      </trkpt>
      <trkpt lat="45.22129" lon="5.73543">
        <ele>1030.984</ele>
        <time>2021-03-14T06:21:02Z</time>
      </trkpt>
      <trkpt lat="45.22136" lon="5.73546">
        <ele>1029.562</ele>
        <time>2021-03-14T06:21:06Z</time>
      </trkpt>
      <trkpt lat="45.22145" lon="5.7355">
        <ele>1027.243</ele>
        <time>2021-03-14T06:21:13Z</time>
      </trkpt>
      <trkpt lat="45.2215" lon="5.7355">
        <ele>1025.59</ele>
        <time>2021-03-14T06:21:17Z</time>
      </trkpt>
      <trkpt lat="45.22155" lon="5.73549">
        <ele>1023.616</ele>
        <time>2021-03-14T06:21:21Z</time>
      </trkpt>
      <trkpt lat="45.22165" lon="5.73555">
        <ele>1020.51</ele>
        <time>2021-03-14T06:21:28Z</time>
      </trkpt>
      <trkpt lat="45.22173" lon="5.73563">
        <ele>1019.624</ele>
        <time>2021-03-14T06:21:34Z</time>
      </trkpt>
      <trkpt lat="45.22179" lon="5.73572">
        <ele>1018.359</ele>
        <time>2021-03-14T06:21:40Z</time>
      </trkpt>
      <trkpt lat="45.22184" lon="5.73575">
        <ele>1016.935</ele>
        <time>2021-03-14T06:21:44Z</time>
      </trkpt>
      <trkpt lat="45.2219" lon="5.73582">
        <ele>1016.066</ele>
        <time>2021-03-14T06:21:48Z</time>
      </trkpt>
      <trkpt lat="45.22198" lon="5.73597">
        <ele>1014.57</ele>
        <time>2021-03-14T06:21:57Z</time>
      </trkpt>
      <trkpt lat="45.22205" lon="5.73606">
        <ele>1013.317</ele>
        <time>2021-03-14T06:22:02Z</time>
      </trkpt>
      <trkpt lat="45.22208" lon="5.73609">
        <ele>1012.58</ele>
        <time>2021-03-14T06:22:04Z</time>
      </trkpt>
      <trkpt lat="45.22213" lon="5.73617">
        <ele>1012.168</ele>
        <time>2021-03-14T06:22:08Z</time>
      </trkpt>
      <trkpt lat="45.22227" lon="5.73631">
        <ele>1010.883</ele>
        <time>2021-03-14T06:22:15Z</time>
      </trkpt>
      <trkpt lat="45.22228" lon="5.73633">
        <ele>1010.882</ele>
        <time>2021-03-14T06:22:16Z</time>
      </trkpt>
      <trkpt lat="45.22234" lon="5.73637">
        <ele>1011.223</ele>
        <time>2021-03-14T06:22:19Z</time>
      </trkpt>
      <trkpt lat="45.22236" lon="5.7364">
        <ele>1010.821</ele>
        <time>2021-03-14T06:22:21Z</time>
      </trkpt>
      <trkpt lat="45.22241" lon="5.73642">
        <ele>1010.59</ele>
        <time>2021-03-14T06:22:23Z</time>
      </trkpt>
      <trkpt lat="45.22247" lon="5.73648">
        <ele>1009.316</ele>
        <time>2021-03-14T06:22:27Z</time>
      </trkpt>
      <trkpt lat="45.22252" lon="5.73651">
        <ele>1008.079</ele>
        <time>2021-03-14T06:22:30Z</time>
      </trkpt>
      <trkpt lat="45.22254" lon="5.73651">
        <ele>1007.013</ele>
        <time>2021-03-14T06:22:31Z</time>
      </trkpt>
      <trkpt lat="45.22262" lon="5.73655">
        <ele>1006.808</ele>
        <time>2021-03-14T06:22:35Z</time>
      </trkpt>
      <trkpt lat="45.22264" lon="5.73657">
        <ele>1006.733</ele>
        <time>2021-03-14T06:22:37Z</time>
      </trkpt>
      <trkpt lat="45.22274" lon="5.73655">
        <ele>1004.623</ele>
        <time>2021-03-14T06:22:43Z</time>
      </trkpt>
      <trkpt lat="45.22279" lon="5.73656">
        <ele>1004.049</ele>
        <time>2021-03-14T06:22:45Z</time>
      </trkpt>
      <trkpt lat="45.22286" lon="5.73658">
        <ele>1000.186</ele>
        <time>2021-03-14T06:22:51Z</time>
      </trkpt>
      <trkpt lat="45.22295" lon="5.73657">
        <ele>999.101</ele>
        <time>2021-03-14T06:22:58Z</time>
      </trkpt>
      <trkpt lat="45.22305" lon="5.73662">
        <ele>996.839</ele>
        <time>2021-03-14T06:23:05Z</time>
      </trkpt>
      <trkpt lat="45.22317" lon="5.73668">
        <ele>994.47</ele>
        <time>2021-03-14T06:23:11Z</time>
      </trkpt>
      <trkpt lat="45.22326" lon="5.73671">
        <ele>993.435</ele>
        <time>2021-03-14T06:23:17Z</time>
      </trkpt>
      <trkpt lat="45.22335" lon="5.7367">
        <ele>990.985</ele>
        <time>2021-03-14T06:23:23Z</time>
      </trkpt>
      <trkpt lat="45.22339" lon="5.73671">
        <ele>990.3</ele>
        <time>2021-03-14T06:23:25Z</time>
      </trkpt>
      <trkpt lat="45.2235" lon="5.73679">
        <ele>990.052</ele>
        <time>2021-03-14T06:23:32Z</time>
      </trkpt>
      <trkpt lat="45.22368" lon="5.73687">
        <ele>989.029</ele>
        <time>2021-03-14T06:23:40Z</time>
      </trkpt>
      <trkpt lat="45.22378" lon="5.73691">
        <ele>989.039</ele>
        <time>2021-03-14T06:23:46Z</time>
      </trkpt>
      <trkpt lat="45.22379" lon="5.73691">
        <ele>989.272</ele>
        <time>2021-03-14T06:23:47Z</time>
      </trkpt>
      <trkpt lat="45.22392" lon="5.73692">
        <ele>990.555</ele>
        <time>2021-03-14T06:23:54Z</time>
      </trkpt>
      <trkpt lat="45.22401" lon="5.73694">
        <ele>992.02</ele>
        <time>2021-03-14T06:24:00Z</time>
      </trkpt>
      <trkpt lat="45.2241" lon="5.73693">
        <ele>993.342</ele>
        <time>2021-03-14T06:24:06Z</time>
      </trkpt>
      <trkpt lat="45.22414" lon="5.73692">
        <ele>995.298</ele>
        <time>2021-03-14T06:24:09Z</time>
      </trkpt>
      <trkpt lat="45.22417" lon="5.73694">
        <ele>996.68</ele>
        <time>2021-03-14T06:24:12Z</time>
      </trkpt>
      <trkpt lat="45.22424" lon="5.73699">
        <ele>997.628</ele>
        <time>2021-03-14T06:24:19Z</time>
      </trkpt>
      <trkpt lat="45.22427" lon="5.73697">
        <ele>998.995</ele>
        <time>2021-03-14T06:24:24Z</time>
      </trkpt>
      <trkpt lat="45.22435" lon="5.73695">
        <ele>1002.086</ele>
        <time>2021-03-14T06:24:33Z</time>
      </trkpt>
      <trkpt lat="45.22445" lon="5.73697">
        <ele>1002.919</ele>
        <time>2021-03-14T06:24:39Z</time>
      </trkpt>
      <trkpt lat="45.22451" lon="5.73699">
        <ele>1002.564</ele>
        <time>2021-03-14T06:24:45Z</time>
      </trkpt>
      <trkpt lat="45.22453" lon="5.73699">
        <ele>1001.873</ele>
        <time>2021-03-14T06:24:47Z</time>
      </trkpt>
      <trkpt lat="45.2247" lon="5.73694">
        <ele>1003.158</ele>
        <time>2021-03-14T06:24:53Z</time>
      </trkpt>
      <trkpt lat="45.22476" lon="5.73696">
        <ele>1004.445</ele>
        <time>2021-03-14T06:24:57Z</time>
      </trkpt>
      <trkpt lat="45.2248" lon="5.73699">
        <ele>1006.28</ele>
        <time>2021-03-14T06:25:05Z</time>
      </trkpt>
      <trkpt lat="45.22486" lon="5.73696">
        <ele>1007.02</ele>
        <time>2021-03-14T06:25:11Z</time>
      </trkpt>
      <trkpt lat="45.22493" lon="5.73693">
        <ele>1010.714</ele>
        <time>2021-03-14T06:25:20Z</time>
      </trkpt>
      <trkpt lat="45.22499" lon="5.73689">
        <ele>1011.937</ele>
        <time>2021-03-14T06:25:26Z</time>
      </trkpt>
      <trkpt lat="45.22504" lon="5.73686">
        <ele>1013.489</ele>
        <time>2021-03-14T06:25:32Z</time>
      </trkpt>
      <trkpt lat="45.22512" lon="5.73688">
        <ele>1015.913</ele>
        <time>2021-03-14T06:25:38Z</time>
      </trkpt>
      <trkpt lat="45.22519" lon="5.73689">
        <ele>1017.389</ele>
        <time>2021-03-14T06:25:44Z</time>
      </trkpt>
      <trkpt lat="45.22528" lon="5.73694">
        <ele>1018.563</ele>
        <time>2021-03-14T06:25:53Z</time>
      </trkpt>
      <trkpt lat="45.22535" lon="5.73695">
        <ele>1020.427</ele>
        <time>2021-03-14T06:25:59Z</time>
      </trkpt>
      <trkpt lat="45.22541" lon="5.73699">
        <ele>1022.777</ele>
        <time>2021-03-14T06:26:06Z</time>
      </trkpt>
      <trkpt lat="45.22545" lon="5.73699">
        <ele>1023.011</ele>
        <time>2021-03-14T06:26:08Z</time>
      </trkpt>
      <trkpt lat="45.22552" lon="5.737">
        <ele>1024.681</ele>
        <time>2021-03-14T06:26:15Z</time>
      </trkpt>
      <trkpt lat="45.22559" lon="5.73705">
        <ele>1026.152</ele>
        <time>2021-03-14T06:26:20Z</time>
      </trkpt>
      <trkpt lat="45.22562" lon="5.73708">
        <ele>1027.162</ele>
        <time>2021-03-14T06:26:23Z</time>
      </trkpt>
      <trkpt lat="45.22567" lon="5.73714">
        <ele>1028.007</ele>
        <time>2021-03-14T06:26:27Z</time>
      </trkpt>
      <trkpt lat="45.22577" lon="5.73716">
        <ele>1028.132</ele>
        <time>2021-03-14T06:26:33Z</time>
      </trkpt>
      <trkpt lat="45.22581" lon="5.73717">
        <ele>1028.732</ele>
        <time>2021-03-14T06:26:37Z</time>
      </trkpt>
      <trkpt lat="45.22587" lon="5.73721">
        <ele>1029.559</ele>
        <time>2021-03-14T06:26:42Z</time>
      </trkpt>
      <trkpt lat="45.22593" lon="5.73727">
        <ele>1030.915</ele>
        <time>2021-03-14T06:26:47Z</time>
      </trkpt>
      <trkpt lat="45.22599" lon="5.7373">
        <ele>1031.773</ele>
        <time>2021-03-14T06:26:53Z</time>
      </trkpt>
      <trkpt lat="45.22608" lon="5.73734">
        <ele>1034.048</ele>
        <time>2021-03-14T06:27:01Z</time>
      </trkpt>
      <trkpt lat="45.22618" lon="5.7374">
        <ele>1035.223</ele>
        <time>2021-03-14T06:27:10Z</time>
      </trkpt>
      <trkpt lat="45.22624" lon="5.73747">
        <ele>1035.273</ele>
        <time>2021-03-14T06:27:14Z</time>
      </trkpt>
      <trkpt lat="45.22635" lon="5.73759">
        <ele>1035.15</ele>
        <time>2021-03-14T06:27:21Z</time>
      </trkpt>
      <trkpt lat="45.22641" lon="5.73764">
        <ele>1034.887</ele>
        <time>2021-03-14T06:27:26Z</time>
      </trkpt>
      <trkpt lat="45.22652" lon="5.73777">
        <ele>1035.862</ele>
        <time>2021-03-14T06:27:34Z</time>
      </trkpt>
      <trkpt lat="45.22661" lon="5.7378">
        <ele>1036.977</ele>
        <time>2021-03-14T06:27:40Z</time>
      </trkpt>
      <trkpt lat="45.22668" lon="5.73786">
        <ele>1038.925</ele>
        <time>2021-03-14T06:27:45Z</time>
      </trkpt>
      <trkpt lat="45.2267" lon="5.73788">
        <ele>1039.121</ele>
        <time>2021-03-14T06:27:46Z</time>
      </trkpt>
      <trkpt lat="45.22675" lon="5.73796">
        <ele>1040.087</ele>
        <time>2021-03-14T06:27:51Z</time>
      </trkpt>
      <trkpt lat="45.22695" lon="5.73811">
        <ele>1040.084</ele>
        <time>2021-03-14T06:28:02Z</time>
      </trkpt>
      <trkpt lat="45.22702" lon="5.7381">
        <ele>1042.039</ele>
        <time>2021-03-14T06:28:06Z</time>
      </trkpt>
      <trkpt lat="45.2271" lon="5.73812">
        <ele>1041.836</ele>
        <time>2021-03-14T06:28:12Z</time>
      </trkpt>
      <trkpt lat="45.2272" lon="5.73819">
        <ele>1042.341</ele>
        <time>2021-03-14T06:28:19Z</time>
      </trkpt>
      <trkpt lat="45.22728" lon="5.73821">
        <ele>1040.871</ele>
        <time>2021-03-14T06:28:23Z</time>
      </trkpt>
      <trkpt lat="45.22738" lon="5.73826">
        <ele>1040.849</ele>
        <time>2021-03-14T06:28:28Z</time>
      </trkpt>
      <trkpt lat="45.22742" lon="5.73827">
        <ele>1040.172</ele>
        <time>2021-03-14T06:28:30Z</time>
      </trkpt>
      <trkpt lat="45.22749" lon="5.73831">
        <ele>1040.216</ele>
        <time>2021-03-14T06:28:33Z</time>
      </trkpt>
      <trkpt lat="45.22757" lon="5.73838">
        <ele>1040.411</ele>
        <time>2021-03-14T06:28:39Z</time>
      </trkpt>
      <trkpt lat="45.22764" lon="5.73841">
        <ele>1039.529</ele>
        <time>2021-03-14T06:28:46Z</time>
      </trkpt>
      <trkpt lat="45.22768" lon="5.7384">
        <ele>1039.451</ele>
        <time>2021-03-14T06:28:52Z</time>
      </trkpt>
      <trkpt lat="45.22769" lon="5.73845">
        <ele>1040.411</ele>
        <time>2021-03-14T06:29:01Z</time>
      </trkpt>
      <trkpt lat="45.22771" lon="5.73848">
        <ele>1040.505</ele>
        <time>2021-03-14T06:29:03Z</time>
      </trkpt>
      <trkpt lat="45.22786" lon="5.73852">
        <ele>1038.984</ele>
        <time>2021-03-14T06:29:10Z</time>
      </trkpt>
      <trkpt lat="45.2279" lon="5.73854">
        <ele>1039.097</ele>
        <time>2021-03-14T06:29:12Z</time>
      </trkpt>
      <trkpt lat="45.22802" lon="5.73862">
        <ele>1038.088</ele>
        <time>2021-03-14T06:29:18Z</time>
      </trkpt>
      <trkpt lat="45.22805" lon="5.73865">
        <ele>1037.305</ele>
        <time>2021-03-14T06:29:20Z</time>
      </trkpt>
      <trkpt lat="45.22815" lon="5.7387">
        <ele>1036.642</ele>
        <time>2021-03-14T06:29:25Z</time>
      </trkpt>
      <trkpt lat="45.22821" lon="5.73872">
        <ele>1036.063</ele>
        <time>2021-03-14T06:29:28Z</time>
      </trkpt>
      <trkpt lat="45.22829" lon="5.73879">
        <ele>1034.496</ele>
        <time>2021-03-14T06:29:32Z</time>
      </trkpt>
      <trkpt lat="45.22838" lon="5.73881">
        <ele>1034.53</ele>
        <time>2021-03-14T06:29:37Z</time>
      </trkpt>
      <trkpt lat="45.2284" lon="5.73881">
        <ele>1034.376</ele>
        <time>2021-03-14T06:29:38Z</time>
      </trkpt>
      <trkpt lat="45.22856" lon="5.73883">
        <ele>1033.993</ele>
        <time>2021-03-14T06:29:44Z</time>
      </trkpt>
      <trkpt lat="45.22865" lon="5.73883">
        <ele>1032.628</ele>
        <time>2021-03-14T06:29:48Z</time>
      </trkpt>
      <trkpt lat="45.2288" lon="5.73873">
        <ele>1031.832</ele>
        <time>2021-03-14T06:29:55Z</time>
      </trkpt>
      <trkpt lat="45.2289" lon="5.73874">
        <ele>1031.96</ele>
        <time>2021-03-14T06:30:00Z</time>
      </trkpt>
      <trkpt lat="45.22902" lon="5.73868">
        <ele>1031.529</ele>
        <time>2021-03-14T06:30:08Z</time>
      </trkpt>
      <trkpt lat="45.2291" lon="5.73868">
        <ele>1030.43</ele>
        <time>2021-03-14T06:30:15Z</time>
      </trkpt>
      <trkpt lat="45.22931" lon="5.73869">
        <ele>1028.888</ele>
        <time>2021-03-14T06:30:24Z</time>
      </trkpt>
      <trkpt lat="45.22938" lon="5.73873">
        <ele>1028.362</ele>
        <time>2021-03-14T06:30:27Z</time>
      </trkpt>
      <trkpt lat="45.22942" lon="5.73879">
        <ele>1028.022</ele>
        <time>2021-03-14T06:30:34Z</time>
      </trkpt>
      <trkpt lat="45.22942" lon="5.73877">
        <ele>1028.108</ele>
        <time>2021-03-14T06:30:46Z</time>
      </trkpt>
      <trkpt lat="45.22942" lon="5.73881">
        <ele>1026.96</ele>
        <time>2021-03-14T06:30:57Z</time>
      </trkpt>
      <trkpt lat="45.22945" lon="5.73905">
        <ele>1024.199</ele>
        <time>2021-03-14T06:31:06Z</time>
      </trkpt>
      <trkpt lat="45.2295" lon="5.73927">
        <ele>1022.357</ele>
        <time>2021-03-14T06:31:13Z</time>
      </trkpt>
      <trkpt lat="45.22958" lon="5.73946">
        <ele>1022.551</ele>
        <time>2021-03-14T06:31:19Z</time>
      </trkpt>
      <trkpt lat="45.2297" lon="5.73961">
        <ele>1022.568</ele>
        <time>2021-03-14T06:31:25Z</time>
      </trkpt>
      <trkpt lat="45.22984" lon="5.73968">
        <ele>1023.124</ele>
        <time>2021-03-14T06:31:31Z</time>
      </trkpt>
      <trkpt lat="45.22992" lon="5.73969">
        <ele>1024.442</ele>
        <time>2021-03-14T06:31:34Z</time>
      </trkpt>
      <trkpt lat="45.23013" lon="5.73974">
        <ele>1024.887</ele>
        <time>2021-03-14T06:31:43Z</time>
      </trkpt>
      <trkpt lat="45.23029" lon="5.73978">
        <ele>1024.896</ele>
        <time>2021-03-14T06:31:49Z</time>
      </trkpt>
      <trkpt lat="45.23041" lon="5.7398">
        <ele>1025.148</ele>
        <time>2021-03-14T06:31:55Z</time>
      </trkpt>
      <trkpt lat="45.23052" lon="5.7397">
        <ele>1025.69</ele>
        <time>2021-03-14T06:32:02Z</time>
      </trkpt>
      <trkpt lat="45.2306" lon="5.73965">
        <ele>1026.209</ele>
        <time>2021-03-14T06:32:06Z</time>
      </trkpt>
      <trkpt lat="45.23072" lon="5.73965">
        <ele>1027.449</ele>
        <time>2021-03-14T06:32:12Z</time>
      </trkpt>
      <trkpt lat="45.23077" lon="5.73967">
        <ele>1028.282</ele>
        <time>2021-03-14T06:32:14Z</time>
      </trkpt>
      <trkpt lat="45.23086" lon="5.73969">
        <ele>1030.688</ele>
        <time>2021-03-14T06:32:19Z</time>
      </trkpt>
      <trkpt lat="45.23093" lon="5.7398">
        <ele>1032.302</ele>
        <time>2021-03-14T06:32:27Z</time>
      </trkpt>
      <trkpt lat="45.23095" lon="5.7398">
        <ele>1031.696</ele>
        <time>2021-03-14T06:32:30Z</time>
      </trkpt>
      <trkpt lat="45.23106" lon="5.73978">
        <ele>1032.425</ele>
        <time>2021-03-14T06:32:37Z</time>
      </trkpt>
      <trkpt lat="45.2312" lon="5.73982">
        <ele>1032.675</ele>
        <time>2021-03-14T06:32:43Z</time>
      </trkpt>
      <trkpt lat="45.23124" lon="5.73982">
        <ele>1032.764</ele>
        <time>2021-03-14T06:32:45Z</time>
      </trkpt>
      <trkpt lat="45.23132" lon="5.73981">
        <ele>1033.021</ele>
        <time>2021-03-14T06:32:50Z</time>
      </trkpt>
      <trkpt lat="45.23149" lon="5.73986">
        <ele>1033.573</ele>
        <time>2021-03-14T06:32:57Z</time>
      </trkpt>
      <trkpt lat="45.23154" lon="5.73987">
        <ele>1033.861</ele>
        <time>2021-03-14T06:32:59Z</time>
      </trkpt>
      <trkpt lat="45.23165" lon="5.73993">
        <ele>1033.628</ele>
        <time>2021-03-14T06:33:05Z</time>
      </trkpt>
      <trkpt lat="45.23175" lon="5.73999">
        <ele>1032.638</ele>
        <time>2021-03-14T06:33:10Z</time>
      </trkpt>
      <trkpt lat="45.23188" lon="5.74002">
        <ele>1031.428</ele>
        <time>2021-03-14T06:33:16Z</time>
      </trkpt>
      <trkpt lat="45.23193" lon="5.74004">
        <ele>1030.319</ele>
        <time>2021-03-14T06:33:18Z</time>
      </trkpt>
      <trkpt lat="45.23206" lon="5.74016">
        <ele>1028.91</ele>
        <time>2021-03-14T06:33:25Z</time>
      </trkpt>
      <trkpt lat="45.23211" lon="5.74023">
        <ele>1028.867</ele>
        <time>2021-03-14T06:33:28Z</time>
      </trkpt>
      <trkpt lat="45.23224" lon="5.74031">
        <ele>1028.638</ele>
        <time>2021-03-14T06:33:34Z</time>
      </trkpt>
      <trkpt lat="45.23231" lon="5.74044">
        <ele>1029.285</ele>
        <time>2021-03-14T06:33:40Z</time>
      </trkpt>
      <trkpt lat="45.2323" lon="5.74048">
        <ele>1030.457</ele>
        <time>2021-03-14T06:33:42Z</time>
      </trkpt>
      <trkpt lat="45.23227" lon="5.74052">
        <ele>1030.659</ele>
        <time>2021-03-14T06:33:44Z</time>
      </trkpt>
      <trkpt lat="45.23224" lon="5.74065">
        <ele>1033.208</ele>
        <time>2021-03-14T06:33:49Z</time>
      </trkpt>
      <trkpt lat="45.23226" lon="5.74076">
        <ele>1033.223</ele>
        <time>2021-03-14T06:33:54Z</time>
      </trkpt>
      <trkpt lat="45.23222" lon="5.74097">
        <ele>1033.895</ele>
        <time>2021-03-14T06:34:01Z</time>
      </trkpt>
      <trkpt lat="45.23224" lon="5.74111">
        <ele>1033.344</ele>
        <time>2021-03-14T06:34:06Z</time>
      </trkpt>
      <trkpt lat="45.23233" lon="5.7413">
        <ele>1030.476</ele>
        <time>2021-03-14T06:34:14Z</time>
      </trkpt>
      <trkpt lat="45.23241" lon="5.74136">
        <ele>1030.622</ele>
        <time>2021-03-14T06:34:18Z</time>
      </trkpt>
      <trkpt lat="45.23251" lon="5.74142">
        <ele>1031.112</ele>
        <time>2021-03-14T06:34:23Z</time>
      </trkpt>
      <trkpt lat="45.23263" lon="5.74144">
        <ele>1032.331</ele>
        <time>2021-03-14T06:34:28Z</time>
      </trkpt>
      <trkpt lat="45.2327" lon="5.7415">
        <ele>1032.204</ele>
        <time>2021-03-14T06:34:31Z</time>
      </trkpt>
      <trkpt lat="45.23275" lon="5.74158">
        <ele>1031.487</ele>
        <time>2021-03-14T06:34:35Z</time>
      </trkpt>
      <trkpt lat="45.23283" lon="5.7418">
        <ele>1030.494</ele>
        <time>2021-03-14T06:34:42Z</time>
      </trkpt>
      <trkpt lat="45.23297" lon="5.7419">
        <ele>1029.943</ele>
        <time>2021-03-14T06:34:49Z</time>
      </trkpt>
      <trkpt lat="45.23317" lon="5.74198">
        <ele>1028.93</ele>
        <time>2021-03-14T06:34:55Z</time>
      </trkpt>
      <trkpt lat="45.23328" lon="5.74203">
        <ele>1028.91</ele>
        <time>2021-03-14T06:35:00Z</time>
      </trkpt>
      <trkpt lat="45.23341" lon="5.7421">
        <ele>1029.953</ele>
        <time>2021-03-14T06:35:07Z</time>
      </trkpt>
      <trkpt lat="45.23348" lon="5.74218">
        <ele>1029.527</ele>
        <time>2021-03-14T06:35:11Z</time>
      </trkpt>
      <trkpt lat="45.23363" lon="5.74226">
        <ele>1029.992</ele>
        <time>2021-03-14T06:35:18Z</time>
      </trkpt>
      <trkpt lat="45.23365" lon="5.74228">
        <ele>1029.584</ele>
        <time>2021-03-14T06:35:19Z</time>
      </trkpt>
      <trkpt lat="45.23381" lon="5.74245">
        <ele>1027.468</ele>
        <time>2021-03-14T06:35:28Z</time>
      </trkpt>
      <trkpt lat="45.23387" lon="5.74256">
        <ele>1026.749</ele>
        <time>2021-03-14T06:35:34Z</time>
      </trkpt>
      <trkpt lat="45.23386" lon="5.74257">
        <ele>1026.666</ele>
        <time>2021-03-14T06:35:35Z</time>
      </trkpt>
      <trkpt lat="45.23384" lon="5.74272">
        <ele>1025.556</ele>
        <time>2021-03-14T06:35:42Z</time>
      </trkpt>
      <trkpt lat="45.2338" lon="5.7429">
        <ele>1022.142</ele>
        <time>2021-03-14T06:35:49Z</time>
      </trkpt>
      <trkpt lat="45.23377" lon="5.74296">
        <ele>1022.16</ele>
        <time>2021-03-14T06:35:53Z</time>
      </trkpt>
      <trkpt lat="45.23374" lon="5.74317">
        <ele>1020.341</ele>
        <time>2021-03-14T06:35:59Z</time>
      </trkpt>
      <trkpt lat="45.23375" lon="5.74334">
        <ele>1019.769</ele>
        <time>2021-03-14T06:36:04Z</time>
      </trkpt>
      <trkpt lat="45.23377" lon="5.74337">
        <ele>1019.685</ele>
        <time>2021-03-14T06:36:05Z</time>
      </trkpt>
      <trkpt lat="45.23387" lon="5.74358">
        <ele>1017.386</ele>
        <time>2021-03-14T06:36:13Z</time>
      </trkpt>
      <trkpt lat="45.23399" lon="5.74363">
        <ele>1017.796</ele>
        <time>2021-03-14T06:36:18Z</time>
      </trkpt>
      <trkpt lat="45.23416" lon="5.7437">
        <ele>1018.901</ele>
        <time>2021-03-14T06:36:24Z</time>
      </trkpt>
      <trkpt lat="45.23431" lon="5.74382">
        <ele>1019.867</ele>
        <time>2021-03-14T06:36:30Z</time>
      </trkpt>
      <trkpt lat="45.23449" lon="5.74395">
        <ele>1020.453</ele>
        <time>2021-03-14T06:36:37Z</time>
      </trkpt>
      <trkpt lat="45.23465" lon="5.74407">
        <ele>1021.271</ele>
        <time>2021-03-14T06:36:44Z</time>
      </trkpt>
      <trkpt lat="45.23473" lon="5.74418">
        <ele>1022.021</ele>
        <time>2021-03-14T06:36:50Z</time>
      </trkpt>
      <trkpt lat="45.23478" lon="5.74423">
        <ele>1021.641</ele>
        <time>2021-03-14T06:36:53Z</time>
      </trkpt>
      <trkpt lat="45.23487" lon="5.74433">
        <ele>1021.598</ele>
        <time>2021-03-14T06:36:59Z</time>
      </trkpt>
      <trkpt lat="45.23495" lon="5.74445">
        <ele>1021.563</ele>
        <time>2021-03-14T06:37:05Z</time>
      </trkpt>
      <trkpt lat="45.23506" lon="5.74461">
        <ele>1019.001</ele>
        <time>2021-03-14T06:37:12Z</time>
      </trkpt>
      <trkpt lat="45.23508" lon="5.74463">
        <ele>1018.865</ele>
        <time>2021-03-14T06:37:13Z</time>
      </trkpt>
      <trkpt lat="45.23517" lon="5.74476">
        <ele>1017.555</ele>
        <time>2021-03-14T06:37:19Z</time>
      </trkpt>
      <trkpt lat="45.2352" lon="5.74482">
        <ele>1017.404</ele>
        <time>2021-03-14T06:37:21Z</time>
      </trkpt>
      <trkpt lat="45.23518" lon="5.7449">
        <ele>1017.454</ele>
        <time>2021-03-14T06:37:28Z</time>
      </trkpt>
      <trkpt lat="45.23513" lon="5.74497">
        <ele>1016.281</ele>
        <time>2021-03-14T06:37:34Z</time>
      </trkpt>
      <trkpt lat="45.23519" lon="5.74511">
        <ele>1017.29</ele>
        <time>2021-03-14T06:37:57Z</time>
      </trkpt>
      <trkpt lat="45.23516" lon="5.74511">
        <ele>1016.804</ele>
        <time>2021-03-14T06:38:10Z</time>
      </trkpt>
      <trkpt lat="45.23511" lon="5.74524">
        <ele>1015.211</ele>
        <time>2021-03-14T06:38:17Z</time>
      </trkpt>
      <trkpt lat="45.23506" lon="5.74539">
        <ele>1014.234</ele>
        <time>2021-03-14T06:38:24Z</time>
      </trkpt>
      <trkpt lat="45.23501" lon="5.74557">
        <ele>1012.929</ele>
        <time>2021-03-14T06:38:30Z</time>
      </trkpt>
      <trkpt lat="45.23503" lon="5.74566">
        <ele>1012.346</ele>
        <time>2021-03-14T06:38:36Z</time>
      </trkpt>
      <trkpt lat="45.23504" lon="5.74575">
        <ele>1012.113</ele>
        <time>2021-03-14T06:38:42Z</time>
      </trkpt>
      <trkpt lat="45.23501" lon="5.7458">
        <ele>1011.813</ele>
        <time>2021-03-14T06:38:50Z</time>
      </trkpt>
      <trkpt lat="45.23505" lon="5.74573">
        <ele>1012.313</ele>
        <time>2021-03-14T06:38:58Z</time>
      </trkpt>
      <trkpt lat="45.23506" lon="5.74557">
        <ele>1013.642</ele>
        <time>2021-03-14T06:39:05Z</time>
      </trkpt>
      <trkpt lat="45.23506" lon="5.74545">
        <ele>1013.94</ele>
        <time>2021-03-14T06:39:10Z</time>
      </trkpt>
      <trkpt lat="45.23508" lon="5.74528">
        <ele>1014.558</ele>
        <time>2021-03-14T06:39:17Z</time>
      </trkpt>
      <trkpt lat="45.23512" lon="5.74517">
        <ele>1014.48</ele>
        <time>2021-03-14T06:39:26Z</time>
      </trkpt>
      <trkpt lat="45.23508" lon="5.74518">
        <ele>1014.875</ele>
        <time>2021-03-14T06:39:35Z</time>
      </trkpt>
      <trkpt lat="45.23508" lon="5.74515">
        <ele>1014.49</ele>
        <time>2021-03-14T06:39:39Z</time>
      </trkpt>
      <trkpt lat="45.23509" lon="5.74504">
        <ele>1015.75</ele>
        <time>2021-03-14T06:39:44Z</time>
      </trkpt>
      <trkpt lat="45.23511" lon="5.74491">
        <ele>1016.119</ele>
        <time>2021-03-14T06:39:50Z</time>
      </trkpt>
      <trkpt lat="45.23508" lon="5.74476">
        <ele>1017.337</ele>
        <time>2021-03-14T06:39:58Z</time>
      </trkpt>
      <trkpt lat="45.23507" lon="5.74473">
        <ele>1017.819</ele>
        <time>2021-03-14T06:40:00Z</time>
      </trkpt>
      <trkpt lat="45.23501" lon="5.74467">
        <ele>1019.257</ele>
        <time>2021-03-14T06:40:04Z</time>
      </trkpt>
      <trkpt lat="45.23491" lon="5.74454">
        <ele>1020.888</ele>
        <time>2021-03-14T06:40:11Z</time>
      </trkpt>
      <trkpt lat="45.2349" lon="5.74452">
        <ele>1020.194</ele>
        <time>2021-03-14T06:40:12Z</time>
      </trkpt>
      <trkpt lat="45.23481" lon="5.74443">
        <ele>1020.906</ele>
        <time>2021-03-14T06:40:18Z</time>
      </trkpt>
      <trkpt lat="45.23473" lon="5.7443">
        <ele>1020.905</ele>
        <time>2021-03-14T06:40:23Z</time>
      </trkpt>
      <trkpt lat="45.23458" lon="5.74417">
        <ele>1021.185</ele>
        <time>2021-03-14T06:40:29Z</time>
      </trkpt>
      <trkpt lat="45.23445" lon="5.74407">
        <ele>1020.289</ele>
        <time>2021-03-14T06:40:35Z</time>
      </trkpt>
      <trkpt lat="45.23431" lon="5.74394">
        <ele>1019.564</ele>
        <time>2021-03-14T06:40:42Z</time>
      </trkpt>
      <trkpt lat="45.23422" lon="5.74384">
        <ele>1019.57</ele>
        <time>2021-03-14T06:40:47Z</time>
      </trkpt>
      <trkpt lat="45.23411" lon="5.74373">
        <ele>1018.194</ele>
        <time>2021-03-14T06:40:53Z</time>
      </trkpt>
      <trkpt lat="45.23395" lon="5.7437">
        <ele>1016.946</ele>
        <time>2021-03-14T06:41:00Z</time>
      </trkpt>
      <trkpt lat="45.23382" lon="5.74374">
        <ele>1015.727</ele>
        <time>2021-03-14T06:41:06Z</time>
      </trkpt>
      <trkpt lat="45.23368" lon="5.74372">
        <ele>1014.004</ele>
        <time>2021-03-14T06:41:13Z</time>
      </trkpt>
      <trkpt lat="45.23349" lon="5.74373">
        <ele>1012.042</ele>
        <time>2021-03-14T06:41:21Z</time>
      </trkpt>
      <trkpt lat="45.23335" lon="5.74374">
        <ele>1010.597</ele>
        <time>2021-03-14T06:41:27Z</time>
      </trkpt>
      <trkpt lat="45.23321" lon="5.74369">
        <ele>1009.007</ele>
        <time>2021-03-14T06:41:33Z</time>
      </trkpt>
      <trkpt lat="45.23316" lon="5.74367">
        <ele>1008.318</ele>
        <time>2021-03-14T06:41:35Z</time>
      </trkpt>
      <trkpt lat="45.23313" lon="5.74366">
        <ele>1007.768</ele>
        <time>2021-03-14T06:41:36Z</time>
      </trkpt>
      <trkpt lat="45.23305" lon="5.74357">
        <ele>1006.152</ele>
        <time>2021-03-14T06:41:42Z</time>
      </trkpt>
      <trkpt lat="45.23292" lon="5.74348">
        <ele>1004.983</ele>
        <time>2021-03-14T06:41:48Z</time>
      </trkpt>
      <trkpt lat="45.23283" lon="5.74341">
        <ele>1003.211</ele>
        <time>2021-03-14T06:41:53Z</time>
      </trkpt>
      <trkpt lat="45.2327" lon="5.7433">
        <ele>1002.097</ele>
        <time>2021-03-14T06:41:59Z</time>
      </trkpt>
      <trkpt lat="45.2326" lon="5.74322">
        <ele>1000.555</ele>
        <time>2021-03-14T06:42:05Z</time>
      </trkpt>
      <trkpt lat="45.23246" lon="5.74312">
        <ele>998.863</ele>
        <time>2021-03-14T06:42:11Z</time>
      </trkpt>
      <trkpt lat="45.23245" lon="5.74312">
        <ele>998.472</ele>
        <time>2021-03-14T06:42:12Z</time>
      </trkpt>
      <trkpt lat="45.23227" lon="5.74307">
        <ele>996.163</ele>
        <time>2021-03-14T06:42:19Z</time>
      </trkpt>
      <trkpt lat="45.23212" lon="5.74301">
        <ele>995.392</ele>
        <time>2021-03-14T06:42:26Z</time>
      </trkpt>
      <trkpt lat="45.23198" lon="5.74298">
        <ele>993.456</ele>
        <time>2021-03-14T06:42:33Z</time>
      </trkpt>
      <trkpt lat="45.23193" lon="5.74294">
        <ele>992.13</ele>
        <time>2021-03-14T06:42:36Z</time>
      </trkpt>
      <trkpt lat="45.23179" lon="5.74288">
        <ele>990.205</ele>
        <time>2021-03-14T06:42:42Z</time>
      </trkpt>
      <trkpt lat="45.23159" lon="5.74286">
        <ele>989.109</ele>
        <time>2021-03-14T06:42:49Z</time>
      </trkpt>
      <trkpt lat="45.23156" lon="5.74284">
        <ele>988.835</ele>
        <time>2021-03-14T06:42:51Z</time>
      </trkpt>
      <trkpt lat="45.23142" lon="5.74279">
        <ele>986.534</ele>
        <time>2021-03-14T06:42:57Z</time>
      </trkpt>
      <trkpt lat="45.23128" lon="5.74274">
        <ele>984.284</ele>
        <time>2021-03-14T06:43:03Z</time>
      </trkpt>
      <trkpt lat="45.23124" lon="5.74274">
        <ele>983.142</ele>
        <time>2021-03-14T06:43:05Z</time>
      </trkpt>
      <trkpt lat="45.2311" lon="5.74272">
        <ele>981.298</ele>
        <time>2021-03-14T06:43:12Z</time>
      </trkpt>
      <trkpt lat="45.23096" lon="5.74266">
        <ele>979.368</ele>
        <time>2021-03-14T06:43:19Z</time>
      </trkpt>
      <trkpt lat="45.23082" lon="5.74259">
        <ele>977.358</ele>
        <time>2021-03-14T06:43:26Z</time>
      </trkpt>
      <trkpt lat="45.23076" lon="5.74254">
        <ele>977.014</ele>
        <time>2021-03-14T06:43:29Z</time>
      </trkpt>
      <trkpt lat="45.23059" lon="5.74245">
        <ele>974.844</ele>
        <time>2021-03-14T06:43:36Z</time>
      </trkpt>
      <trkpt lat="45.23048" lon="5.74241">
        <ele>973.986</ele>
        <time>2021-03-14T06:43:41Z</time>
      </trkpt>
      <trkpt lat="45.23031" lon="5.74237">
        <ele>972.096</ele>
        <time>2021-03-14T06:43:48Z</time>
      </trkpt>
      <trkpt lat="45.23021" lon="5.74234">
        <ele>971.529</ele>
        <time>2021-03-14T06:43:53Z</time>
      </trkpt>
      <trkpt lat="45.23014" lon="5.74231">
        <ele>970.588</ele>
        <time>2021-03-14T06:43:57Z</time>
      </trkpt>
      <trkpt lat="45.22997" lon="5.74225">
        <ele>967.765</ele>
        <time>2021-03-14T06:44:05Z</time>
      </trkpt>
      <trkpt lat="45.2299" lon="5.74223">
        <ele>966.714</ele>
        <time>2021-03-14T06:44:08Z</time>
      </trkpt>
      <trkpt lat="45.22974" lon="5.74216">
        <ele>964.08</ele>
        <time>2021-03-14T06:44:15Z</time>
      </trkpt>
      <trkpt lat="45.22959" lon="5.7421">
        <ele>962.558</ele>
        <time>2021-03-14T06:44:21Z</time>
      </trkpt>
      <trkpt lat="45.22941" lon="5.742">
        <ele>961.139</ele>
        <time>2021-03-14T06:44:29Z</time>
      </trkpt>
      <trkpt lat="45.22925" lon="5.74189">
        <ele>959.404</ele>
        <time>2021-03-14T06:44:37Z</time>
      </trkpt>
      <trkpt lat="45.2291" lon="5.74183">
        <ele>957.795</ele>
        <time>2021-03-14T06:44:44Z</time>
      </trkpt>
      <trkpt lat="45.22902" lon="5.7418">
        <ele>956.274</ele>
        <time>2021-03-14T06:44:48Z</time>
      </trkpt>
      <trkpt lat="45.22889" lon="5.74174">
        <ele>955.003</ele>
        <time>2021-03-14T06:44:54Z</time>
      </trkpt>
      <trkpt lat="45.22878" lon="5.74169">
        <ele>953.532</ele>
        <time>2021-03-14T06:44:59Z</time>
      </trkpt>
      <trkpt lat="45.22861" lon="5.74161">
        <ele>951.319</ele>
        <time>2021-03-14T06:45:06Z</time>
      </trkpt>
      <trkpt lat="45.22858" lon="5.7416">
        <ele>951.197</ele>
        <time>2021-03-14T06:45:07Z</time>
      </trkpt>
      <trkpt lat="45.22845" lon="5.74158">
        <ele>949.005</ele>
        <time>2021-03-14T06:45:12Z</time>
      </trkpt>
      <trkpt lat="45.22831" lon="5.74153">
        <ele>947.115</ele>
        <time>2021-03-14T06:45:19Z</time>
      </trkpt>
      <trkpt lat="45.2282" lon="5.7415">
        <ele>946.303</ele>
        <time>2021-03-14T06:45:23Z</time>
      </trkpt>
      <trkpt lat="45.22802" lon="5.74146">
        <ele>945.612</ele>
        <time>2021-03-14T06:45:31Z</time>
      </trkpt>
      <trkpt lat="45.22796" lon="5.74145">
        <ele>944.641</ele>
        <time>2021-03-14T06:45:34Z</time>
      </trkpt>
      <trkpt lat="45.22788" lon="5.74137">
        <ele>944.243</ele>
        <time>2021-03-14T06:45:38Z</time>
      </trkpt>
      <trkpt lat="45.22776" lon="5.74129">
        <ele>942.547</ele>
        <time>2021-03-14T06:45:44Z</time>
      </trkpt>
      <trkpt lat="45.22762" lon="5.74119">
        <ele>940.671</ele>
        <time>2021-03-14T06:45:51Z</time>
      </trkpt>
      <trkpt lat="45.22756" lon="5.74117">
        <ele>939.034</ele>
        <time>2021-03-14T06:45:54Z</time>
      </trkpt>
      <trkpt lat="45.2274" lon="5.74108">
        <ele>937.298</ele>
        <time>2021-03-14T06:46:01Z</time>
      </trkpt>
      <trkpt lat="45.22725" lon="5.74105">
        <ele>936.461</ele>
        <time>2021-03-14T06:46:07Z</time>
      </trkpt>
      <trkpt lat="45.22709" lon="5.74102">
        <ele>934.855</ele>
        <time>2021-03-14T06:46:14Z</time>
      </trkpt>
      <trkpt lat="45.22696" lon="5.74102">
        <ele>933.041</ele>
        <time>2021-03-14T06:46:20Z</time>
      </trkpt>
      <trkpt lat="45.22676" lon="5.74101">
        <ele>930.234</ele>
        <time>2021-03-14T06:46:27Z</time>
      </trkpt>
      <trkpt lat="45.22661" lon="5.74099">
        <ele>928.958</ele>
        <time>2021-03-14T06:46:33Z</time>
      </trkpt>
      <trkpt lat="45.22644" lon="5.74095">
        <ele>927.711</ele>
        <time>2021-03-14T06:46:39Z</time>
      </trkpt>
      <trkpt lat="45.2264" lon="5.74095">
        <ele>927.28</ele>
        <time>2021-03-14T06:46:41Z</time>
      </trkpt>
      <trkpt lat="45.22618" lon="5.7409">
        <ele>923.918</ele>
        <time>2021-03-14T06:46:50Z</time>
      </trkpt>
      <trkpt lat="45.22601" lon="5.7409">
        <ele>921.512</ele>
        <time>2021-03-14T06:46:57Z</time>
      </trkpt>
      <trkpt lat="45.22586" lon="5.74089">
        <ele>921.285</ele>
        <time>2021-03-14T06:47:03Z</time>
      </trkpt>
      <trkpt lat="45.22585" lon="5.74089">
        <ele>921.286</ele>
        <time>2021-03-14T06:47:04Z</time>
      </trkpt>
      <trkpt lat="45.22568" lon="5.74095">
        <ele>919.9</ele>
        <time>2021-03-14T06:47:11Z</time>
      </trkpt>
      <trkpt lat="45.22551" lon="5.74104">
        <ele>917.715</ele>
        <time>2021-03-14T06:47:18Z</time>
      </trkpt>
      <trkpt lat="45.22539" lon="5.74109">
        <ele>916.567</ele>
        <time>2021-03-14T06:47:23Z</time>
      </trkpt>
      <trkpt lat="45.22522" lon="5.74111">
        <ele>914.758</ele>
        <time>2021-03-14T06:47:30Z</time>
      </trkpt>
      <trkpt lat="45.22512" lon="5.74109">
        <ele>913.337</ele>
        <time>2021-03-14T06:47:35Z</time>
      </trkpt>
      <trkpt lat="45.22507" lon="5.74106">
        <ele>912.876</ele>
        <time>2021-03-14T06:47:38Z</time>
      </trkpt>
      <trkpt lat="45.22492" lon="5.74107">
        <ele>910.596</ele>
        <time>2021-03-14T06:47:45Z</time>
      </trkpt>
      <trkpt lat="45.22481" lon="5.74108">
        <ele>909.127</ele>
        <time>2021-03-14T06:47:49Z</time>
      </trkpt>
      <trkpt lat="45.22464" lon="5.74103">
        <ele>907.714</ele>
        <time>2021-03-14T06:47:55Z</time>
      </trkpt>
      <trkpt lat="45.2245" lon="5.74096">
        <ele>906.336</ele>
        <time>2021-03-14T06:48:01Z</time>
      </trkpt>
      <trkpt lat="45.22438" lon="5.74088">
        <ele>904.509</ele>
        <time>2021-03-14T06:48:07Z</time>
      </trkpt>
      <trkpt lat="45.22421" lon="5.74078">
        <ele>902.185</ele>
        <time>2021-03-14T06:48:15Z</time>
      </trkpt>
      <trkpt lat="45.2241" lon="5.74069">
        <ele>901.114</ele>
        <time>2021-03-14T06:48:20Z</time>
      </trkpt>
      <trkpt lat="45.22397" lon="5.74065">
        <ele>899.821</ele>
        <time>2021-03-14T06:48:25Z</time>
      </trkpt>
      <trkpt lat="45.22395" lon="5.74074">
        <ele>898.792</ele>
        <time>2021-03-14T06:48:29Z</time>
      </trkpt>
      <trkpt lat="45.22404" lon="5.74085">
        <ele>897.737</ele>
        <time>2021-03-14T06:48:34Z</time>
      </trkpt>
      <trkpt lat="45.22417" lon="5.74105">
        <ele>895.204</ele>
        <time>2021-03-14T06:48:42Z</time>
      </trkpt>
      <trkpt lat="45.22425" lon="5.74122">
        <ele>894.085</ele>
        <time>2021-03-14T06:48:48Z</time>
      </trkpt>
      <trkpt lat="45.22435" lon="5.74138">
        <ele>892.589</ele>
        <time>2021-03-14T06:48:54Z</time>
      </trkpt>
      <trkpt lat="45.2245" lon="5.74154">
        <ele>889.817</ele>
        <time>2021-03-14T06:49:02Z</time>
      </trkpt>
      <trkpt lat="45.22462" lon="5.7417">
        <ele>887.621</ele>
        <time>2021-03-14T06:49:09Z</time>
      </trkpt>
      <trkpt lat="45.22469" lon="5.7418">
        <ele>885.819</ele>
        <time>2021-03-14T06:49:13Z</time>
      </trkpt>
      <trkpt lat="45.22476" lon="5.74192">
        <ele>885.189</ele>
        <time>2021-03-14T06:49:18Z</time>
      </trkpt>
      <trkpt lat="45.22488" lon="5.74205">
        <ele>883.878</ele>
        <time>2021-03-14T06:49:24Z</time>
      </trkpt>
      <trkpt lat="45.22502" lon="5.74213">
        <ele>881.729</ele>
        <time>2021-03-14T06:49:31Z</time>
      </trkpt>
      <trkpt lat="45.22508" lon="5.74216">
        <ele>880.403</ele>
        <time>2021-03-14T06:49:37Z</time>
      </trkpt>
      <trkpt lat="45.22506" lon="5.74213">
        <ele>881.935</ele>
        <time>2021-03-14T06:49:40Z</time>
      </trkpt>
      <trkpt lat="45.22496" lon="5.74212">
        <ele>882.289</ele>
        <time>2021-03-14T06:49:45Z</time>
      </trkpt>
      <trkpt lat="45.22485" lon="5.74206">
        <ele>883.523</ele>
        <time>2021-03-14T06:49:51Z</time>
      </trkpt>
      <trkpt lat="45.22478" lon="5.74199">
        <ele>884.519</ele>
        <time>2021-03-14T06:49:56Z</time>
      </trkpt>
      <trkpt lat="45.22467" lon="5.74187">
        <ele>885.845</ele>
        <time>2021-03-14T06:50:02Z</time>
      </trkpt>
      <trkpt lat="45.22456" lon="5.74173">
        <ele>887.244</ele>
        <time>2021-03-14T06:50:09Z</time>
      </trkpt>
      <trkpt lat="45.22452" lon="5.74167">
        <ele>887.757</ele>
        <time>2021-03-14T06:50:13Z</time>
      </trkpt>
      <trkpt lat="45.22442" lon="5.74154">
        <ele>889.636</ele>
        <time>2021-03-14T06:50:21Z</time>
      </trkpt>
      <trkpt lat="45.22434" lon="5.74142">
        <ele>889.948</ele>
        <time>2021-03-14T06:50:27Z</time>
      </trkpt>
      <trkpt lat="45.22425" lon="5.74129">
        <ele>892.289</ele>
        <time>2021-03-14T06:50:34Z</time>
      </trkpt>
      <trkpt lat="45.22419" lon="5.74118">
        <ele>894.221</ele>
        <time>2021-03-14T06:50:39Z</time>
      </trkpt>
      <trkpt lat="45.22415" lon="5.74108">
        <ele>895.998</ele>
        <time>2021-03-14T06:50:45Z</time>
      </trkpt>
      <trkpt lat="45.22409" lon="5.74099">
        <ele>896.618</ele>
        <time>2021-03-14T06:50:50Z</time>
      </trkpt>
      <trkpt lat="45.22403" lon="5.74091">
        <ele>897.35</ele>
        <time>2021-03-14T06:50:55Z</time>
      </trkpt>
      <trkpt lat="45.22393" lon="5.74081">
        <ele>898.133</ele>
        <time>2021-03-14T06:51:03Z</time>
      </trkpt>
      <trkpt lat="45.22385" lon="5.74072">
        <ele>898.809</ele>
        <time>2021-03-14T06:51:08Z</time>
      </trkpt>
      <trkpt lat="45.22384" lon="5.7407">
        <ele>898.82</ele>
        <time>2021-03-14T06:51:09Z</time>
      </trkpt>
      <trkpt lat="45.2238" lon="5.74066">
        <ele>898.757</ele>
        <time>2021-03-14T06:51:12Z</time>
      </trkpt>
      <trkpt lat="45.22367" lon="5.74049">
        <ele>899.894</ele>
        <time>2021-03-14T06:51:20Z</time>
      </trkpt>
      <trkpt lat="45.22355" lon="5.74036">
        <ele>898.898</ele>
        <time>2021-03-14T06:51:28Z</time>
      </trkpt>
      <trkpt lat="45.22344" lon="5.74028">
        <ele>898.099</ele>
        <time>2021-03-14T06:51:34Z</time>
      </trkpt>
      <trkpt lat="45.2233" lon="5.74021">
        <ele>897.569</ele>
        <time>2021-03-14T06:51:41Z</time>
      </trkpt>
      <trkpt lat="45.22318" lon="5.74019">
        <ele>895.69</ele>
        <time>2021-03-14T06:51:47Z</time>
      </trkpt>
      <trkpt lat="45.22309" lon="5.74015">
        <ele>895.587</ele>
        <time>2021-03-14T06:51:51Z</time>
      </trkpt>
      <trkpt lat="45.22302" lon="5.74011">
        <ele>894.303</ele>
        <time>2021-03-14T06:51:54Z</time>
      </trkpt>
      <trkpt lat="45.22286" lon="5.74004">
        <ele>891.462</ele>
        <time>2021-03-14T06:52:01Z</time>
      </trkpt>
      <trkpt lat="45.22272" lon="5.73994">
        <ele>889.549</ele>
        <time>2021-03-14T06:52:08Z</time>
      </trkpt>
      <trkpt lat="45.22258" lon="5.73984">
        <ele>888.562</ele>
        <time>2021-03-14T06:52:14Z</time>
      </trkpt>
      <trkpt lat="45.22249" lon="5.73982">
        <ele>887.428</ele>
        <time>2021-03-14T06:52:18Z</time>
      </trkpt>
      <trkpt lat="45.22235" lon="5.73975">
        <ele>887.306</ele>
        <time>2021-03-14T06:52:25Z</time>
      </trkpt>
      <trkpt lat="45.22225" lon="5.73962">
        <ele>886.279</ele>
        <time>2021-03-14T06:52:30Z</time>
      </trkpt>
      <trkpt lat="45.22216" lon="5.73948">
        <ele>885.075</ele>
        <time>2021-03-14T06:52:35Z</time>
      </trkpt>
      <trkpt lat="45.22205" lon="5.73931">
        <ele>882.913</ele>
        <time>2021-03-14T06:52:42Z</time>
      </trkpt>
      <trkpt lat="45.222" lon="5.73929">
        <ele>882.278</ele>
        <time>2021-03-14T06:52:44Z</time>
      </trkpt>
      <trkpt lat="45.22187" lon="5.73921">
        <ele>880.709</ele>
        <time>2021-03-14T06:52:50Z</time>
      </trkpt>
      <trkpt lat="45.22178" lon="5.73913">
        <ele>879.745</ele>
        <time>2021-03-14T06:52:55Z</time>
      </trkpt>
      <trkpt lat="45.22166" lon="5.73908">
        <ele>879.365</ele>
        <time>2021-03-14T06:53:00Z</time>
      </trkpt>
      <trkpt lat="45.22155" lon="5.739">
        <ele>877.979</ele>
        <time>2021-03-14T06:53:06Z</time>
      </trkpt>
      <trkpt lat="45.22153" lon="5.739">
        <ele>878.05</ele>
        <time>2021-03-14T06:53:07Z</time>
      </trkpt>
      <trkpt lat="45.22144" lon="5.73897">
        <ele>876.829</ele>
        <time>2021-03-14T06:53:11Z</time>
      </trkpt>
      <trkpt lat="45.22124" lon="5.73893">
        <ele>874.847</ele>
        <time>2021-03-14T06:53:18Z</time>
      </trkpt>
      <trkpt lat="45.22116" lon="5.73888">
        <ele>874.622</ele>
        <time>2021-03-14T06:53:21Z</time>
      </trkpt>
      <trkpt lat="45.22101" lon="5.73881">
        <ele>871.763</ele>
        <time>2021-03-14T06:53:28Z</time>
      </trkpt>
      <trkpt lat="45.22082" lon="5.73873">
        <ele>870.004</ele>
        <time>2021-03-14T06:53:35Z</time>
      </trkpt>
      <trkpt lat="45.22078" lon="5.73871">
        <ele>869.255</ele>
        <time>2021-03-14T06:53:37Z</time>
      </trkpt>
      <trkpt lat="45.22065" lon="5.73863">
        <ele>870.501</ele>
        <time>2021-03-14T06:53:43Z</time>
      </trkpt>
      <trkpt lat="45.22053" lon="5.73857">
        <ele>871.193</ele>
        <time>2021-03-14T06:53:49Z</time>
      </trkpt>
      <trkpt lat="45.22033" lon="5.73845">
        <ele>873.871</ele>
        <time>2021-03-14T06:53:58Z</time>
      </trkpt>
      <trkpt lat="45.2203" lon="5.73843">
        <ele>873.378</ele>
        <time>2021-03-14T06:53:59Z</time>
      </trkpt>
      <trkpt lat="45.22026" lon="5.73838">
        <ele>874.515</ele>
        <time>2021-03-14T06:54:03Z</time>
      </trkpt>
      <trkpt lat="45.22022" lon="5.73837">
        <ele>875.241</ele>
        <time>2021-03-14T06:54:05Z</time>
      </trkpt>
      <trkpt lat="45.22013" lon="5.73831">
        <ele>875.552</ele>
        <time>2021-03-14T06:54:10Z</time>
      </trkpt>
      <trkpt lat="45.21999" lon="5.73822">
        <ele>877.17</ele>
        <time>2021-03-14T06:54:17Z</time>
      </trkpt>
      <trkpt lat="45.2199" lon="5.73814">
        <ele>879.099</ele>
        <time>2021-03-14T06:54:24Z</time>
      </trkpt>
      <trkpt lat="45.2198" lon="5.73809">
        <ele>880.206</ele>
        <time>2021-03-14T06:54:31Z</time>
      </trkpt>
      <trkpt lat="45.21971" lon="5.73798">
        <ele>881.471</ele>
        <time>2021-03-14T06:54:37Z</time>
      </trkpt>
      <trkpt lat="45.21967" lon="5.7379">
        <ele>882.023</ele>
        <time>2021-03-14T06:54:41Z</time>
      </trkpt>
      <trkpt lat="45.21963" lon="5.73781">
        <ele>883.632</ele>
        <time>2021-03-14T06:54:45Z</time>
      </trkpt>
      <trkpt lat="45.2196" lon="5.73767">
        <ele>884.04</ele>
        <time>2021-03-14T06:54:52Z</time>
      </trkpt>
      <trkpt lat="45.21956" lon="5.73755">
        <ele>885.447</ele>
        <time>2021-03-14T06:54:57Z</time>
      </trkpt>
      <trkpt lat="45.21954" lon="5.73749">
        <ele>885.547</ele>
        <time>2021-03-14T06:55:00Z</time>
      </trkpt>
      <trkpt lat="45.21951" lon="5.73745">
        <ele>887.053</ele>
        <time>2021-03-14T06:55:03Z</time>
      </trkpt>
      <trkpt lat="45.21943" lon="5.73731">
        <ele>888.495</ele>
        <time>2021-03-14T06:55:11Z</time>
      </trkpt>
      <trkpt lat="45.21934" lon="5.73723">
        <ele>889.426</ele>
        <time>2021-03-14T06:55:17Z</time>
      </trkpt>
      <trkpt lat="45.2193" lon="5.7372">
        <ele>889.903</ele>
        <time>2021-03-14T06:55:19Z</time>
      </trkpt>
      <trkpt lat="45.21919" lon="5.73715">
        <ele>892.889</ele>
        <time>2021-03-14T06:55:27Z</time>
      </trkpt>
      <trkpt lat="45.21915" lon="5.73713">
        <ele>895.145</ele>
        <time>2021-03-14T06:55:32Z</time>
      </trkpt>
      <trkpt lat="45.21912" lon="5.73714">
        <ele>896.025</ele>
        <time>2021-03-14T06:55:34Z</time>
      </trkpt>
      <trkpt lat="45.21902" lon="5.7371">
        <ele>898.191</ele>
        <time>2021-03-14T06:55:41Z</time>
      </trkpt>
      <trkpt lat="45.21897" lon="5.73709">
        <ele>898.899</ele>
        <time>2021-03-14T06:55:46Z</time>
      </trkpt>
      <trkpt lat="45.21889" lon="5.737">
        <ele>899.526</ele>
        <time>2021-03-14T06:55:53Z</time>
      </trkpt>
      <trkpt lat="45.21885" lon="5.73695">
        <ele>900.131</ele>
        <time>2021-03-14T06:55:56Z</time>
      </trkpt>
      <trkpt lat="45.21875" lon="5.73683">
        <ele>900.612</ele>
        <time>2021-03-14T06:56:03Z</time>
      </trkpt>
      <trkpt lat="45.21869" lon="5.73679">
        <ele>900.567</ele>
        <time>2021-03-14T06:56:06Z</time>
      </trkpt>
      <trkpt lat="45.21863" lon="5.73672">
        <ele>899.591</ele>
        <time>2021-03-14T06:56:10Z</time>
      </trkpt>
      <trkpt lat="45.2185" lon="5.73659">
        <ele>899.521</ele>
        <time>2021-03-14T06:56:17Z</time>
      </trkpt>
      <trkpt lat="45.21842" lon="5.73647">
        <ele>899.84</ele>
        <time>2021-03-14T06:56:22Z</time>
      </trkpt>
      <trkpt lat="45.21837" lon="5.73632">
        <ele>900.997</ele>
        <time>2021-03-14T06:56:28Z</time>
      </trkpt>
      <trkpt lat="45.21832" lon="5.73625">
        <ele>901.976</ele>
        <time>2021-03-14T06:56:32Z</time>
      </trkpt>
      <trkpt lat="45.21826" lon="5.73608">
        <ele>902.311</ele>
        <time>2021-03-14T06:56:39Z</time>
      </trkpt>
      <trkpt lat="45.21823" lon="5.736">
        <ele>903.252</ele>
        <time>2021-03-14T06:56:43Z</time>
      </trkpt>
      <trkpt lat="45.21812" lon="5.73588">
        <ele>905.791</ele>
        <time>2021-03-14T06:56:51Z</time>
      </trkpt>
      <trkpt lat="45.21809" lon="5.73584">
        <ele>906.773</ele>
        <time>2021-03-14T06:56:54Z</time>
      </trkpt>
      <trkpt lat="45.21805" lon="5.73575">
        <ele>907.511</ele>
        <time>2021-03-14T06:56:59Z</time>
      </trkpt>
      <trkpt lat="45.21798" lon="5.73567">
        <ele>909.585</ele>
        <time>2021-03-14T06:57:05Z</time>
      </trkpt>
      <trkpt lat="45.21796" lon="5.73566">
        <ele>910.011</ele>
        <time>2021-03-14T06:57:06Z</time>
      </trkpt>
      <trkpt lat="45.21792" lon="5.73555">
        <ele>911.664</ele>
        <time>2021-03-14T06:57:12Z</time>
      </trkpt>
      <trkpt lat="45.21787" lon="5.73543">
        <ele>914.098</ele>
        <time>2021-03-14T06:57:20Z</time>
      </trkpt>
      <trkpt lat="45.21778" lon="5.73536">
        <ele>916.633</ele>
        <time>2021-03-14T06:57:27Z</time>
      </trkpt>
      <trkpt lat="45.21768" lon="5.7353">
        <ele>918.118</ele>
        <time>2021-03-14T06:57:34Z</time>
      </trkpt>
      <trkpt lat="45.21766" lon="5.73528">
        <ele>918.137</ele>
        <time>2021-03-14T06:57:36Z</time>
      </trkpt>
      <trkpt lat="45.21759" lon="5.73522">
        <ele>917.988</ele>
        <time>2021-03-14T06:57:41Z</time>
      </trkpt>
      <trkpt lat="45.21751" lon="5.73517">
        <ele>916.995</ele>
        <time>2021-03-14T06:57:46Z</time>
      </trkpt>
      <trkpt lat="45.21739" lon="5.73514">
        <ele>917.611</ele>
        <time>2021-03-14T06:57:53Z</time>
      </trkpt>
      <trkpt lat="45.21737" lon="5.73514">
        <ele>917.603</ele>
        <time>2021-03-14T06:57:54Z</time>
      </trkpt>
      <trkpt lat="45.21721" lon="5.73504">
        <ele>916.975</ele>
        <time>2021-03-14T06:58:02Z</time>
      </trkpt>
      <trkpt lat="45.21704" lon="5.73494">
        <ele>916.357</ele>
        <time>2021-03-14T06:58:10Z</time>
      </trkpt>
      <trkpt lat="45.21688" lon="5.73492">
        <ele>915.388</ele>
        <time>2021-03-14T06:58:17Z</time>
      </trkpt>
      <trkpt lat="45.21675" lon="5.73483">
        <ele>914.17</ele>
        <time>2021-03-14T06:58:23Z</time>
      </trkpt>
      <trkpt lat="45.21672" lon="5.7348">
        <ele>913.916</ele>
        <time>2021-03-14T06:58:25Z</time>
      </trkpt>
      <trkpt lat="45.21667" lon="5.73452">
        <ele>911.326</ele>
        <time>2021-03-14T06:58:34Z</time>
      </trkpt>
      <trkpt lat="45.2166" lon="5.73433">
        <ele>909.936</ele>
        <time>2021-03-14T06:58:40Z</time>
      </trkpt>
      <trkpt lat="45.21652" lon="5.73414">
        <ele>908.444</ele>
        <time>2021-03-14T06:58:46Z</time>
      </trkpt>
      <trkpt lat="45.21641" lon="5.73398">
        <ele>907.344</ele>
        <time>2021-03-14T06:58:52Z</time>
      </trkpt>
      <trkpt lat="45.21628" lon="5.73385">
        <ele>905.86</ele>
        <time>2021-03-14T06:58:58Z</time>
      </trkpt>
      <trkpt lat="45.21619" lon="5.73378">
        <ele>904.36</ele>
        <time>2021-03-14T06:59:03Z</time>
      </trkpt>
      <trkpt lat="45.21611" lon="5.73369">
        <ele>901.711</ele>
        <time>2021-03-14T06:59:09Z</time>
      </trkpt>
      <trkpt lat="45.21608" lon="5.73366">
        <ele>900.69</ele>
        <time>2021-03-14T06:59:11Z</time>
      </trkpt>
      <trkpt lat="45.21597" lon="5.73352">
        <ele>898.587</ele>
        <time>2021-03-14T06:59:18Z</time>
      </trkpt>
      <trkpt lat="45.21584" lon="5.73344">
        <ele>896.667</ele>
        <time>2021-03-14T06:59:24Z</time>
      </trkpt>
      <trkpt lat="45.2157" lon="5.73335">
        <ele>895.272</ele>
        <time>2021-03-14T06:59:31Z</time>
      </trkpt>
      <trkpt lat="45.21561" lon="5.73328">
        <ele>893.254</ele>
        <time>2021-03-14T06:59:36Z</time>
      </trkpt>
      <trkpt lat="45.21557" lon="5.73327">
        <ele>892.476</ele>
        <time>2021-03-14T06:59:38Z</time>
      </trkpt>
      <trkpt lat="45.21552" lon="5.73325">
        <ele>891.244</ele>
        <time>2021-03-14T06:59:41Z</time>
      </trkpt>
      <trkpt lat="45.21549" lon="5.73323">
        <ele>889.606</ele>
        <time>2021-03-14T06:59:43Z</time>
      </trkpt>
      <trkpt lat="45.21533" lon="5.73321">
        <ele>886.197</ele>
        <time>2021-03-14T06:59:50Z</time>
      </trkpt>
      <trkpt lat="45.21531" lon="5.7332">
        <ele>886.205</ele>
        <time>2021-03-14T06:59:51Z</time>
      </trkpt>
      <trkpt lat="45.21526" lon="5.73318">
        <ele>884.91</ele>
        <time>2021-03-14T06:59:53Z</time>
      </trkpt>
      <trkpt lat="45.21515" lon="5.73311">
        <ele>883.941</ele>
        <time>2021-03-14T06:59:58Z</time>
      </trkpt>
      <trkpt lat="45.21514" lon="5.73308">
        <ele>883.552</ele>
        <time>2021-03-14T07:00:00Z</time>
      </trkpt>
      <trkpt lat="45.21514" lon="5.73304">
        <ele>882.839</ele>
        <time>2021-03-14T07:00:02Z</time>
      </trkpt>
      <trkpt lat="45.21513" lon="5.73294">
        <ele>881.848</ele>
        <time>2021-03-14T07:00:05Z</time>
      </trkpt>
      <trkpt lat="45.21509" lon="5.73265">
        <ele>882.03</ele>
        <time>2021-03-14T07:00:13Z</time>
      </trkpt>
      <trkpt lat="45.21498" lon="5.73254">
        <ele>880.403</ele>
        <time>2021-03-14T07:00:18Z</time>
      </trkpt>
      <trkpt lat="45.2149" lon="5.73245">
        <ele>877.887</ele>
        <time>2021-03-14T07:00:23Z</time>
      </trkpt>
      <trkpt lat="45.21489" lon="5.73244">
        <ele>877.412</ele>
        <time>2021-03-14T07:00:25Z</time>
      </trkpt>
      <trkpt lat="45.21485" lon="5.73237">
        <ele>876.528</ele>
        <time>2021-03-14T07:00:29Z</time>
      </trkpt>
      <trkpt lat="45.21482" lon="5.73231">
        <ele>875.516</ele>
        <time>2021-03-14T07:00:32Z</time>
      </trkpt>
      <trkpt lat="45.21477" lon="5.7321">
        <ele>874.671</ele>
        <time>2021-03-14T07:00:39Z</time>
      </trkpt>
      <trkpt lat="45.21477" lon="5.73206">
        <ele>873.974</ele>
        <time>2021-03-14T07:00:40Z</time>
      </trkpt>
      <trkpt lat="45.21477" lon="5.73196">
        <ele>874.425</ele>
        <time>2021-03-14T07:00:43Z</time>
      </trkpt>
      <trkpt lat="45.21474" lon="5.73189">
        <ele>872.655</ele>
        <time>2021-03-14T07:00:46Z</time>
      </trkpt>
      <trkpt lat="45.21472" lon="5.73184">
        <ele>870.715</ele>
        <time>2021-03-14T07:00:49Z</time>
      </trkpt>
      <trkpt lat="45.21469" lon="5.73183">
        <ele>870.09</ele>
        <time>2021-03-14T07:00:51Z</time>
      </trkpt>
      <trkpt lat="45.21462" lon="5.73175">
        <ele>867.34</ele>
        <time>2021-03-14T07:00:56Z</time>
      </trkpt>
      <trkpt lat="45.21455" lon="5.73165">
        <ele>864.993</ele>
        <time>2021-03-14T07:01:02Z</time>
      </trkpt>
      <trkpt lat="45.21452" lon="5.73163">
        <ele>864.277</ele>
        <time>2021-03-14T07:01:04Z</time>
      </trkpt>
      <trkpt lat="45.21444" lon="5.73163">
        <ele>862.119</ele>
        <time>2021-03-14T07:01:08Z</time>
      </trkpt>
      <trkpt lat="45.21441" lon="5.73161">
        <ele>861.642</ele>
        <time>2021-03-14T07:01:10Z</time>
      </trkpt>
      <trkpt lat="45.21432" lon="5.73155">
        <ele>860.992</ele>
        <time>2021-03-14T07:01:14Z</time>
      </trkpt>
      <trkpt lat="45.21419" lon="5.73144">
        <ele>858.094</ele>
        <time>2021-03-14T07:01:21Z</time>
      </trkpt>
      <trkpt lat="45.21414" lon="5.73138">
        <ele>857.314</ele>
        <time>2021-03-14T07:01:24Z</time>
      </trkpt>
      <trkpt lat="45.21408" lon="5.7313">
        <ele>856.441</ele>
        <time>2021-03-14T07:01:28Z</time>
      </trkpt>
      <trkpt lat="45.21401" lon="5.73121">
        <ele>855.806</ele>
        <time>2021-03-14T07:01:32Z</time>
      </trkpt>
      <trkpt lat="45.21389" lon="5.73106">
        <ele>854.075</ele>
        <time>2021-03-14T07:01:38Z</time>
      </trkpt>
      <trkpt lat="45.21382" lon="5.73087">
        <ele>852.809</ele>
        <time>2021-03-14T07:01:44Z</time>
      </trkpt>
      <trkpt lat="45.21379" lon="5.73078">
        <ele>852.151</ele>
        <time>2021-03-14T07:01:47Z</time>
      </trkpt>
      <trkpt lat="45.21366" lon="5.73067">
        <ele>851.63</ele>
        <time>2021-03-14T07:01:53Z</time>
      </trkpt>
      <trkpt lat="45.21364" lon="5.73062">
        <ele>850.357</ele>
        <time>2021-03-14T07:01:55Z</time>
      </trkpt>
      <trkpt lat="45.21361" lon="5.73058">
        <ele>849.622</ele>
        <time>2021-03-14T07:01:58Z</time>
      </trkpt>
      <trkpt lat="45.21359" lon="5.73052">
        <ele>848.109</ele>
        <time>2021-03-14T07:02:00Z</time>
      </trkpt>
      <trkpt lat="45.21355" lon="5.73048">
        <ele>847.144</ele>
        <time>2021-03-14T07:02:02Z</time>
      </trkpt>
      <trkpt lat="45.21353" lon="5.73044">
        <ele>845.714</ele>
        <time>2021-03-14T07:02:04Z</time>
      </trkpt>
      <trkpt lat="45.21351" lon="5.73042">
        <ele>845.488</ele>
        <time>2021-03-14T07:02:05Z</time>
      </trkpt>
      <trkpt lat="45.2135" lon="5.73035">
        <ele>843.654</ele>
        <time>2021-03-14T07:02:08Z</time>
      </trkpt>
      <trkpt lat="45.21345" lon="5.73028">
        <ele>842.617</ele>
        <time>2021-03-14T07:02:13Z</time>
      </trkpt>
      <trkpt lat="45.21341" lon="5.73022">
        <ele>841.289</ele>
        <time>2021-03-14T07:02:17Z</time>
      </trkpt>
      <trkpt lat="45.21337" lon="5.73017">
        <ele>839.317</ele>
        <time>2021-03-14T07:02:20Z</time>
      </trkpt>
      <trkpt lat="45.21333" lon="5.73011">
        <ele>837.87</ele>
        <time>2021-03-14T07:02:23Z</time>
      </trkpt>
      <trkpt lat="45.21327" lon="5.73003">
        <ele>834.941</ele>
        <time>2021-03-14T07:02:29Z</time>
      </trkpt>
      <trkpt lat="45.21326" lon="5.72997">
        <ele>833.745</ele>
        <time>2021-03-14T07:02:31Z</time>
      </trkpt>
      <trkpt lat="45.21316" lon="5.72983">
        <ele>832.433</ele>
        <time>2021-03-14T07:02:37Z</time>
      </trkpt>
      <trkpt lat="45.21308" lon="5.72973">
        <ele>830.137</ele>
        <time>2021-03-14T07:02:43Z</time>
      </trkpt>
      <trkpt lat="45.213" lon="5.72968">
        <ele>827.501</ele>
        <time>2021-03-14T07:02:48Z</time>
      </trkpt>
      <trkpt lat="45.21294" lon="5.72962">
        <ele>825.357</ele>
        <time>2021-03-14T07:02:52Z</time>
      </trkpt>
      <trkpt lat="45.21291" lon="5.72961">
        <ele>824.737</ele>
        <time>2021-03-14T07:02:54Z</time>
      </trkpt>
      <trkpt lat="45.21286" lon="5.72954">
        <ele>822.971</ele>
        <time>2021-03-14T07:02:58Z</time>
      </trkpt>
      <trkpt lat="45.21279" lon="5.72943">
        <ele>820.41</ele>
        <time>2021-03-14T07:03:03Z</time>
      </trkpt>
      <trkpt lat="45.2127" lon="5.72942">
        <ele>817.937</ele>
        <time>2021-03-14T07:03:09Z</time>
      </trkpt>
      <trkpt lat="45.21263" lon="5.72937">
        <ele>815.338</ele>
        <time>2021-03-14T07:03:14Z</time>
      </trkpt>
      <trkpt lat="45.21253" lon="5.72932">
        <ele>812.658</ele>
        <time>2021-03-14T07:03:21Z</time>
      </trkpt>
      <trkpt lat="45.21247" lon="5.7293">
        <ele>809.569</ele>
        <time>2021-03-14T07:03:27Z</time>
      </trkpt>
      <trkpt lat="45.21245" lon="5.7293">
        <ele>808.946</ele>
        <time>2021-03-14T07:03:28Z</time>
      </trkpt>
      <trkpt lat="45.2124" lon="5.72927">
        <ele>807.989</ele>
        <time>2021-03-14T07:03:30Z</time>
      </trkpt>
      <trkpt lat="45.21231" lon="5.72918">
        <ele>806.4</ele>
        <time>2021-03-14T07:03:35Z</time>
      </trkpt>
      <trkpt lat="45.21225" lon="5.72912">
        <ele>803.862</ele>
        <time>2021-03-14T07:03:41Z</time>
      </trkpt>
      <trkpt lat="45.21217" lon="5.72909">
        <ele>801.274</ele>
        <time>2021-03-14T07:03:47Z</time>
      </trkpt>
      <trkpt lat="45.21214" lon="5.72919">
        <ele>798.275</ele>
        <time>2021-03-14T07:03:53Z</time>
      </trkpt>
      <trkpt lat="45.21214" lon="5.72922">
        <ele>798.407</ele>
        <time>2021-03-14T07:03:54Z</time>
      </trkpt>
      <trkpt lat="45.21214" lon="5.72927">
        <ele>797.443</ele>
        <time>2021-03-14T07:03:56Z</time>
      </trkpt>
      <trkpt lat="45.21215" lon="5.72932">
        <ele>795.824</ele>
        <time>2021-03-14T07:03:59Z</time>
      </trkpt>
      <trkpt lat="45.21216" lon="5.7294">
        <ele>795.077</ele>
        <time>2021-03-14T07:04:04Z</time>
      </trkpt>
      <trkpt lat="45.21212" lon="5.72937">
        <ele>793.863</ele>
        <time>2021-03-14T07:04:07Z</time>
      </trkpt>
      <trkpt lat="45.21203" lon="5.72929">
        <ele>791.605</ele>
        <time>2021-03-14T07:04:12Z</time>
      </trkpt>
      <trkpt lat="45.21197" lon="5.7292">
        <ele>790.649</ele>
        <time>2021-03-14T07:04:17Z</time>
      </trkpt>
      <trkpt lat="45.21195" lon="5.72918">
        <ele>790.765</ele>
        <time>2021-03-14T07:04:18Z</time>
      </trkpt>
      <trkpt lat="45.21194" lon="5.72909">
        <ele>789.637</ele>
        <time>2021-03-14T07:04:22Z</time>
      </trkpt>
      <trkpt lat="45.21188" lon="5.72904">
        <ele>788.195</ele>
        <time>2021-03-14T07:04:25Z</time>
      </trkpt>
      <trkpt lat="45.21177" lon="5.72899">
        <ele>784.457</ele>
        <time>2021-03-14T07:04:30Z</time>
      </trkpt>
      <trkpt lat="45.21173" lon="5.72896">
        <ele>783.515</ele>
        <time>2021-03-14T07:04:32Z</time>
      </trkpt>
      <trkpt lat="45.21159" lon="5.72889">
        <ele>781.397</ele>
        <time>2021-03-14T07:04:38Z</time>
      </trkpt>
      <trkpt lat="45.21148" lon="5.72887">
        <ele>780.44</ele>
        <time>2021-03-14T07:04:43Z</time>
      </trkpt>
      <trkpt lat="45.21147" lon="5.72886">
        <ele>779.746</ele>
        <time>2021-03-14T07:04:44Z</time>
      </trkpt>
      <trkpt lat="45.21144" lon="5.72884">
        <ele>779.188</ele>
        <time>2021-03-14T07:04:46Z</time>
      </trkpt>
      <trkpt lat="45.21135" lon="5.7288">
        <ele>777.606</ele>
        <time>2021-03-14T07:04:51Z</time>
      </trkpt>
      <trkpt lat="45.21129" lon="5.72875">
        <ele>773.82</ele>
        <time>2021-03-14T07:04:56Z</time>
      </trkpt>
      <trkpt lat="45.21126" lon="5.72874">
        <ele>773.977</ele>
        <time>2021-03-14T07:04:58Z</time>
      </trkpt>
      <trkpt lat="45.21116" lon="5.72861">
        <ele>771.037</ele>
        <time>2021-03-14T07:05:05Z</time>
      </trkpt>
      <trkpt lat="45.21108" lon="5.72853">
        <ele>769.325</ele>
        <time>2021-03-14T07:05:10Z</time>
      </trkpt>
      <trkpt lat="45.21103" lon="5.72848">
        <ele>767.206</ele>
        <time>2021-03-14T07:05:14Z</time>
      </trkpt>
      <trkpt lat="45.21095" lon="5.72841">
        <ele>765.916</ele>
        <time>2021-03-14T07:05:19Z</time>
      </trkpt>
      <trkpt lat="45.21089" lon="5.72835">
        <ele>765.046</ele>
        <time>2021-03-14T07:05:24Z</time>
      </trkpt>
      <trkpt lat="45.21075" lon="5.72805">
        <ele>764.154</ele>
        <time>2021-03-14T07:05:34Z</time>
      </trkpt>
      <trkpt lat="45.21071" lon="5.72796">
        <ele>762.983</ele>
        <time>2021-03-14T07:05:38Z</time>
      </trkpt>
      <trkpt lat="45.21067" lon="5.72785">
        <ele>763.482</ele>
        <time>2021-03-14T07:05:42Z</time>
      </trkpt>
      <trkpt lat="45.21063" lon="5.72773">
        <ele>762.296</ele>
        <time>2021-03-14T07:05:47Z</time>
      </trkpt>
      <trkpt lat="45.21062" lon="5.72768">
        <ele>762.487</ele>
        <time>2021-03-14T07:05:49Z</time>
      </trkpt>
      <trkpt lat="45.21054" lon="5.72752">
        <ele>760.772</ele>
        <time>2021-03-14T07:05:55Z</time>
      </trkpt>
      <trkpt lat="45.21047" lon="5.72745">
        <ele>759.151</ele>
        <time>2021-03-14T07:05:59Z</time>
      </trkpt>
      <trkpt lat="45.21041" lon="5.72742">
        <ele>757.537</ele>
        <time>2021-03-14T07:06:05Z</time>
      </trkpt>
      <trkpt lat="45.21036" lon="5.7274">
        <ele>756.286</ele>
        <time>2021-03-14T07:06:10Z</time>
      </trkpt>
      <trkpt lat="45.2103" lon="5.72737">
        <ele>753.685</ele>
        <time>2021-03-14T07:06:16Z</time>
      </trkpt>
      <trkpt lat="45.21023" lon="5.72739">
        <ele>752.046</ele>
        <time>2021-03-14T07:06:22Z</time>
      </trkpt>
      <trkpt lat="45.21014" lon="5.72739">
        <ele>749.376</ele>
        <time>2021-03-14T07:06:29Z</time>
      </trkpt>
      <trkpt lat="45.2101" lon="5.72743">
        <ele>747.092</ele>
        <time>2021-03-14T07:06:36Z</time>
      </trkpt>
      <trkpt lat="45.21005" lon="5.7275">
        <ele>744.605</ele>
        <time>2021-03-14T07:06:44Z</time>
      </trkpt>
      <trkpt lat="45.21" lon="5.72755">
        <ele>741.383</ele>
        <time>2021-03-14T07:06:52Z</time>
      </trkpt>
      <trkpt lat="45.20995" lon="5.72756">
        <ele>738.628</ele>
        <time>2021-03-14T07:06:59Z</time>
      </trkpt>
      <trkpt lat="45.2099" lon="5.72758">
        <ele>737.208</ele>
        <time>2021-03-14T07:07:04Z</time>
      </trkpt>
      <trkpt lat="45.20983" lon="5.7275">
        <ele>735.193</ele>
        <time>2021-03-14T07:07:11Z</time>
      </trkpt>
      <trkpt lat="45.2098" lon="5.72748">
        <ele>733.758</ele>
        <time>2021-03-14T07:07:13Z</time>
      </trkpt>
      <trkpt lat="45.20975" lon="5.72741">
        <ele>729.633</ele>
        <time>2021-03-14T07:07:19Z</time>
      </trkpt>
      <trkpt lat="45.20972" lon="5.72737">
        <ele>728.037</ele>
        <time>2021-03-14T07:07:23Z</time>
      </trkpt>
      <trkpt lat="45.20971" lon="5.72734">
        <ele>726.502</ele>
        <time>2021-03-14T07:07:25Z</time>
      </trkpt>
      <trkpt lat="45.20967" lon="5.72727">
        <ele>725.485</ele>
        <time>2021-03-14T07:07:31Z</time>
      </trkpt>
      <trkpt lat="45.20962" lon="5.72723">
        <ele>722.417</ele>
        <time>2021-03-14T07:07:38Z</time>
      </trkpt>
      <trkpt lat="45.20956" lon="5.72717">
        <ele>719.328</ele>
        <time>2021-03-14T07:07:44Z</time>
      </trkpt>
      <trkpt lat="45.2095" lon="5.72713">
        <ele>718.049</ele>
        <time>2021-03-14T07:07:50Z</time>
      </trkpt>
      <trkpt lat="45.20943" lon="5.72704">
        <ele>714.932</ele>
        <time>2021-03-14T07:07:56Z</time>
      </trkpt>
      <trkpt lat="45.20935" lon="5.72695">
        <ele>712.968</ele>
        <time>2021-03-14T07:08:00Z</time>
      </trkpt>
      <trkpt lat="45.20928" lon="5.72684">
        <ele>711.652</ele>
        <time>2021-03-14T07:08:06Z</time>
      </trkpt>
      <trkpt lat="45.2092" lon="5.72678">
        <ele>710.161</ele>
        <time>2021-03-14T07:08:12Z</time>
      </trkpt>
      <trkpt lat="45.20918" lon="5.72677">
        <ele>709.795</ele>
        <time>2021-03-14T07:08:13Z</time>
      </trkpt>
      <trkpt lat="45.20914" lon="5.72675">
        <ele>708.236</ele>
        <time>2021-03-14T07:08:16Z</time>
      </trkpt>
      <trkpt lat="45.20914" lon="5.72675">
        <ele>707.701</ele>
        <time>2021-03-14T07:08:17Z</time>
      </trkpt>
      <trkpt lat="45.20907" lon="5.72677">
        <ele>705.228</ele>
        <time>2021-03-14T07:08:22Z</time>
      </trkpt>
      <trkpt lat="45.20898" lon="5.72677">
        <ele>703.661</ele>
        <time>2021-03-14T07:08:29Z</time>
      </trkpt>
      <trkpt lat="45.20894" lon="5.72677">
        <ele>702.122</ele>
        <time>2021-03-14T07:08:32Z</time>
      </trkpt>
      <trkpt lat="45.20886" lon="5.72679">
        <ele>700.189</ele>
        <time>2021-03-14T07:08:36Z</time>
      </trkpt>
      <trkpt lat="45.20879" lon="5.72683">
        <ele>699.064</ele>
        <time>2021-03-14T07:08:40Z</time>
      </trkpt>
      <trkpt lat="45.2087" lon="5.72685">
        <ele>696.932</ele>
        <time>2021-03-14T07:08:45Z</time>
      </trkpt>
      <trkpt lat="45.20858" lon="5.72687">
        <ele>695.203</ele>
        <time>2021-03-14T07:08:51Z</time>
      </trkpt>
      <trkpt lat="45.20848" lon="5.7269">
        <ele>692.896</ele>
        <time>2021-03-14T07:08:58Z</time>
      </trkpt>
      <trkpt lat="45.20845" lon="5.72693">
        <ele>691.483</ele>
        <time>2021-03-14T07:09:01Z</time>
      </trkpt>
      <trkpt lat="45.20839" lon="5.72695">
        <ele>690.387</ele>
        <time>2021-03-14T07:09:05Z</time>
      </trkpt>
      <trkpt lat="45.20828" lon="5.72694">
        <ele>688.806</ele>
        <time>2021-03-14T07:09:11Z</time>
      </trkpt>
      <trkpt lat="45.20832" lon="5.72677">
        <ele>685.292</ele>
        <time>2021-03-14T07:09:21Z</time>
      </trkpt>
      <trkpt lat="45.20817" lon="5.72673">
        <ele>684.917</ele>
        <time>2021-03-14T07:10:03Z</time>
      </trkpt>
      <trkpt lat="45.2082" lon="5.72664">
        <ele>684.366</ele>
        <time>2021-03-14T07:10:14Z</time>
      </trkpt>
      <trkpt lat="45.20821" lon="5.72662">
        <ele>683.495</ele>
        <time>2021-03-14T07:10:20Z</time>
      </trkpt>
      <trkpt lat="45.20815" lon="5.72672">
        <ele>679.094</ele>
        <time>2021-03-14T07:10:28Z</time>
      </trkpt>
      <trkpt lat="45.2081" lon="5.72672">
        <ele>677.595</ele>
        <time>2021-03-14T07:10:33Z</time>
      </trkpt>
      <trkpt lat="45.20804" lon="5.72663">
        <ele>675.645</ele>
        <time>2021-03-14T07:10:39Z</time>
      </trkpt>
      <trkpt lat="45.20804" lon="5.72655">
        <ele>673.202</ele>
        <time>2021-03-14T07:10:44Z</time>
      </trkpt>
      <trkpt lat="45.20805" lon="5.72653">
        <ele>672.808</ele>
        <time>2021-03-14T07:10:45Z</time>
      </trkpt>
      <trkpt lat="45.20804" lon="5.7265">
        <ele>671.807</ele>
        <time>2021-03-14T07:10:47Z</time>
      </trkpt>
      <trkpt lat="45.20801" lon="5.72642">
        <ele>669.714</ele>
        <time>2021-03-14T07:10:52Z</time>
      </trkpt>
      <trkpt lat="45.20796" lon="5.72632">
        <ele>668.582</ele>
        <time>2021-03-14T07:10:58Z</time>
      </trkpt>
      <trkpt lat="45.20795" lon="5.7263">
        <ele>668.329</ele>
        <time>2021-03-14T07:11:01Z</time>
      </trkpt>
      <trkpt lat="45.20792" lon="5.7264">
        <ele>666.244</ele>
        <time>2021-03-14T07:11:06Z</time>
      </trkpt>
      <trkpt lat="45.20784" lon="5.72644">
        <ele>663.758</ele>
        <time>2021-03-14T07:11:12Z</time>
      </trkpt>
      <trkpt lat="45.20784" lon="5.72645">
        <ele>663.367</ele>
        <time>2021-03-14T07:11:13Z</time>
      </trkpt>
      <trkpt lat="45.20782" lon="5.72647">
        <ele>663.056</ele>
        <time>2021-03-14T07:11:15Z</time>
      </trkpt>
      <trkpt lat="45.2078" lon="5.72647">
        <ele>661.928</ele>
        <time>2021-03-14T07:11:17Z</time>
      </trkpt>
      <trkpt lat="45.20772" lon="5.72642">
        <ele>658.198</ele>
        <time>2021-03-14T07:11:25Z</time>
      </trkpt>
      <trkpt lat="45.20773" lon="5.72632">
        <ele>656.151</ele>
        <time>2021-03-14T07:11:30Z</time>
      </trkpt>
      <trkpt lat="45.2077" lon="5.72625">
        <ele>653.81</ele>
        <time>2021-03-14T07:11:34Z</time>
      </trkpt>
      <trkpt lat="45.20768" lon="5.72619">
        <ele>653.325</ele>
        <time>2021-03-14T07:11:38Z</time>
      </trkpt>
      <trkpt lat="45.20763" lon="5.72619">
        <ele>651.875</ele>
        <time>2021-03-14T07:11:41Z</time>
      </trkpt>
      <trkpt lat="45.20762" lon="5.7262">
        <ele>650.589</ele>
        <time>2021-03-14T07:11:42Z</time>
      </trkpt>
      <trkpt lat="45.20756" lon="5.72622">
        <ele>648.989</ele>
        <time>2021-03-14T07:11:46Z</time>
      </trkpt>
      <trkpt lat="45.20753" lon="5.7262">
        <ele>648.357</ele>
        <time>2021-03-14T07:11:48Z</time>
      </trkpt>
      <trkpt lat="45.20745" lon="5.72618">
        <ele>645.536</ele>
        <time>2021-03-14T07:11:54Z</time>
      </trkpt>
      <trkpt lat="45.20744" lon="5.72616">
        <ele>644.015</ele>
        <time>2021-03-14T07:11:56Z</time>
      </trkpt>
      <trkpt lat="45.2074" lon="5.72603">
        <ele>643.182</ele>
        <time>2021-03-14T07:12:02Z</time>
      </trkpt>
      <trkpt lat="45.20737" lon="5.72596">
        <ele>641.536</ele>
        <time>2021-03-14T07:12:05Z</time>
      </trkpt>
      <trkpt lat="45.20734" lon="5.72595">
        <ele>640.377</ele>
        <time>2021-03-14T07:12:07Z</time>
      </trkpt>
      <trkpt lat="45.20733" lon="5.72593">
        <ele>639.366</ele>
        <time>2021-03-14T07:12:09Z</time>
      </trkpt>
      <trkpt lat="45.20729" lon="5.72589">
        <ele>638.512</ele>
        <time>2021-03-14T07:12:11Z</time>
      </trkpt>
      <trkpt lat="45.20723" lon="5.72583">
        <ele>636.931</ele>
        <time>2021-03-14T07:12:15Z</time>
      </trkpt>
      <trkpt lat="45.20719" lon="5.72581">
        <ele>636.184</ele>
        <time>2021-03-14T07:12:18Z</time>
      </trkpt>
      <trkpt lat="45.20715" lon="5.72578">
        <ele>635.655</ele>
        <time>2021-03-14T07:12:21Z</time>
      </trkpt>
      <trkpt lat="45.20709" lon="5.72574">
        <ele>633.754</ele>
        <time>2021-03-14T07:12:25Z</time>
      </trkpt>
      <trkpt lat="45.20706" lon="5.72573">
        <ele>633.136</ele>
        <time>2021-03-14T07:12:27Z</time>
      </trkpt>
      <trkpt lat="45.20705" lon="5.72572">
        <ele>632.541</ele>
        <time>2021-03-14T07:12:28Z</time>
      </trkpt>
      <trkpt lat="45.20699" lon="5.72567">
        <ele>629.633</ele>
        <time>2021-03-14T07:12:34Z</time>
      </trkpt>
      <trkpt lat="45.20688" lon="5.72569">
        <ele>627.841</ele>
        <time>2021-03-14T07:12:39Z</time>
      </trkpt>
      <trkpt lat="45.20679" lon="5.72574">
        <ele>625.731</ele>
        <time>2021-03-14T07:12:44Z</time>
      </trkpt>
      <trkpt lat="45.20664" lon="5.72588">
        <ele>623.597</ele>
        <time>2021-03-14T07:12:51Z</time>
      </trkpt>
      <trkpt lat="45.2066" lon="5.72594">
        <ele>623.674</ele>
        <time>2021-03-14T07:12:53Z</time>
      </trkpt>
      <trkpt lat="45.20646" lon="5.72601">
        <ele>621.236</ele>
        <time>2021-03-14T07:12:59Z</time>
      </trkpt>
      <trkpt lat="45.20643" lon="5.726">
        <ele>621.749</ele>
        <time>2021-03-14T07:13:00Z</time>
      </trkpt>
      <trkpt lat="45.20627" lon="5.72593">
        <ele>619.664</ele>
        <time>2021-03-14T07:13:08Z</time>
      </trkpt>
      <trkpt lat="45.20616" lon="5.72588">
        <ele>617.95</ele>
        <time>2021-03-14T07:13:12Z</time>
      </trkpt>
      <trkpt lat="45.20607" lon="5.72579">
        <ele>617.253</ele>
        <time>2021-03-14T07:13:17Z</time>
      </trkpt>
      <trkpt lat="45.206" lon="5.72574">
        <ele>616.08</ele>
        <time>2021-03-14T07:13:20Z</time>
      </trkpt>
      <trkpt lat="45.20591" lon="5.72564">
        <ele>614.782</ele>
        <time>2021-03-14T07:13:25Z</time>
      </trkpt>
      <trkpt lat="45.20574" lon="5.72558">
        <ele>612.786</ele>
        <time>2021-03-14T07:13:31Z</time>
      </trkpt>
      <trkpt lat="45.20559" lon="5.72556">
        <ele>611.69</ele>
        <time>2021-03-14T07:13:36Z</time>
      </trkpt>
      <trkpt lat="45.20553" lon="5.72555">
        <ele>610.888</ele>
        <time>2021-03-14T07:13:38Z</time>
      </trkpt>
      <trkpt lat="45.20539" lon="5.72561">
        <ele>610.887</ele>
        <time>2021-03-14T07:13:44Z</time>
      </trkpt>
      <trkpt lat="45.20526" lon="5.72569">
        <ele>609.405</ele>
        <time>2021-03-14T07:13:50Z</time>
      </trkpt>
      <trkpt lat="45.20507" lon="5.72573">
        <ele>608.745</ele>
        <time>2021-03-14T07:13:56Z</time>
      </trkpt>
      <trkpt lat="45.20503" lon="5.7257">
        <ele>608.681</ele>
        <time>2021-03-14T07:13:58Z</time>
      </trkpt>
      <trkpt lat="45.20497" lon="5.72562">
        <ele>607.646</ele>
        <time>2021-03-14T07:14:02Z</time>
      </trkpt>
      <trkpt lat="45.2049" lon="5.72552">
        <ele>605.991</ele>
        <time>2021-03-14T07:14:06Z</time>
      </trkpt>
      <trkpt lat="45.20478" lon="5.72543">
        <ele>605.624</ele>
        <time>2021-03-14T07:14:11Z</time>
      </trkpt>
      <trkpt lat="45.20473" lon="5.72539">
        <ele>604.476</ele>
        <time>2021-03-14T07:14:13Z</time>
      </trkpt>
      <trkpt lat="45.2046" lon="5.72525">
        <ele>602.164</ele>
        <time>2021-03-14T07:14:19Z</time>
      </trkpt>
      <trkpt lat="45.20457" lon="5.72519">
        <ele>601.833</ele>
        <time>2021-03-14T07:14:21Z</time>
      </trkpt>
      <trkpt lat="45.20453" lon="5.72514">
        <ele>600.997</ele>
        <time>2021-03-14T07:14:23Z</time>
      </trkpt>
      <trkpt lat="45.20442" lon="5.72523">
        <ele>599.386</ele>
        <time>2021-03-14T07:14:29Z</time>
      </trkpt>
      <trkpt lat="45.20442" lon="5.72534">
        <ele>598.836</ele>
        <time>2021-03-14T07:14:31Z</time>
      </trkpt>
      <trkpt lat="45.20451" lon="5.72559">
        <ele>597.039</ele>
        <time>2021-03-14T07:14:38Z</time>
      </trkpt>
      <trkpt lat="45.20461" lon="5.72577">
        <ele>596.167</ele>
        <time>2021-03-14T07:14:45Z</time>
      </trkpt>
      <trkpt lat="45.20471" lon="5.72597">
        <ele>594.219</ele>
        <time>2021-03-14T07:14:52Z</time>
      </trkpt>
      <trkpt lat="45.20473" lon="5.72601">
        <ele>592.598</ele>
        <time>2021-03-14T07:14:53Z</time>
      </trkpt>
      <trkpt lat="45.20487" lon="5.72618">
        <ele>589.844</ele>
        <time>2021-03-14T07:15:01Z</time>
      </trkpt>
      <trkpt lat="45.20493" lon="5.72626">
        <ele>588.391</ele>
        <time>2021-03-14T07:15:04Z</time>
      </trkpt>
      <trkpt lat="45.20504" lon="5.72629">
        <ele>587.457</ele>
        <time>2021-03-14T07:15:08Z</time>
      </trkpt>
      <trkpt lat="45.20514" lon="5.72634">
        <ele>586.15</ele>
        <time>2021-03-14T07:15:13Z</time>
      </trkpt>
      <trkpt lat="45.20523" lon="5.72643">
        <ele>584.989</ele>
        <time>2021-03-14T07:15:17Z</time>
      </trkpt>
      <trkpt lat="45.20532" lon="5.72659">
        <ele>583.983</ele>
        <time>2021-03-14T07:15:23Z</time>
      </trkpt>
      <trkpt lat="45.20547" lon="5.72676">
        <ele>582.479</ele>
        <time>2021-03-14T07:15:29Z</time>
      </trkpt>
      <trkpt lat="45.20567" lon="5.72697">
        <ele>580.98</ele>
        <time>2021-03-14T07:15:37Z</time>
      </trkpt>
      <trkpt lat="45.2058" lon="5.72708">
        <ele>579.562</ele>
        <time>2021-03-14T07:15:43Z</time>
      </trkpt>
      <trkpt lat="45.20582" lon="5.7271">
        <ele>579.944</ele>
        <time>2021-03-14T07:15:44Z</time>
      </trkpt>
      <trkpt lat="45.20578" lon="5.72714">
        <ele>578.373</ele>
        <time>2021-03-14T07:15:47Z</time>
      </trkpt>
      <trkpt lat="45.20569" lon="5.72709">
        <ele>577.376</ele>
        <time>2021-03-14T07:15:51Z</time>
      </trkpt>
      <trkpt lat="45.20564" lon="5.72705">
        <ele>576.659</ele>
        <time>2021-03-14T07:15:53Z</time>
      </trkpt>
      <trkpt lat="45.20542" lon="5.72695">
        <ele>574.812</ele>
        <time>2021-03-14T07:16:01Z</time>
      </trkpt>
      <trkpt lat="45.20538" lon="5.72693">
        <ele>574.133</ele>
        <time>2021-03-14T07:16:03Z</time>
      </trkpt>
      <trkpt lat="45.20529" lon="5.72681">
        <ele>571.378</ele>
        <time>2021-03-14T07:16:08Z</time>
      </trkpt>
      <trkpt lat="45.20518" lon="5.72677">
        <ele>570.073</ele>
        <time>2021-03-14T07:16:13Z</time>
      </trkpt>
      <trkpt lat="45.20508" lon="5.72674">
        <ele>568.31</ele>
        <time>2021-03-14T07:16:18Z</time>
      </trkpt>
      <trkpt lat="45.205" lon="5.7267">
        <ele>568.088</ele>
        <time>2021-03-14T07:16:21Z</time>
      </trkpt>
      <trkpt lat="45.20495" lon="5.72666">
        <ele>567.316</ele>
        <time>2021-03-14T07:16:23Z</time>
      </trkpt>
      <trkpt lat="45.2048" lon="5.72655">
        <ele>565.034</ele>
        <time>2021-03-14T07:16:30Z</time>
      </trkpt>
      <trkpt lat="45.20476" lon="5.72652">
        <ele>564.055</ele>
        <time>2021-03-14T07:16:33Z</time>
      </trkpt>
      <trkpt lat="45.20462" lon="5.72642">
        <ele>562.033</ele>
        <time>2021-03-14T07:16:39Z</time>
      </trkpt>
      <trkpt lat="45.2045" lon="5.72641">
        <ele>560.887</ele>
        <time>2021-03-14T07:16:44Z</time>
      </trkpt>
      <trkpt lat="45.20442" lon="5.72642">
        <ele>560.893</ele>
        <time>2021-03-14T07:16:47Z</time>
      </trkpt>
      <trkpt lat="45.20432" lon="5.72635">
        <ele>559.091</ele>
        <time>2021-03-14T07:16:51Z</time>
      </trkpt>
      <trkpt lat="45.20422" lon="5.7262">
        <ele>558.265</ele>
        <time>2021-03-14T07:16:57Z</time>
      </trkpt>
      <trkpt lat="45.20419" lon="5.72623">
        <ele>558.301</ele>
        <time>2021-03-14T07:16:59Z</time>
      </trkpt>
      <trkpt lat="45.20422" lon="5.7264">
        <ele>556.283</ele>
        <time>2021-03-14T07:17:05Z</time>
      </trkpt>
      <trkpt lat="45.20423" lon="5.72643">
        <ele>555.938</ele>
        <time>2021-03-14T07:17:06Z</time>
      </trkpt>
      <trkpt lat="45.20426" lon="5.72648">
        <ele>554.997</ele>
        <time>2021-03-14T07:17:08Z</time>
      </trkpt>
      <trkpt lat="45.20436" lon="5.72665">
        <ele>552.424</ele>
        <time>2021-03-14T07:17:14Z</time>
      </trkpt>
      <trkpt lat="45.20446" lon="5.72675">
        <ele>550.738</ele>
        <time>2021-03-14T07:17:20Z</time>
      </trkpt>
      <trkpt lat="45.20458" lon="5.7268">
        <ele>550.043</ele>
        <time>2021-03-14T07:17:25Z</time>
      </trkpt>
      <trkpt lat="45.20466" lon="5.72691">
        <ele>547.912</ele>
        <time>2021-03-14T07:17:29Z</time>
      </trkpt>
      <trkpt lat="45.2048" lon="5.72709">
        <ele>546.315</ele>
        <time>2021-03-14T07:17:36Z</time>
      </trkpt>
      <trkpt lat="45.20494" lon="5.72718">
        <ele>545.729</ele>
        <time>2021-03-14T07:17:41Z</time>
      </trkpt>
      <trkpt lat="45.20508" lon="5.7273">
        <ele>543.094</ele>
        <time>2021-03-14T07:17:47Z</time>
      </trkpt>
      <trkpt lat="45.20521" lon="5.72747">
        <ele>541.029</ele>
        <time>2021-03-14T07:17:53Z</time>
      </trkpt>
      <trkpt lat="45.20519" lon="5.72749">
        <ele>539.914</ele>
        <time>2021-03-14T07:17:54Z</time>
      </trkpt>
      <trkpt lat="45.20504" lon="5.72735">
        <ele>538.213</ele>
        <time>2021-03-14T07:18:00Z</time>
      </trkpt>
      <trkpt lat="45.20491" lon="5.72727">
        <ele>537.214</ele>
        <time>2021-03-14T07:18:05Z</time>
      </trkpt>
      <trkpt lat="45.20476" lon="5.7272">
        <ele>535.215</ele>
        <time>2021-03-14T07:18:12Z</time>
      </trkpt>
      <trkpt lat="45.2046" lon="5.72716">
        <ele>533.575</ele>
        <time>2021-03-14T07:18:19Z</time>
      </trkpt>
      <trkpt lat="45.20451" lon="5.72713">
        <ele>532.486</ele>
        <time>2021-03-14T07:18:23Z</time>
      </trkpt>
      <trkpt lat="45.20439" lon="5.72711">
        <ele>530.882</ele>
        <time>2021-03-14T07:18:28Z</time>
      </trkpt>
      <trkpt lat="45.20429" lon="5.72703">
        <ele>529.933</ele>
        <time>2021-03-14T07:18:33Z</time>
      </trkpt>
      <trkpt lat="45.20427" lon="5.72702">
        <ele>528.864</ele>
        <time>2021-03-14T07:18:34Z</time>
      </trkpt>
      <trkpt lat="45.20416" lon="5.72694">
        <ele>526.766</ele>
        <time>2021-03-14T07:18:40Z</time>
      </trkpt>
      <trkpt lat="45.20405" lon="5.72681">
        <ele>524.828</ele>
        <time>2021-03-14T07:18:46Z</time>
      </trkpt>
      <trkpt lat="45.20397" lon="5.72673">
        <ele>523.48</ele>
        <time>2021-03-14T07:18:50Z</time>
      </trkpt>
      <trkpt lat="45.20387" lon="5.72655">
        <ele>520.733</ele>
        <time>2021-03-14T07:18:57Z</time>
      </trkpt>
      <trkpt lat="45.20377" lon="5.72643">
        <ele>518.598</ele>
        <time>2021-03-14T07:19:02Z</time>
      </trkpt>
      <trkpt lat="45.20374" lon="5.72641">
        <ele>518.372</ele>
        <time>2021-03-14T07:19:03Z</time>
      </trkpt>
      <trkpt lat="45.20358" lon="5.72632">
        <ele>516.209</ele>
        <time>2021-03-14T07:19:10Z</time>
      </trkpt>
      <trkpt lat="45.20349" lon="5.72627">
        <ele>514.658</ele>
        <time>2021-03-14T07:19:14Z</time>
      </trkpt>
      <trkpt lat="45.20343" lon="5.72622">
        <ele>512.742</ele>
        <time>2021-03-14T07:19:17Z</time>
      </trkpt>
      <trkpt lat="45.20331" lon="5.72612">
        <ele>511.617</ele>
        <time>2021-03-14T07:19:23Z</time>
      </trkpt>
      <trkpt lat="45.20317" lon="5.72607">
        <ele>509.173</ele>
        <time>2021-03-14T07:19:30Z</time>
      </trkpt>
      <trkpt lat="45.20314" lon="5.72605">
        <ele>507.988</ele>
        <time>2021-03-14T07:19:32Z</time>
      </trkpt>
      <trkpt lat="45.20298" lon="5.72601">
        <ele>505.61</ele>
        <time>2021-03-14T07:19:39Z</time>
      </trkpt>
      <trkpt lat="45.20283" lon="5.72601">
        <ele>502.458</ele>
        <time>2021-03-14T07:19:45Z</time>
      </trkpt>
      <trkpt lat="45.2027" lon="5.72607">
        <ele>502.096</ele>
        <time>2021-03-14T07:19:51Z</time>
      </trkpt>
      <trkpt lat="45.20262" lon="5.72608">
        <ele>500.328</ele>
        <time>2021-03-14T07:19:55Z</time>
      </trkpt>
      <trkpt lat="45.20259" lon="5.72609">
        <ele>500.456</ele>
        <time>2021-03-14T07:19:56Z</time>
      </trkpt>
      <trkpt lat="45.20248" lon="5.72604">
        <ele>498.012</ele>
        <time>2021-03-14T07:20:02Z</time>
      </trkpt>
      <trkpt lat="45.20232" lon="5.726">
        <ele>496.15</ele>
        <time>2021-03-14T07:20:08Z</time>
      </trkpt>
      <trkpt lat="45.20228" lon="5.72598">
        <ele>495.799</ele>
        <time>2021-03-14T07:20:10Z</time>
      </trkpt>
      <trkpt lat="45.20219" lon="5.72592">
        <ele>494.398</ele>
        <time>2021-03-14T07:20:14Z</time>
      </trkpt>
      <trkpt lat="45.20202" lon="5.7258">
        <ele>492.123</ele>
        <time>2021-03-14T07:20:21Z</time>
      </trkpt>
      <trkpt lat="45.202" lon="5.72578">
        <ele>491.997</ele>
        <time>2021-03-14T07:20:22Z</time>
      </trkpt>
      <trkpt lat="45.2019" lon="5.72568">
        <ele>491.077</ele>
        <time>2021-03-14T07:20:27Z</time>
      </trkpt>
      <trkpt lat="45.20171" lon="5.72557">
        <ele>488.76</ele>
        <time>2021-03-14T07:20:34Z</time>
      </trkpt>
      <trkpt lat="45.20158" lon="5.72553">
        <ele>486.711</ele>
        <time>2021-03-14T07:20:39Z</time>
      </trkpt>
      <trkpt lat="45.20147" lon="5.72549">
        <ele>485.766</ele>
        <time>2021-03-14T07:20:43Z</time>
      </trkpt>
      <trkpt lat="45.20125" lon="5.72547">
        <ele>483.023</ele>
        <time>2021-03-14T07:20:50Z</time>
      </trkpt>
      <trkpt lat="45.20113" lon="5.72546">
        <ele>479.965</ele>
        <time>2021-03-14T07:20:55Z</time>
      </trkpt>
      <trkpt lat="45.20111" lon="5.72544">
        <ele>479.703</ele>
        <time>2021-03-14T07:20:56Z</time>
      </trkpt>
      <trkpt lat="45.20109" lon="5.72541">
        <ele>478.709</ele>
        <time>2021-03-14T07:20:59Z</time>
      </trkpt>
      <trkpt lat="45.20097" lon="5.72541">
        <ele>475.295</ele>
        <time>2021-03-14T07:21:04Z</time>
      </trkpt>
      <trkpt lat="45.20095" lon="5.72541">
        <ele>475.003</ele>
        <time>2021-03-14T07:21:05Z</time>
      </trkpt>
      <trkpt lat="45.20081" lon="5.72543">
        <ele>473.682</ele>
        <time>2021-03-14T07:21:10Z</time>
      </trkpt>
      <trkpt lat="45.20077" lon="5.72545">
        <ele>472.668</ele>
        <time>2021-03-14T07:21:12Z</time>
      </trkpt>
      <trkpt lat="45.20072" lon="5.72551">
        <ele>470.168</ele>
        <time>2021-03-14T07:21:16Z</time>
      </trkpt>
      <trkpt lat="45.20071" lon="5.72553">
        <ele>470.712</ele>
        <time>2021-03-14T07:21:17Z</time>
      </trkpt>
      <trkpt lat="45.20072" lon="5.72555">
        <ele>469.448</ele>
        <time>2021-03-14T07:21:22Z</time>
      </trkpt>
      <trkpt lat="45.20072" lon="5.72555">
        <ele>469.498</ele>
        <time>2021-03-14T07:21:23Z</time>
      </trkpt>
      <trkpt lat="45.20072" lon="5.72554">
        <ele>469.878</ele>
        <time>2021-03-14T07:21:36Z</time>
      </trkpt>
      <trkpt lat="45.2007" lon="5.72542">
        <ele>471.866</ele>
        <time>2021-03-14T07:21:41Z</time>
      </trkpt>
      <trkpt lat="45.20069" lon="5.72536">
        <ele>472.716</ele>
        <time>2021-03-14T07:21:43Z</time>
      </trkpt>
      <trkpt lat="45.20073" lon="5.72514">
        <ele>472.507</ele>
        <time>2021-03-14T07:21:49Z</time>
      </trkpt>
      <trkpt lat="45.20077" lon="5.72491">
        <ele>471.151</ele>
        <time>2021-03-14T07:21:55Z</time>
      </trkpt>
      <trkpt lat="45.20077" lon="5.72464">
        <ele>469.428</ele>
        <time>2021-03-14T07:22:02Z</time>
      </trkpt>
      <trkpt lat="45.20069" lon="5.72442">
        <ele>467.335</ele>
        <time>2021-03-14T07:22:09Z</time>
      </trkpt>
      <trkpt lat="45.20066" lon="5.72436">
        <ele>466.917</ele>
        <time>2021-03-14T07:22:11Z</time>
      </trkpt>
      <trkpt lat="45.20053" lon="5.72425">
        <ele>464.382</ele>
        <time>2021-03-14T07:22:17Z</time>
      </trkpt>
      <trkpt lat="45.20042" lon="5.72422">
        <ele>463.027</ele>
        <time>2021-03-14T07:22:21Z</time>
      </trkpt>
      <trkpt lat="45.20021" lon="5.7242">
        <ele>461.069</ele>
        <time>2021-03-14T07:22:28Z</time>
      </trkpt>
      <trkpt lat="45.2001" lon="5.72418">
        <ele>458.525</ele>
        <time>2021-03-14T07:22:32Z</time>
      </trkpt>
      <trkpt lat="45.19993" lon="5.72418">
        <ele>456.995</ele>
        <time>2021-03-14T07:22:37Z</time>
      </trkpt>
      <trkpt lat="45.19987" lon="5.72417">
        <ele>455.922</ele>
        <time>2021-03-14T07:22:39Z</time>
      </trkpt>
      <trkpt lat="45.19968" lon="5.72418">
        <ele>454.865</ele>
        <time>2021-03-14T07:22:45Z</time>
      </trkpt>
      <trkpt lat="45.19946" lon="5.7242">
        <ele>452.87</ele>
        <time>2021-03-14T07:22:52Z</time>
      </trkpt>
      <trkpt lat="45.19944" lon="5.7242">
        <ele>452.97</ele>
        <time>2021-03-14T07:22:53Z</time>
      </trkpt>
      <trkpt lat="45.19921" lon="5.72427">
        <ele>453.56</ele>
        <time>2021-03-14T07:23:00Z</time>
      </trkpt>
      <trkpt lat="45.19906" lon="5.72433">
        <ele>455.019</ele>
        <time>2021-03-14T07:23:06Z</time>
      </trkpt>
      <trkpt lat="45.19904" lon="5.72433">
        <ele>454.989</ele>
        <time>2021-03-14T07:23:07Z</time>
      </trkpt>
      <trkpt lat="45.19892" lon="5.72445">
        <ele>456.319</ele>
        <time>2021-03-14T07:23:14Z</time>
      </trkpt>
      <trkpt lat="45.19889" lon="5.72459">
        <ele>456.989</ele>
        <time>2021-03-14T07:23:20Z</time>
      </trkpt>
      <trkpt lat="45.1989" lon="5.72473">
        <ele>457.472</ele>
        <time>2021-03-14T07:23:26Z</time>
      </trkpt>
      <trkpt lat="45.19869" lon="5.72487">
        <ele>457.435</ele>
        <time>2021-03-14T07:23:32Z</time>
      </trkpt>
      <trkpt lat="45.19859" lon="5.72503">
        <ele>456.648</ele>
        <time>2021-03-14T07:23:37Z</time>
      </trkpt>
      <trkpt lat="45.19856" lon="5.72524">
        <ele>455.801</ele>
        <time>2021-03-14T07:23:42Z</time>
      </trkpt>
      <trkpt lat="45.19857" lon="5.72552">
        <ele>453.85</ele>
        <time>2021-03-14T07:23:49Z</time>
      </trkpt>
      <trkpt lat="45.19855" lon="5.72555">
        <ele>453.754</ele>
        <time>2021-03-14T07:23:51Z</time>
      </trkpt>
      <trkpt lat="45.19853" lon="5.72532">
        <ele>451.526</ele>
        <time>2021-03-14T07:23:57Z</time>
      </trkpt>
      <trkpt lat="45.19849" lon="5.7251">
        <ele>449.834</ele>
        <time>2021-03-14T07:24:02Z</time>
      </trkpt>
      <trkpt lat="45.19847" lon="5.72477">
        <ele>448.179</ele>
        <time>2021-03-14T07:24:09Z</time>
      </trkpt>
      <trkpt lat="45.19847" lon="5.72458">
        <ele>445.668</ele>
        <time>2021-03-14T07:24:14Z</time>
      </trkpt>
      <trkpt lat="45.19847" lon="5.72455">
        <ele>445.55</ele>
        <time>2021-03-14T07:24:15Z</time>
      </trkpt>
      <trkpt lat="45.19847" lon="5.72446">
        <ele>444.711</ele>
        <time>2021-03-14T07:24:17Z</time>
      </trkpt>
      <trkpt lat="45.19843" lon="5.72444">
        <ele>443.594</ele>
        <time>2021-03-14T07:24:19Z</time>
      </trkpt>
      <trkpt lat="45.19838" lon="5.72459">
        <ele>442.07</ele>
        <time>2021-03-14T07:24:24Z</time>
      </trkpt>
      <trkpt lat="45.19838" lon="5.72464">
        <ele>442.046</ele>
        <time>2021-03-14T07:24:25Z</time>
      </trkpt>
      <trkpt lat="45.19833" lon="5.72482">
        <ele>441.257</ele>
        <time>2021-03-14T07:24:30Z</time>
      </trkpt>
      <trkpt lat="45.19833" lon="5.72492">
        <ele>439.631</ele>
        <time>2021-03-14T07:24:33Z</time>
      </trkpt>
      <trkpt lat="45.19832" lon="5.72499">
        <ele>438.905</ele>
        <time>2021-03-14T07:24:35Z</time>
      </trkpt>
      <trkpt lat="45.19827" lon="5.72524">
        <ele>436.623</ele>
        <time>2021-03-14T07:24:41Z</time>
      </trkpt>
      <trkpt lat="45.19825" lon="5.72536">
        <ele>435.232</ele>
        <time>2021-03-14T07:24:44Z</time>
      </trkpt>
      <trkpt lat="45.19824" lon="5.72563">
        <ele>433.608</ele>
        <time>2021-03-14T07:24:50Z</time>
      </trkpt>
      <trkpt lat="45.19823" lon="5.72588">
        <ele>432.151</ele>
        <time>2021-03-14T07:24:56Z</time>
      </trkpt>
      <trkpt lat="45.19828" lon="5.72617">
        <ele>430.35</ele>
        <time>2021-03-14T07:25:02Z</time>
      </trkpt>
      <trkpt lat="45.1984" lon="5.72643">
        <ele>428.873</ele>
        <time>2021-03-14T07:25:08Z</time>
      </trkpt>
      <trkpt lat="45.19849" lon="5.72669">
        <ele>426.911</ele>
        <time>2021-03-14T07:25:15Z</time>
      </trkpt>
      <trkpt lat="45.19854" lon="5.7268">
        <ele>425.138</ele>
        <time>2021-03-14T07:25:19Z</time>
      </trkpt>
      <trkpt lat="45.19864" lon="5.72691">
        <ele>423.698</ele>
        <time>2021-03-14T07:25:25Z</time>
      </trkpt>
      <trkpt lat="45.19863" lon="5.7269">
        <ele>423.535</ele>
        <time>2021-03-14T07:25:26Z</time>
      </trkpt>
      <trkpt lat="45.19844" lon="5.72677">
        <ele>422.892</ele>
        <time>2021-03-14T07:25:32Z</time>
      </trkpt>
      <trkpt lat="45.19833" lon="5.72664">
        <ele>421.489</ele>
        <time>2021-03-14T07:25:37Z</time>
      </trkpt>
      <trkpt lat="45.19831" lon="5.7266">
        <ele>420.959</ele>
        <time>2021-03-14T07:25:38Z</time>
      </trkpt>
      <trkpt lat="45.19821" lon="5.72642">
        <ele>419.478</ele>
        <time>2021-03-14T07:25:44Z</time>
      </trkpt>
      <trkpt lat="45.19817" lon="5.72637">
        <ele>418.424</ele>
        <time>2021-03-14T07:25:46Z</time>
      </trkpt>
      <trkpt lat="45.19807" lon="5.7263">
        <ele>416.937</ele>
        <time>2021-03-14T07:25:50Z</time>
      </trkpt>
      <trkpt lat="45.19799" lon="5.72619">
        <ele>416.068</ele>
        <time>2021-03-14T07:25:54Z</time>
      </trkpt>
      <trkpt lat="45.19795" lon="5.72597">
        <ele>414.384</ele>
        <time>2021-03-14T07:26:00Z</time>
      </trkpt>
      <trkpt lat="45.1979" lon="5.72572">
        <ele>412.579</ele>
        <time>2021-03-14T07:26:06Z</time>
      </trkpt>
      <trkpt lat="45.19792" lon="5.72551">
        <ele>410.644</ele>
        <time>2021-03-14T07:26:11Z</time>
      </trkpt>
      <trkpt lat="45.19789" lon="5.72537">
        <ele>410.545</ele>
        <time>2021-03-14T07:26:15Z</time>
      </trkpt>
      <trkpt lat="45.19784" lon="5.7253">
        <ele>409.641</ele>
        <time>2021-03-14T07:26:19Z</time>
      </trkpt>
      <trkpt lat="45.19779" lon="5.72539">
        <ele>407.845</ele>
        <time>2021-03-14T07:26:22Z</time>
      </trkpt>
      <trkpt lat="45.19775" lon="5.72565">
        <ele>407.263</ele>
        <time>2021-03-14T07:26:28Z</time>
      </trkpt>
      <trkpt lat="45.19773" lon="5.72576">
        <ele>405.881</ele>
        <time>2021-03-14T07:26:31Z</time>
      </trkpt>
      <trkpt lat="45.19771" lon="5.72588">
        <ele>405.386</ele>
        <time>2021-03-14T07:26:34Z</time>
      </trkpt>
      <trkpt lat="45.1977" lon="5.72588">
        <ele>404.454</ele>
        <time>2021-03-14T07:26:36Z</time>
      </trkpt>
      <trkpt lat="45.19768" lon="5.72564">
        <ele>403.519</ele>
        <time>2021-03-14T07:26:41Z</time>
      </trkpt>
      <trkpt lat="45.19765" lon="5.72553">
        <ele>401.941</ele>
        <time>2021-03-14T07:26:44Z</time>
      </trkpt>
      <trkpt lat="45.19765" lon="5.72526">
        <ele>399.775</ele>
        <time>2021-03-14T07:26:51Z</time>
      </trkpt>
      <trkpt lat="45.19767" lon="5.72522">
        <ele>399.78</ele>
        <time>2021-03-14T07:26:52Z</time>
      </trkpt>
      <trkpt lat="45.19778" lon="5.72503">
        <ele>398.065</ele>
        <time>2021-03-14T07:26:58Z</time>
      </trkpt>
      <trkpt lat="45.19787" lon="5.7248">
        <ele>397.068</ele>
        <time>2021-03-14T07:27:04Z</time>
      </trkpt>
      <trkpt lat="45.19793" lon="5.72456">
        <ele>396.349</ele>
        <time>2021-03-14T07:27:10Z</time>
      </trkpt>
      <trkpt lat="45.19795" lon="5.72448">
        <ele>395.896</ele>
        <time>2021-03-14T07:27:12Z</time>
      </trkpt>
      <trkpt lat="45.19784" lon="5.72447">
        <ele>395.521</ele>
        <time>2021-03-14T07:27:17Z</time>
      </trkpt>
      <trkpt lat="45.19782" lon="5.72452">
        <ele>395.636</ele>
        <time>2021-03-14T07:27:19Z</time>
      </trkpt>
      <trkpt lat="45.19779" lon="5.72456">
        <ele>396.169</ele>
        <time>2021-03-14T07:27:21Z</time>
      </trkpt>
      <trkpt lat="45.19772" lon="5.7247">
        <ele>395.848</ele>
        <time>2021-03-14T07:27:25Z</time>
      </trkpt>
      <trkpt lat="45.19762" lon="5.72484">
        <ele>395.901</ele>
        <time>2021-03-14T07:27:30Z</time>
      </trkpt>
      <trkpt lat="45.19749" lon="5.72502">
        <ele>396.251</ele>
        <time>2021-03-14T07:27:37Z</time>
      </trkpt>
      <trkpt lat="45.19748" lon="5.72503">
        <ele>396.254</ele>
        <time>2021-03-14T07:27:38Z</time>
      </trkpt>
      <trkpt lat="45.19738" lon="5.72512">
        <ele>395.652</ele>
        <time>2021-03-14T07:27:43Z</time>
      </trkpt>
      <trkpt lat="45.19739" lon="5.72524">
        <ele>396.145</ele>
        <time>2021-03-14T07:27:46Z</time>
      </trkpt>
      <trkpt lat="45.19746" lon="5.72539">
        <ele>396.031</ele>
        <time>2021-03-14T07:27:51Z</time>
      </trkpt>
      <trkpt lat="45.19745" lon="5.72544">
        <ele>396.038</ele>
        <time>2021-03-14T07:27:52Z</time>
      </trkpt>
      <trkpt lat="45.19746" lon="5.72559">
        <ele>395.516</ele>
        <time>2021-03-14T07:27:56Z</time>
      </trkpt>
      <trkpt lat="45.19747" lon="5.72589">
        <ele>396.46</ele>
        <time>2021-03-14T07:28:03Z</time>
      </trkpt>
      <trkpt lat="45.19747" lon="5.72606">
        <ele>396.05</ele>
        <time>2021-03-14T07:28:07Z</time>
      </trkpt>
      <trkpt lat="45.19745" lon="5.72631">
        <ele>397.258</ele>
        <time>2021-03-14T07:28:14Z</time>
      </trkpt>
      <trkpt lat="45.19757" lon="5.72641">
        <ele>396.357</ele>
        <time>2021-03-14T07:28:19Z</time>
      </trkpt>
      <trkpt lat="45.19775" lon="5.72664">
        <ele>396.539</ele>
        <time>2021-03-14T07:28:27Z</time>
      </trkpt>
      <trkpt lat="45.19789" lon="5.7268">
        <ele>396.257</ele>
        <time>2021-03-14T07:28:33Z</time>
      </trkpt>
      <trkpt lat="45.19801" lon="5.7269">
        <ele>396.906</ele>
        <time>2021-03-14T07:28:38Z</time>
      </trkpt>
      <trkpt lat="45.19815" lon="5.72701">
        <ele>396.881</ele>
        <time>2021-03-14T07:28:44Z</time>
      </trkpt>
      <trkpt lat="45.1983" lon="5.72715">
        <ele>397.455</ele>
        <time>2021-03-14T07:28:50Z</time>
      </trkpt>
      <trkpt lat="45.19838" lon="5.72736">
        <ele>397.899</ele>
        <time>2021-03-14T07:28:55Z</time>
      </trkpt>
      <trkpt lat="45.19845" lon="5.72751">
        <ele>398.663</ele>
        <time>2021-03-14T07:29:01Z</time>
      </trkpt>
      <trkpt lat="45.19849" lon="5.7276">
        <ele>396.335</ele>
        <time>2021-03-14T07:29:06Z</time>
      </trkpt>
      <trkpt lat="45.19863" lon="5.7274">
        <ele>394.784</ele>
        <time>2021-03-14T07:29:09Z</time>
      </trkpt>
      <trkpt lat="45.19865" lon="5.72756">
        <ele>393.171</ele>
        <time>2021-03-14T07:29:16Z</time>
      </trkpt>
      <trkpt lat="45.19862" lon="5.72761">
        <ele>392.357</ele>
        <time>2021-03-14T07:29:19Z</time>
      </trkpt>
      <trkpt lat="45.19861" lon="5.72755">
        <ele>388.5</ele>
        <time>2021-03-14T07:29:23Z</time>
      </trkpt>
      <trkpt lat="45.1986" lon="5.72754">
        <ele>388.512</ele>
        <time>2021-03-14T07:29:24Z</time>
      </trkpt>
      <trkpt lat="45.19858" lon="5.72754">
        <ele>388.44</ele>
        <time>2021-03-14T07:29:26Z</time>
      </trkpt>
      <trkpt lat="45.19855" lon="5.72759">
        <ele>387.206</ele>
        <time>2021-03-14T07:29:29Z</time>
      </trkpt>
      <trkpt lat="45.19852" lon="5.72759">
        <ele>386.045</ele>
        <time>2021-03-14T07:29:31Z</time>
      </trkpt>
      <trkpt lat="45.19849" lon="5.72772">
        <ele>384.745</ele>
        <time>2021-03-14T07:29:38Z</time>
      </trkpt>
      <trkpt lat="45.19848" lon="5.72782">
        <ele>381.44</ele>
        <time>2021-03-14T07:29:43Z</time>
      </trkpt>
      <trkpt lat="45.19848" lon="5.72783">
        <ele>381.44</ele>
        <time>2021-03-14T07:29:44Z</time>
      </trkpt>
      <trkpt lat="45.19846" lon="5.72791">
        <ele>378.026</ele>
        <time>2021-03-14T07:29:48Z</time>
      </trkpt>
      <trkpt lat="45.19846" lon="5.72792">
        <ele>378.182</ele>
        <time>2021-03-14T07:29:49Z</time>
      </trkpt>
      <trkpt lat="45.19845" lon="5.72798">
        <ele>374.652</ele>
        <time>2021-03-14T07:29:52Z</time>
      </trkpt>
      <trkpt lat="45.19845" lon="5.728">
        <ele>374.385</ele>
        <time>2021-03-14T07:29:53Z</time>
      </trkpt>
      <trkpt lat="45.19855" lon="5.7278">
        <ele>372.593</ele>
        <time>2021-03-14T07:29:56Z</time>
      </trkpt>
      <trkpt lat="45.19853" lon="5.72779">
        <ele>372.546</ele>
        <time>2021-03-14T07:29:57Z</time>
      </trkpt>
      <trkpt lat="45.19844" lon="5.72777">
        <ele>366.598</ele>
        <time>2021-03-14T07:30:03Z</time>
      </trkpt>
      <trkpt lat="45.19844" lon="5.72775">
        <ele>371.277</ele>
        <time>2021-03-14T07:30:04Z</time>
      </trkpt>
      <trkpt lat="45.19845" lon="5.72774">
        <ele>368.374</ele>
        <time>2021-03-14T07:30:06Z</time>
      </trkpt>
      <trkpt lat="45.19853" lon="5.72782">
        <ele>367.041</ele>
        <time>2021-03-14T07:30:12Z</time>
      </trkpt>
      <trkpt lat="45.19838" lon="5.72768">
        <ele>365.117</ele>
        <time>2021-03-14T07:30:17Z</time>
      </trkpt>
      <trkpt lat="45.19825" lon="5.72756">
        <ele>363.208</ele>
        <time>2021-03-14T07:30:22Z</time>
      </trkpt>
      <trkpt lat="45.19812" lon="5.72737">
        <ele>362.57</ele>
        <time>2021-03-14T07:30:28Z</time>
      </trkpt>
      <trkpt lat="45.19802" lon="5.72727">
        <ele>361.476</ele>
        <time>2021-03-14T07:30:32Z</time>
      </trkpt>
      <trkpt lat="45.19793" lon="5.72735">
        <ele>360.264</ele>
        <time>2021-03-14T07:30:37Z</time>
      </trkpt>
      <trkpt lat="45.19803" lon="5.7275">
        <ele>358.585</ele>
        <time>2021-03-14T07:30:41Z</time>
      </trkpt>
      <trkpt lat="45.19814" lon="5.72765">
        <ele>355.985</ele>
        <time>2021-03-14T07:30:46Z</time>
      </trkpt>
      <trkpt lat="45.19829" lon="5.72785">
        <ele>353.118</ele>
        <time>2021-03-14T07:30:53Z</time>
      </trkpt>
      <trkpt lat="45.19842" lon="5.72801">
        <ele>350.168</ele>
        <time>2021-03-14T07:30:59Z</time>
      </trkpt>
      <trkpt lat="45.19844" lon="5.72803">
        <ele>350.014</ele>
        <time>2021-03-14T07:31:00Z</time>
      </trkpt>
      <trkpt lat="45.19845" lon="5.72805">
        <ele>349.079</ele>
        <time>2021-03-14T07:31:02Z</time>
      </trkpt>
      <trkpt lat="45.19833" lon="5.7279">
        <ele>348.217</ele>
        <time>2021-03-14T07:31:07Z</time>
      </trkpt>
      <trkpt lat="45.19813" lon="5.7278">
        <ele>345.829</ele>
        <time>2021-03-14T07:31:14Z</time>
      </trkpt>
      <trkpt lat="45.19806" lon="5.72773">
        <ele>345.494</ele>
        <time>2021-03-14T07:31:17Z</time>
      </trkpt>
      <trkpt lat="45.19801" lon="5.72774">
        <ele>344.123</ele>
        <time>2021-03-14T07:31:20Z</time>
      </trkpt>
      <trkpt lat="45.19809" lon="5.7279">
        <ele>342.998</ele>
        <time>2021-03-14T07:31:25Z</time>
      </trkpt>
      <trkpt lat="45.19825" lon="5.72808">
        <ele>340.119</ele>
        <time>2021-03-14T07:31:32Z</time>
      </trkpt>
      <trkpt lat="45.19832" lon="5.72816">
        <ele>338.655</ele>
        <time>2021-03-14T07:31:35Z</time>
      </trkpt>
      <trkpt lat="45.1984" lon="5.72826">
        <ele>337.373</ele>
        <time>2021-03-14T07:31:38Z</time>
      </trkpt>
      <trkpt lat="45.19848" lon="5.7283">
        <ele>335.671</ele>
        <time>2021-03-14T07:31:42Z</time>
      </trkpt>
      <trkpt lat="45.19838" lon="5.72819">
        <ele>333.837</ele>
        <time>2021-03-14T07:31:46Z</time>
      </trkpt>
      <trkpt lat="45.19827" lon="5.72811">
        <ele>332.124</ele>
        <time>2021-03-14T07:31:50Z</time>
      </trkpt>
      <trkpt lat="45.19821" lon="5.7281">
        <ele>331.59</ele>
        <time>2021-03-14T07:31:55Z</time>
      </trkpt>
      <trkpt lat="45.19835" lon="5.72826">
        <ele>329.944</ele>
        <time>2021-03-14T07:32:01Z</time>
      </trkpt>
      <trkpt lat="45.19836" lon="5.72833">
        <ele>328.271</ele>
        <time>2021-03-14T07:32:05Z</time>
      </trkpt>
      <trkpt lat="45.19814" lon="5.72829">
        <ele>327.646</ele>
        <time>2021-03-14T07:32:11Z</time>
      </trkpt>
      <trkpt lat="45.19797" lon="5.72818">
        <ele>324.836</ele>
        <time>2021-03-14T07:32:17Z</time>
      </trkpt>
      <trkpt lat="45.19791" lon="5.7281">
        <ele>323.959</ele>
        <time>2021-03-14T07:32:20Z</time>
      </trkpt>
      <trkpt lat="45.19795" lon="5.72822">
        <ele>323.307</ele>
        <time>2021-03-14T07:32:25Z</time>
      </trkpt>
      <trkpt lat="45.19811" lon="5.72833">
        <ele>323.306</ele>
        <time>2021-03-14T07:32:30Z</time>
      </trkpt>
      <trkpt lat="45.19819" lon="5.7284">
        <ele>322.385</ele>
        <time>2021-03-14T07:32:33Z</time>
      </trkpt>
      <trkpt lat="45.19824" lon="5.72846">
        <ele>320.911</ele>
        <time>2021-03-14T07:32:37Z</time>
      </trkpt>
      <trkpt lat="45.19811" lon="5.72839">
        <ele>319.307</ele>
        <time>2021-03-14T07:32:41Z</time>
      </trkpt>
      <trkpt lat="45.19808" lon="5.72836">
        <ele>318.977</ele>
        <time>2021-03-14T07:32:42Z</time>
      </trkpt>
      <trkpt lat="45.19791" lon="5.72822">
        <ele>316.142</ele>
        <time>2021-03-14T07:32:49Z</time>
      </trkpt>
      <trkpt lat="45.19777" lon="5.72811">
        <ele>313.635</ele>
        <time>2021-03-14T07:32:55Z</time>
      </trkpt>
      <trkpt lat="45.19775" lon="5.72809">
        <ele>313.417</ele>
        <time>2021-03-14T07:32:56Z</time>
      </trkpt>
      <trkpt lat="45.1976" lon="5.72798">
        <ele>311.123</ele>
        <time>2021-03-14T07:33:02Z</time>
      </trkpt>
      <trkpt lat="45.19759" lon="5.72811">
        <ele>311.14</ele>
        <time>2021-03-14T07:33:06Z</time>
      </trkpt>
      <trkpt lat="45.19768" lon="5.72827">
        <ele>309</ele>
        <time>2021-03-14T07:33:11Z</time>
      </trkpt>
      <trkpt lat="45.19777" lon="5.72837">
        <ele>307.65</ele>
        <time>2021-03-14T07:33:15Z</time>
      </trkpt>
      <trkpt lat="45.19786" lon="5.72852">
        <ele>306.92</ele>
        <time>2021-03-14T07:33:19Z</time>
      </trkpt>
      <trkpt lat="45.19788" lon="5.72859">
        <ele>304.98</ele>
        <time>2021-03-14T07:33:21Z</time>
      </trkpt>
      <trkpt lat="45.19799" lon="5.72868">
        <ele>303.055</ele>
        <time>2021-03-14T07:33:26Z</time>
      </trkpt>
      <trkpt lat="45.19808" lon="5.72881">
        <ele>300.784</ele>
        <time>2021-03-14T07:33:32Z</time>
      </trkpt>
      <trkpt lat="45.19806" lon="5.7288">
        <ele>299.979</ele>
        <time>2021-03-14T07:33:34Z</time>
      </trkpt>
      <trkpt lat="45.19785" lon="5.72869">
        <ele>298.732</ele>
        <time>2021-03-14T07:33:40Z</time>
      </trkpt>
      <trkpt lat="45.19779" lon="5.72866">
        <ele>298.248</ele>
        <time>2021-03-14T07:33:42Z</time>
      </trkpt>
      <trkpt lat="45.19767" lon="5.72855">
        <ele>295.804</ele>
        <time>2021-03-14T07:33:47Z</time>
      </trkpt>
      <trkpt lat="45.19764" lon="5.7285">
        <ele>295.114</ele>
        <time>2021-03-14T07:33:49Z</time>
      </trkpt>
      <trkpt lat="45.19755" lon="5.72834">
        <ele>293.474</ele>
        <time>2021-03-14T07:33:55Z</time>
      </trkpt>
      <trkpt lat="45.19748" lon="5.72836">
        <ele>291.792</ele>
        <time>2021-03-14T07:33:59Z</time>
      </trkpt>
      <trkpt lat="45.19754" lon="5.72858">
        <ele>290.786</ele>
        <time>2021-03-14T07:34:05Z</time>
      </trkpt>
      <trkpt lat="45.19768" lon="5.72882">
        <ele>288.647</ele>
        <time>2021-03-14T07:34:10Z</time>
      </trkpt>
      <trkpt lat="45.19779" lon="5.72895">
        <ele>286.867</ele>
        <time>2021-03-14T07:34:16Z</time>
      </trkpt>
      <trkpt lat="45.19781" lon="5.72897">
        <ele>286.405</ele>
        <time>2021-03-14T07:34:17Z</time>
      </trkpt>
      <trkpt lat="45.19794" lon="5.72913">
        <ele>284.713</ele>
        <time>2021-03-14T07:34:22Z</time>
      </trkpt>
      <trkpt lat="45.19797" lon="5.72916">
        <ele>284.365</ele>
        <time>2021-03-14T07:34:23Z</time>
      </trkpt>
      <trkpt lat="45.19802" lon="5.72925">
        <ele>282.59</ele>
        <time>2021-03-14T07:34:28Z</time>
      </trkpt>
      <trkpt lat="45.19785" lon="5.72911">
        <ele>279.614</ele>
        <time>2021-03-14T07:34:34Z</time>
      </trkpt>
      <trkpt lat="45.19781" lon="5.7291">
        <ele>279.456</ele>
        <time>2021-03-14T07:34:35Z</time>
      </trkpt>
      <trkpt lat="45.19763" lon="5.72903">
        <ele>277.271</ele>
        <time>2021-03-14T07:34:41Z</time>
      </trkpt>
      <trkpt lat="45.19743" lon="5.72883">
        <ele>275.103</ele>
        <time>2021-03-14T07:34:49Z</time>
      </trkpt>
      <trkpt lat="45.19736" lon="5.72877">
        <ele>273.717</ele>
        <time>2021-03-14T07:34:52Z</time>
      </trkpt>
      <trkpt lat="45.19723" lon="5.72864">
        <ele>271.614</ele>
        <time>2021-03-14T07:34:58Z</time>
      </trkpt>
      <trkpt lat="45.19702" lon="5.72854">
        <ele>269.73</ele>
        <time>2021-03-14T07:35:05Z</time>
      </trkpt>
      <trkpt lat="45.19693" lon="5.72855">
        <ele>268.647</ele>
        <time>2021-03-14T07:35:08Z</time>
      </trkpt>
      <trkpt lat="45.19698" lon="5.72871">
        <ele>267.031</ele>
        <time>2021-03-14T07:35:14Z</time>
      </trkpt>
      <trkpt lat="45.19705" lon="5.72883">
        <ele>265.395</ele>
        <time>2021-03-14T07:35:17Z</time>
      </trkpt>
      <trkpt lat="45.19722" lon="5.729">
        <ele>263.497</ele>
        <time>2021-03-14T07:35:23Z</time>
      </trkpt>
      <trkpt lat="45.1973" lon="5.7291">
        <ele>262.937</ele>
        <time>2021-03-14T07:35:26Z</time>
      </trkpt>
      <trkpt lat="45.19741" lon="5.72934">
        <ele>260.03</ele>
        <time>2021-03-14T07:35:33Z</time>
      </trkpt>
      <trkpt lat="45.19753" lon="5.72958">
        <ele>258.221</ele>
        <time>2021-03-14T07:35:39Z</time>
      </trkpt>
      <trkpt lat="45.19759" lon="5.7297">
        <ele>256.947</ele>
        <time>2021-03-14T07:35:42Z</time>
      </trkpt>
      <trkpt lat="45.19765" lon="5.72985">
        <ele>254.398</ele>
        <time>2021-03-14T07:35:47Z</time>
      </trkpt>
      <trkpt lat="45.19766" lon="5.72988">
        <ele>254.175</ele>
        <time>2021-03-14T07:35:48Z</time>
      </trkpt>
      <trkpt lat="45.19775" lon="5.73">
        <ele>253.476</ele>
        <time>2021-03-14T07:35:52Z</time>
      </trkpt>
      <trkpt lat="45.19779" lon="5.73004">
        <ele>252.301</ele>
        <time>2021-03-14T07:35:54Z</time>
      </trkpt>
      <trkpt lat="45.19794" lon="5.73012">
        <ele>251.26</ele>
        <time>2021-03-14T07:36:00Z</time>
      </trkpt>
      <trkpt lat="45.19796" lon="5.73014">
        <ele>250.82</ele>
        <time>2021-03-14T07:36:01Z</time>
      </trkpt>
      <trkpt lat="45.19807" lon="5.7302">
        <ele>249.129</ele>
        <time>2021-03-14T07:36:05Z</time>
      </trkpt>
      <trkpt lat="45.19808" lon="5.73025">
        <ele>248.534</ele>
        <time>2021-03-14T07:36:07Z</time>
      </trkpt>
      <trkpt lat="45.19795" lon="5.73021">
        <ele>247.367</ele>
        <time>2021-03-14T07:36:12Z</time>
      </trkpt>
      <trkpt lat="45.19793" lon="5.73019">
        <ele>246.674</ele>
        <time>2021-03-14T07:36:13Z</time>
      </trkpt>
      <trkpt lat="45.19786" lon="5.73011">
        <ele>246.293</ele>
        <time>2021-03-14T07:36:16Z</time>
      </trkpt>
      <trkpt lat="45.19776" lon="5.73008">
        <ele>244.802</ele>
        <time>2021-03-14T07:36:19Z</time>
      </trkpt>
      <trkpt lat="45.19771" lon="5.73005">
        <ele>243.085</ele>
        <time>2021-03-14T07:36:23Z</time>
      </trkpt>
      <trkpt lat="45.19772" lon="5.73009">
        <ele>242.299</ele>
        <time>2021-03-14T07:36:25Z</time>
      </trkpt>
      <trkpt lat="45.19789" lon="5.73019">
        <ele>241.044</ele>
        <time>2021-03-14T07:36:32Z</time>
      </trkpt>
      <trkpt lat="45.19803" lon="5.73028">
        <ele>239.573</ele>
        <time>2021-03-14T07:36:37Z</time>
      </trkpt>
      <trkpt lat="45.19809" lon="5.7304">
        <ele>237.993</ele>
        <time>2021-03-14T07:36:43Z</time>
      </trkpt>
      <trkpt lat="45.19807" lon="5.73038">
        <ele>238.054</ele>
        <time>2021-03-14T07:36:44Z</time>
      </trkpt>
      <trkpt lat="45.19795" lon="5.73032">
        <ele>235.772</ele>
        <time>2021-03-14T07:36:48Z</time>
      </trkpt>
      <trkpt lat="45.19785" lon="5.7303">
        <ele>235.094</ele>
        <time>2021-03-14T07:36:52Z</time>
      </trkpt>
      <trkpt lat="45.19763" lon="5.73025">
        <ele>231.972</ele>
        <time>2021-03-14T07:36:59Z</time>
      </trkpt>
      <trkpt lat="45.19759" lon="5.73027">
        <ele>231.067</ele>
        <time>2021-03-14T07:37:02Z</time>
      </trkpt>
      <trkpt lat="45.19778" lon="5.73041">
        <ele>229.389</ele>
        <time>2021-03-14T07:37:09Z</time>
      </trkpt>
      <trkpt lat="45.19794" lon="5.73055">
        <ele>226.401</ele>
        <time>2021-03-14T07:37:16Z</time>
      </trkpt>
      <trkpt lat="45.19801" lon="5.7306">
        <ele>225.777</ele>
        <time>2021-03-14T07:37:20Z</time>
      </trkpt>
      <trkpt lat="45.19781" lon="5.73054">
        <ele>222.821</ele>
        <time>2021-03-14T07:37:26Z</time>
      </trkpt>
      <trkpt lat="45.19766" lon="5.73049">
        <ele>221.382</ele>
        <time>2021-03-14T07:37:32Z</time>
      </trkpt>
      <trkpt lat="45.1976" lon="5.73046">
        <ele>220.048</ele>
        <time>2021-03-14T07:37:34Z</time>
      </trkpt>
      <trkpt lat="45.19756" lon="5.73051">
        <ele>218.886</ele>
        <time>2021-03-14T07:37:37Z</time>
      </trkpt>
      <trkpt lat="45.19776" lon="5.73069">
        <ele>216.649</ele>
        <time>2021-03-14T07:37:44Z</time>
      </trkpt>
      <trkpt lat="45.19788" lon="5.73071">
        <ele>215.716</ele>
        <time>2021-03-14T07:37:49Z</time>
      </trkpt>
      <trkpt lat="45.198" lon="5.73082">
        <ele>214.17</ele>
        <time>2021-03-14T07:37:54Z</time>
      </trkpt>
      <trkpt lat="45.19808" lon="5.73088">
        <ele>212.518</ele>
        <time>2021-03-14T07:37:57Z</time>
      </trkpt>
      <trkpt lat="45.19809" lon="5.73098">
        <ele>212.568</ele>
        <time>2021-03-14T07:37:59Z</time>
      </trkpt>
      <trkpt lat="45.19791" lon="5.73105">
        <ele>211.08</ele>
        <time>2021-03-14T07:38:03Z</time>
      </trkpt>
      <trkpt lat="45.19783" lon="5.73105">
        <ele>209.898</ele>
        <time>2021-03-14T07:38:05Z</time>
      </trkpt>
      <trkpt lat="45.1976" lon="5.73108">
        <ele>207.494</ele>
        <time>2021-03-14T07:38:11Z</time>
      </trkpt>
      <trkpt lat="45.19757" lon="5.731">
        <ele>206.404</ele>
        <time>2021-03-14T07:38:17Z</time>
      </trkpt>
      <trkpt lat="45.19765" lon="5.73109">
        <ele>205.516</ele>
        <time>2021-03-14T07:38:22Z</time>
      </trkpt>
      <trkpt lat="45.19775" lon="5.73115">
        <ele>203.118</ele>
        <time>2021-03-14T07:38:27Z</time>
      </trkpt>
      <trkpt lat="45.19779" lon="5.73124">
        <ele>202.841</ele>
        <time>2021-03-14T07:38:30Z</time>
      </trkpt>
      <trkpt lat="45.19786" lon="5.73121">
        <ele>201.844</ele>
        <time>2021-03-14T07:38:32Z</time>
      </trkpt>
      <trkpt lat="45.19797" lon="5.73126">
        <ele>201.062</ele>
        <time>2021-03-14T07:38:37Z</time>
      </trkpt>
      <trkpt lat="45.19791" lon="5.7313">
        <ele>199.178</ele>
        <time>2021-03-14T07:38:42Z</time>
      </trkpt>
      <trkpt lat="45.19785" lon="5.73143">
        <ele>197.914</ele>
        <time>2021-03-14T07:38:46Z</time>
      </trkpt>
      <trkpt lat="45.19775" lon="5.73183">
        <ele>194.304</ele>
        <time>2021-03-14T07:38:53Z</time>
      </trkpt>
      <trkpt lat="45.19775" lon="5.73203">
        <ele>193.416</ele>
        <time>2021-03-14T07:38:58Z</time>
      </trkpt>
      <trkpt lat="45.19778" lon="5.73215">
        <ele>193.062</ele>
        <time>2021-03-14T07:39:03Z</time>
      </trkpt>
      <trkpt lat="45.1978" lon="5.73234">
        <ele>193.768</ele>
        <time>2021-03-14T07:39:11Z</time>
      </trkpt>
      <trkpt lat="45.19766" lon="5.73258">
        <ele>195.604</ele>
        <time>2021-03-14T07:39:17Z</time>
      </trkpt>
      <trkpt lat="45.19759" lon="5.73269">
        <ele>196.101</ele>
        <time>2021-03-14T07:39:22Z</time>
      </trkpt>
      <trkpt lat="45.19753" lon="5.7329">
        <ele>196.482</ele>
        <time>2021-03-14T07:39:28Z</time>
      </trkpt>
      <trkpt lat="45.19744" lon="5.73316">
        <ele>195.981</ele>
        <time>2021-03-14T07:39:35Z</time>
      </trkpt>
      <trkpt lat="45.19737" lon="5.73342">
        <ele>196.362</ele>
        <time>2021-03-14T07:39:42Z</time>
      </trkpt>
      <trkpt lat="45.19733" lon="5.73358">
        <ele>195.484</ele>
        <time>2021-03-14T07:39:47Z</time>
      </trkpt>
      <trkpt lat="45.19732" lon="5.73361">
        <ele>196.395</ele>
        <time>2021-03-14T07:39:48Z</time>
      </trkpt>
      <trkpt lat="45.19747" lon="5.73367">
        <ele>195.073</ele>
        <time>2021-03-14T07:39:54Z</time>
      </trkpt>
      <trkpt lat="45.19771" lon="5.73372">
        <ele>194.281</ele>
        <time>2021-03-14T07:40:02Z</time>
      </trkpt>
      <trkpt lat="45.1979" lon="5.73376">
        <ele>193.114</ele>
        <time>2021-03-14T07:40:08Z</time>
      </trkpt>
      <trkpt lat="45.19804" lon="5.73379">
        <ele>195.198</ele>
        <time>2021-03-14T07:40:14Z</time>
      </trkpt>
      <trkpt lat="45.19809" lon="5.7338">
        <ele>193.483</ele>
        <time>2021-03-14T07:40:16Z</time>
      </trkpt>
      <trkpt lat="45.19824" lon="5.73388">
        <ele>193.851</ele>
        <time>2021-03-14T07:40:23Z</time>
      </trkpt>
      <trkpt lat="45.19839" lon="5.73392">
        <ele>193.291</ele>
        <time>2021-03-14T07:40:28Z</time>
      </trkpt>
      <trkpt lat="45.19857" lon="5.73398">
        <ele>194.262</ele>
        <time>2021-03-14T07:40:34Z</time>
      </trkpt>
      <trkpt lat="45.19866" lon="5.73401">
        <ele>194.166</ele>
        <time>2021-03-14T07:40:39Z</time>
      </trkpt>
      <trkpt lat="45.19881" lon="5.73406">
        <ele>195.07</ele>
        <time>2021-03-14T07:40:45Z</time>
      </trkpt>
      <trkpt lat="45.19903" lon="5.73408">
        <ele>194.608</ele>
        <time>2021-03-14T07:40:49Z</time>
      </trkpt>
      <trkpt lat="45.19922" lon="5.73416">
        <ele>194.484</ele>
        <time>2021-03-14T07:40:56Z</time>
      </trkpt>
      <trkpt lat="45.19944" lon="5.73422">
        <ele>194.051</ele>
        <time>2021-03-14T07:41:03Z</time>
      </trkpt>
      <trkpt lat="45.1996" lon="5.73427">
        <ele>195.228</ele>
        <time>2021-03-14T07:41:09Z</time>
      </trkpt>
      <trkpt lat="45.1998" lon="5.73433">
        <ele>195.567</ele>
        <time>2021-03-14T07:41:16Z</time>
      </trkpt>
      <trkpt lat="45.19994" lon="5.73442">
        <ele>194.44</ele>
        <time>2021-03-14T07:41:22Z</time>
      </trkpt>
      <trkpt lat="45.2001" lon="5.73451">
        <ele>194.971</ele>
        <time>2021-03-14T07:41:28Z</time>
      </trkpt>
      <trkpt lat="45.20022" lon="5.73458">
        <ele>194.815</ele>
        <time>2021-03-14T07:41:33Z</time>
      </trkpt>
      <trkpt lat="45.20024" lon="5.73459">
        <ele>193.511</ele>
        <time>2021-03-14T07:41:34Z</time>
      </trkpt>
      <trkpt lat="45.20032" lon="5.73467">
        <ele>194.981</ele>
        <time>2021-03-14T07:41:38Z</time>
      </trkpt>
      <trkpt lat="45.20045" lon="5.73475">
        <ele>194.973</ele>
        <time>2021-03-14T07:41:42Z</time>
      </trkpt>
      <trkpt lat="45.20057" lon="5.73489">
        <ele>195.127</ele>
        <time>2021-03-14T07:41:48Z</time>
      </trkpt>
      <trkpt lat="45.20073" lon="5.73504">
        <ele>195.462</ele>
        <time>2021-03-14T07:41:54Z</time>
      </trkpt>
      <trkpt lat="45.20078" lon="5.73508">
        <ele>194.78</ele>
        <time>2021-03-14T07:41:56Z</time>
      </trkpt>
      <trkpt lat="45.2009" lon="5.73528">
        <ele>195.084</ele>
        <time>2021-03-14T07:42:03Z</time>
      </trkpt>
      <trkpt lat="45.20094" lon="5.73538">
        <ele>195.62</ele>
        <time>2021-03-14T07:42:06Z</time>
      </trkpt>
      <trkpt lat="45.20119" lon="5.73557">
        <ele>195.45</ele>
        <time>2021-03-14T07:42:14Z</time>
      </trkpt>
      <trkpt lat="45.20132" lon="5.73579">
        <ele>195.783</ele>
        <time>2021-03-14T07:42:20Z</time>
      </trkpt>
      <trkpt lat="45.20145" lon="5.73592">
        <ele>195.737</ele>
        <time>2021-03-14T07:42:25Z</time>
      </trkpt>
      <trkpt lat="45.20157" lon="5.73608">
        <ele>196.452</ele>
        <time>2021-03-14T07:42:30Z</time>
      </trkpt>
      <trkpt lat="45.20162" lon="5.73615">
        <ele>196.087</ele>
        <time>2021-03-14T07:42:32Z</time>
      </trkpt>
      <trkpt lat="45.20164" lon="5.73638">
        <ele>195.647</ele>
        <time>2021-03-14T07:42:38Z</time>
      </trkpt>
      <trkpt lat="45.20173" lon="5.73664">
        <ele>195.736</ele>
        <time>2021-03-14T07:42:45Z</time>
      </trkpt>
      <trkpt lat="45.20173" lon="5.73668">
        <ele>195.807</ele>
        <time>2021-03-14T07:42:46Z</time>
      </trkpt>
      <trkpt lat="45.20175" lon="5.73702">
        <ele>196.351</ele>
        <time>2021-03-14T07:42:54Z</time>
      </trkpt>
      <trkpt lat="45.20181" lon="5.73726">
        <ele>196.546</ele>
        <time>2021-03-14T07:43:01Z</time>
      </trkpt>
      <trkpt lat="45.20184" lon="5.73749">
        <ele>196.13</ele>
        <time>2021-03-14T07:43:06Z</time>
      </trkpt>
      <trkpt lat="45.20183" lon="5.73774">
        <ele>196.183</ele>
        <time>2021-03-14T07:43:12Z</time>
      </trkpt>
      <trkpt lat="45.20177" lon="5.73806">
        <ele>196.454</ele>
        <time>2021-03-14T07:43:19Z</time>
      </trkpt>
      <trkpt lat="45.2017" lon="5.73829">
        <ele>196.644</ele>
        <time>2021-03-14T07:43:26Z</time>
      </trkpt>
      <trkpt lat="45.20172" lon="5.73833">
        <ele>195.731</ele>
        <time>2021-03-14T07:43:28Z</time>
      </trkpt>
      <trkpt lat="45.20172" lon="5.73844">
        <ele>194.928</ele>
        <time>2021-03-14T07:43:32Z</time>
      </trkpt>
      <trkpt lat="45.20167" lon="5.73858">
        <ele>194.678</ele>
        <time>2021-03-14T07:43:38Z</time>
      </trkpt>
      <trkpt lat="45.20158" lon="5.73878">
        <ele>195.211</ele>
        <time>2021-03-14T07:43:45Z</time>
      </trkpt>
      <trkpt lat="45.20149" lon="5.73898">
        <ele>194.921</ele>
        <time>2021-03-14T07:43:52Z</time>
      </trkpt>
      <trkpt lat="45.20141" lon="5.73914">
        <ele>195.738</ele>
        <time>2021-03-14T07:43:57Z</time>
      </trkpt>
      <trkpt lat="45.20129" lon="5.73929">
        <ele>195.936</ele>
        <time>2021-03-14T07:44:03Z</time>
      </trkpt>
      <trkpt lat="45.2012" lon="5.73945">
        <ele>195.523</ele>
        <time>2021-03-14T07:44:10Z</time>
      </trkpt>
      <trkpt lat="45.20112" lon="5.73961">
        <ele>194.507</ele>
        <time>2021-03-14T07:44:15Z</time>
      </trkpt>
      <trkpt lat="45.20093" lon="5.73986">
        <ele>194.203</ele>
        <time>2021-03-14T07:44:23Z</time>
      </trkpt>
      <trkpt lat="45.20083" lon="5.73998">
        <ele>194.317</ele>
        <time>2021-03-14T07:44:29Z</time>
      </trkpt>
      <trkpt lat="45.20077" lon="5.74011">
        <ele>194.561</ele>
        <time>2021-03-14T07:44:35Z</time>
      </trkpt>
      <trkpt lat="45.20067" lon="5.74024">
        <ele>194.937</ele>
        <time>2021-03-14T07:44:41Z</time>
      </trkpt>
      <trkpt lat="45.20057" lon="5.74034">
        <ele>195.346</ele>
        <time>2021-03-14T07:44:45Z</time>
      </trkpt>
      <trkpt lat="45.20051" lon="5.74046">
        <ele>195.112</ele>
        <time>2021-03-14T07:44:49Z</time>
      </trkpt>
      <trkpt lat="45.2003" lon="5.7407">
        <ele>195.321</ele>
        <time>2021-03-14T07:44:56Z</time>
      </trkpt>
      <trkpt lat="45.20026" lon="5.74085">
        <ele>195.521</ele>
        <time>2021-03-14T07:45:03Z</time>
      </trkpt>
      <trkpt lat="45.20019" lon="5.74091">
        <ele>195.552</ele>
        <time>2021-03-14T07:45:06Z</time>
      </trkpt>
      <trkpt lat="45.20006" lon="5.74108">
        <ele>196.025</ele>
        <time>2021-03-14T07:45:13Z</time>
      </trkpt>
      <trkpt lat="45.19997" lon="5.74121">
        <ele>197.704</ele>
        <time>2021-03-14T07:45:19Z</time>
      </trkpt>
      <trkpt lat="45.19994" lon="5.74123">
        <ele>197.621</ele>
        <time>2021-03-14T07:45:20Z</time>
      </trkpt>
      <trkpt lat="45.19976" lon="5.74135">
        <ele>198.895</ele>
        <time>2021-03-14T07:45:27Z</time>
      </trkpt>
      <trkpt lat="45.19962" lon="5.74148">
        <ele>198.454</ele>
        <time>2021-03-14T07:45:32Z</time>
      </trkpt>
      <trkpt lat="45.19946" lon="5.74163">
        <ele>198.484</ele>
        <time>2021-03-14T07:45:38Z</time>
      </trkpt>
      <trkpt lat="45.19929" lon="5.74174">
        <ele>198.785</ele>
        <time>2021-03-14T07:45:45Z</time>
      </trkpt>
      <trkpt lat="45.19913" lon="5.74185">
        <ele>198.351</ele>
        <time>2021-03-14T07:45:51Z</time>
      </trkpt>
      <trkpt lat="45.19898" lon="5.74194">
        <ele>198.425</ele>
        <time>2021-03-14T07:45:57Z</time>
      </trkpt>
      <trkpt lat="45.19878" lon="5.74204">
        <ele>198.726</ele>
        <time>2021-03-14T07:46:04Z</time>
      </trkpt>
      <trkpt lat="45.19859" lon="5.7421">
        <ele>199.01</ele>
        <time>2021-03-14T07:46:11Z</time>
      </trkpt>
      <trkpt lat="45.19848" lon="5.74219">
        <ele>198.939</ele>
        <time>2021-03-14T07:46:17Z</time>
      </trkpt>
      <trkpt lat="45.1983" lon="5.74229">
        <ele>198.568</ele>
        <time>2021-03-14T07:46:23Z</time>
      </trkpt>
      <trkpt lat="45.1981" lon="5.74236">
        <ele>199.007</ele>
        <time>2021-03-14T07:46:28Z</time>
      </trkpt>
      <trkpt lat="45.19796" lon="5.74237">
        <ele>197.919</ele>
        <time>2021-03-14T07:46:33Z</time>
      </trkpt>
      <trkpt lat="45.19774" lon="5.7424">
        <ele>198.832</ele>
        <time>2021-03-14T07:46:40Z</time>
      </trkpt>
      <trkpt lat="45.19753" lon="5.74244">
        <ele>198.494</ele>
        <time>2021-03-14T07:46:46Z</time>
      </trkpt>
      <trkpt lat="45.19734" lon="5.74248">
        <ele>199.141</ele>
        <time>2021-03-14T07:46:52Z</time>
      </trkpt>
      <trkpt lat="45.19728" lon="5.74242">
        <ele>197.551</ele>
        <time>2021-03-14T07:46:57Z</time>
      </trkpt>
      <trkpt lat="45.19727" lon="5.74223">
        <ele>197.093</ele>
        <time>2021-03-14T07:47:03Z</time>
      </trkpt>
      <trkpt lat="45.19725" lon="5.74205">
        <ele>197.481</ele>
        <time>2021-03-14T07:47:08Z</time>
      </trkpt>
      <trkpt lat="45.19719" lon="5.74186">
        <ele>197.731</ele>
        <time>2021-03-14T07:47:14Z</time>
      </trkpt>
      <trkpt lat="45.19719" lon="5.74183">
        <ele>197.662</ele>
        <time>2021-03-14T07:47:15Z</time>
      </trkpt>
      <trkpt lat="45.19714" lon="5.74155">
        <ele>197.511</ele>
        <time>2021-03-14T07:47:24Z</time>
      </trkpt>
      <trkpt lat="45.19712" lon="5.74137">
        <ele>197.689</ele>
        <time>2021-03-14T07:47:29Z</time>
      </trkpt>
      <trkpt lat="45.19708" lon="5.74121">
        <ele>197.203</ele>
        <time>2021-03-14T07:47:33Z</time>
      </trkpt>
      <trkpt lat="45.19707" lon="5.74117">
        <ele>197.559</ele>
        <time>2021-03-14T07:47:34Z</time>
      </trkpt>
      <trkpt lat="45.19699" lon="5.74099">
        <ele>197.802</ele>
        <time>2021-03-14T07:47:38Z</time>
      </trkpt>
      <trkpt lat="45.19687" lon="5.74075">
        <ele>197.247</ele>
        <time>2021-03-14T07:47:45Z</time>
      </trkpt>
      <trkpt lat="45.19684" lon="5.74067">
        <ele>197.64</ele>
        <time>2021-03-14T07:47:47Z</time>
      </trkpt>
      <trkpt lat="45.19691" lon="5.74035">
        <ele>197.358</ele>
        <time>2021-03-14T07:47:55Z</time>
      </trkpt>
      <trkpt lat="45.19685" lon="5.74011">
        <ele>197.158</ele>
        <time>2021-03-14T07:48:01Z</time>
      </trkpt>
      <trkpt lat="45.19677" lon="5.74">
        <ele>197.345</ele>
        <time>2021-03-14T07:48:06Z</time>
      </trkpt>
      <trkpt lat="45.19655" lon="5.74004">
        <ele>196.94</ele>
        <time>2021-03-14T07:48:11Z</time>
      </trkpt>
      <trkpt lat="45.19632" lon="5.74009">
        <ele>197.314</ele>
        <time>2021-03-14T07:48:17Z</time>
      </trkpt>
      <trkpt lat="45.19616" lon="5.74004">
        <ele>197.241</ele>
        <time>2021-03-14T07:48:22Z</time>
      </trkpt>
      <trkpt lat="45.19608" lon="5.73991">
        <ele>197.238</ele>
        <time>2021-03-14T07:48:27Z</time>
      </trkpt>
      <trkpt lat="45.1962" lon="5.73966">
        <ele>197.547</ele>
        <time>2021-03-14T07:48:33Z</time>
      </trkpt>
      <trkpt lat="45.19622" lon="5.73958">
        <ele>198.007</ele>
        <time>2021-03-14T07:48:37Z</time>
      </trkpt>
      <trkpt lat="45.1962" lon="5.73966">
        <ele>197.483</ele>
        <time>2021-03-14T07:48:41Z</time>
      </trkpt>
      <trkpt lat="45.19629" lon="5.73973">
        <ele>197.187</ele>
        <time>2021-03-14T07:48:47Z</time>
      </trkpt>
      <trkpt lat="45.19647" lon="5.73973">
        <ele>195.433</ele>
        <time>2021-03-14T07:48:54Z</time>
      </trkpt>
      <trkpt lat="45.19648" lon="5.73973">
        <ele>188.903</ele>
        <time>2021-03-14T07:48:55Z</time>
      </trkpt>
      <trkpt lat="45.1965" lon="5.73973">
        <ele>200.133</ele>
        <time>2021-03-14T07:48:56Z</time>
      </trkpt>
      <trkpt lat="45.19651" lon="5.73972">
        <ele>199.114</ele>
        <time>2021-03-14T07:48:57Z</time>
      </trkpt>
      <trkpt lat="45.19654" lon="5.73967">
        <ele>198.079</ele>
        <time>2021-03-14T07:49:01Z</time>
      </trkpt>
      <trkpt lat="45.19648" lon="5.73971">
        <ele>199.549</ele>
        <time>2021-03-14T07:49:04Z</time>
      </trkpt>
      <trkpt lat="45.19647" lon="5.73965">
        <ele>199.409</ele>
        <time>2021-03-14T07:49:13Z</time>
      </trkpt>
      <trkpt lat="45.19653" lon="5.73967">
        <ele>201.471</ele>
        <time>2021-03-14T07:49:19Z</time>
      </trkpt>
      <trkpt lat="45.19658" lon="5.73972">
        <ele>202.631</ele>
        <time>2021-03-14T07:49:25Z</time>
      </trkpt>
      <trkpt lat="45.19657" lon="5.73972">
        <ele>203.941</ele>
        <time>2021-03-14T07:49:31Z</time>
      </trkpt>
      <trkpt lat="45.19654" lon="5.73973">
        <ele>203.918</ele>
        <time>2021-03-14T07:49:32Z</time>
      </trkpt>
      <trkpt lat="45.19652" lon="5.73974">
        <ele>206.616</ele>
        <time>2021-03-14T07:49:37Z</time>
      </trkpt>
      <trkpt lat="45.19647" lon="5.73978">
        <ele>207.699</ele>
        <time>2021-03-14T07:49:40Z</time>
      </trkpt>
      <trkpt lat="45.19645" lon="5.73979">
        <ele>207.165</ele>
        <time>2021-03-14T07:49:48Z</time>
      </trkpt>
      <trkpt lat="45.19649" lon="5.73975">
        <ele>206.668</ele>
        <time>2021-03-14T07:49:55Z</time>
      </trkpt>
    </trkseg>
  </trk>
</gpx>